Wetterdaten: Samstag, 02.05.2026
Datum Zeit Temperatur Temp. +5 cm Temp. -10 cm Feuchte A. Luftdruck Regen Wind Richtung Richtung Zeit Sonne UV-I Solarstrahlg Taupunkt Windchill Windböen
02.05.2026 00:00 9,2 °C 3,9 °C 11,7 °C 80 % 1025,5 hPa 0,0 l/m² 0,0 km/h (0 Bft) W 265 ° 0 min 0,0 UV-I 0 W/m² 5,9 °C 9,2 °C 0,0 km/h (0 Bft)
02.05.2026 00:02 9,1 °C 3,9 °C 11,7 °C 80 % 1025,6 hPa 0,0 l/m² 0,0 km/h (0 Bft) W 265 ° 0 min 0,0 UV-I 0 W/m² 5,8 °C 9,1 °C 0,0 km/h (0 Bft)
02.05.2026 00:04 9,0 °C 3,9 °C 11,7 °C 80 % 1025,6 hPa 0,0 l/m² 0,3 km/h (0 Bft) W 265 ° 0 min 0,0 UV-I 0 W/m² 5,7 °C 9,0 °C 1,6 km/h (1 Bft)
02.05.2026 00:06 8,9 °C 3,9 °C 11,7 °C 80 % 1025,5 hPa 0,0 l/m² 0,8 km/h (0 Bft) W 265 ° 0 min 0,0 UV-I 0 W/m² 5,6 °C 8,9 °C 1,6 km/h (1 Bft)
02.05.2026 00:08 8,9 °C 3,9 °C 11,7 °C 80 % 1025,5 hPa 0,0 l/m² 0,1 km/h (0 Bft) W 265 ° 0 min 0,0 UV-I 0 W/m² 5,6 °C 8,9 °C 1,6 km/h (1 Bft)
02.05.2026 00:10 8,8 °C 3,9 °C 11,7 °C 80 % 1025,5 hPa 0,0 l/m² 0,0 km/h (0 Bft) W 265 ° 0 min 0,0 UV-I 0 W/m² 5,5 °C 8,8 °C 0,0 km/h (0 Bft)
02.05.2026 00:12 8,8 °C 3,9 °C 11,7 °C 81 % 1025,5 hPa 0,0 l/m² 0,0 km/h (0 Bft) W 265 ° 0 min 0,0 UV-I 0 W/m² 5,7 °C 8,8 °C 0,0 km/h (0 Bft)
02.05.2026 00:14 8,8 °C 3,3 °C 11,7 °C 81 % 1025,5 hPa 0,0 l/m² 0,0 km/h (0 Bft) W 265 ° 0 min 0,0 UV-I 0 W/m² 5,7 °C 8,8 °C 0,0 km/h (0 Bft)
02.05.2026 00:16 8,7 °C 3,3 °C 11,7 °C 81 % 1025,5 hPa 0,0 l/m² 0,0 km/h (0 Bft) W 265 ° 0 min 0,0 UV-I 0 W/m² 5,6 °C 8,7 °C 0,0 km/h (0 Bft)
02.05.2026 00:18 8,7 °C 3,9 °C 11,7 °C 81 % 1025,5 hPa 0,0 l/m² 0,0 km/h (0 Bft) W 265 ° 0 min 0,0 UV-I 0 W/m² 5,6 °C 8,7 °C 0,0 km/h (0 Bft)
02.05.2026 00:20 8,6 °C 3,9 °C 11,7 °C 81 % 1025,5 hPa 0,0 l/m² 0,0 km/h (0 Bft) W 265 ° 0 min 0,0 UV-I 0 W/m² 5,5 °C 8,6 °C 0,0 km/h (0 Bft)
02.05.2026 00:22 8,6 °C 3,9 °C 11,7 °C 81 % 1025,5 hPa 0,0 l/m² 0,0 km/h (0 Bft) W 265 ° 0 min 0,0 UV-I 0 W/m² 5,5 °C 8,6 °C 0,0 km/h (0 Bft)
02.05.2026 00:24 8,4 °C 3,9 °C 11,7 °C 81 % 1025,5 hPa 0,0 l/m² 0,0 km/h (0 Bft) W 265 ° 0 min 0,0 UV-I 0 W/m² 5,3 °C 8,4 °C 0,0 km/h (0 Bft)
02.05.2026 00:26 8,4 °C 3,9 °C 11,7 °C 82 % 1025,5 hPa 0,0 l/m² 0,0 km/h (0 Bft) W 265 ° 0 min 0,0 UV-I 0 W/m² 5,5 °C 8,4 °C 0,0 km/h (0 Bft)
02.05.2026 00:28 8,4 °C 3,3 °C 11,7 °C 82 % 1025,5 hPa 0,0 l/m² 0,0 km/h (0 Bft) W 265 ° 0 min 0,0 UV-I 0 W/m² 5,5 °C 8,4 °C 0,0 km/h (0 Bft)
02.05.2026 00:30 8,4 °C 3,3 °C 11,7 °C 82 % 1025,5 hPa 0,0 l/m² 0,0 km/h (0 Bft) W 265 ° 0 min 0,0 UV-I 0 W/m² 5,5 °C 8,4 °C 0,0 km/h (0 Bft)
02.05.2026 00:32 8,4 °C 3,3 °C 11,7 °C 82 % 1025,4 hPa 0,0 l/m² 0,0 km/h (0 Bft) W 265 ° 0 min 0,0 UV-I 0 W/m² 5,5 °C 8,4 °C 0,0 km/h (0 Bft)
02.05.2026 00:34 8,4 °C 3,3 °C 11,7 °C 82 % 1025,4 hPa 0,0 l/m² 0,0 km/h (0 Bft) W 265 ° 0 min 0,0 UV-I 0 W/m² 5,5 °C 8,4 °C 0,0 km/h (0 Bft)
02.05.2026 00:36 8,3 °C 3,3 °C 11,7 °C 82 % 1025,4 hPa 0,0 l/m² 0,0 km/h (0 Bft) W 265 ° 0 min 0,0 UV-I 0 W/m² 5,4 °C 8,3 °C 0,0 km/h (0 Bft)
02.05.2026 00:38 8,2 °C 3,3 °C 11,7 °C 82 % 1025,4 hPa 0,0 l/m² 0,0 km/h (0 Bft) W 265 ° 0 min 0,0 UV-I 0 W/m² 5,3 °C 8,2 °C 0,0 km/h (0 Bft)
02.05.2026 00:40 8,3 °C 3,3 °C 11,7 °C 82 % 1025,4 hPa 0,0 l/m² 0,0 km/h (0 Bft) W 265 ° 0 min 0,0 UV-I 0 W/m² 5,4 °C 8,3 °C 0,0 km/h (0 Bft)
02.05.2026 00:42 8,3 °C 3,3 °C 11,7 °C 83 % 1025,4 hPa 0,0 l/m² 0,0 km/h (0 Bft) W 265 ° 0 min 0,0 UV-I 0 W/m² 5,6 °C 8,3 °C 0,0 km/h (0 Bft)
02.05.2026 00:44 8,3 °C 3,3 °C 11,7 °C 82 % 1025,4 hPa 0,0 l/m² 0,0 km/h (0 Bft) W 265 ° 0 min 0,0 UV-I 0 W/m² 5,4 °C 8,3 °C 0,0 km/h (0 Bft)
02.05.2026 00:46 8,2 °C 3,3 °C 11,7 °C 83 % 1025,4 hPa 0,0 l/m² 0,0 km/h (0 Bft) W 265 ° 0 min 0,0 UV-I 0 W/m² 5,5 °C 8,2 °C 0,0 km/h (0 Bft)
02.05.2026 00:48 8,1 °C 3,3 °C 11,7 °C 82 % 1025,4 hPa 0,0 l/m² 0,0 km/h (0 Bft) W 265 ° 0 min 0,0 UV-I 0 W/m² 5,2 °C 8,1 °C 0,0 km/h (0 Bft)
02.05.2026 00:50 8,1 °C 3,3 °C 11,1 °C 82 % 1025,4 hPa 0,0 l/m² 0,0 km/h (0 Bft) W 265 ° 0 min 0,0 UV-I 0 W/m² 5,2 °C 8,1 °C 0,0 km/h (0 Bft)
02.05.2026 00:52 7,9 °C 3,3 °C 11,7 °C 83 % 1025,4 hPa 0,0 l/m² 0,0 km/h (0 Bft) W 265 ° 0 min 0,0 UV-I 0 W/m² 5,2 °C 7,9 °C 0,0 km/h (0 Bft)
02.05.2026 00:54 7,9 °C 3,3 °C 11,7 °C 83 % 1025,4 hPa 0,0 l/m² 0,0 km/h (0 Bft) W 265 ° 0 min 0,0 UV-I 0 W/m² 5,2 °C 7,9 °C 0,0 km/h (0 Bft)
02.05.2026 00:56 7,9 °C 3,3 °C 11,1 °C 83 % 1025,4 hPa 0,0 l/m² 0,0 km/h (0 Bft) W 265 ° 0 min 0,0 UV-I 0 W/m² 5,2 °C 7,9 °C 0,0 km/h (0 Bft)
02.05.2026 00:58 7,9 °C 3,3 °C 11,7 °C 83 % 1025,4 hPa 0,0 l/m² 0,1 km/h (0 Bft) W 265 ° 0 min 0,0 UV-I 0 W/m² 5,2 °C 7,9 °C 1,6 km/h (1 Bft)
02.05.2026 01:00 7,9 °C 3,3 °C 11,1 °C 83 % 1025,4 hPa 0,0 l/m² 0,4 km/h (0 Bft) W 265 ° 0 min 0,0 UV-I 0 W/m² 5,2 °C 7,9 °C 3,2 km/h (1 Bft)
02.05.2026 01:02 7,8 °C 2,8 °C 11,1 °C 83 % 1025,4 hPa 0,0 l/m² 0,0 km/h (0 Bft) W 265 ° 0 min 0,0 UV-I 0 W/m² 5,1 °C 7,8 °C 0,0 km/h (0 Bft)
02.05.2026 01:04 7,9 °C 2,8 °C 11,7 °C 83 % 1025,3 hPa 0,0 l/m² 0,0 km/h (0 Bft) W 265 ° 0 min 0,0 UV-I 0 W/m² 5,2 °C 7,9 °C 0,0 km/h (0 Bft)
02.05.2026 01:06 7,9 °C 2,8 °C 11,7 °C 83 % 1025,3 hPa 0,0 l/m² 0,0 km/h (0 Bft) W 265 ° 0 min 0,0 UV-I 0 W/m² 5,2 °C 7,9 °C 0,0 km/h (0 Bft)
02.05.2026 01:08 7,9 °C 2,8 °C 11,7 °C 83 % 1025,4 hPa 0,0 l/m² 0,0 km/h (0 Bft) W 265 ° 0 min 0,0 UV-I 0 W/m² 5,2 °C 7,9 °C 0,0 km/h (0 Bft)
02.05.2026 01:10 7,9 °C 2,8 °C 11,1 °C 83 % 1025,4 hPa 0,0 l/m² 0,0 km/h (0 Bft) W 265 ° 0 min 0,0 UV-I 0 W/m² 5,2 °C 7,9 °C 0,0 km/h (0 Bft)
02.05.2026 01:12 7,9 °C 2,8 °C 11,1 °C 83 % 1025,3 hPa 0,0 l/m² 0,0 km/h (0 Bft) W 265 ° 0 min 0,0 UV-I 0 W/m² 5,2 °C 7,9 °C 0,0 km/h (0 Bft)
02.05.2026 01:14 7,8 °C 2,8 °C 11,7 °C 83 % 1025,3 hPa 0,0 l/m² 0,0 km/h (0 Bft) W 265 ° 0 min 0,0 UV-I 0 W/m² 5,1 °C 7,8 °C 0,0 km/h (0 Bft)
02.05.2026 01:16 7,7 °C 2,8 °C 11,1 °C 83 % 1025,2 hPa 0,0 l/m² 0,1 km/h (0 Bft) W 265 ° 0 min 0,0 UV-I 0 W/m² 5,0 °C 7,7 °C 1,6 km/h (1 Bft)
02.05.2026 01:18 7,7 °C 2,8 °C 11,1 °C 83 % 1025,2 hPa 0,0 l/m² 0,0 km/h (0 Bft) W 265 ° 0 min 0,0 UV-I 0 W/m² 5,0 °C 7,7 °C 0,0 km/h (0 Bft)
02.05.2026 01:20 7,7 °C 2,8 °C 11,1 °C 83 % 1025,2 hPa 0,0 l/m² 0,0 km/h (0 Bft) W 265 ° 0 min 0,0 UV-I 0 W/m² 5,0 °C 7,7 °C 0,0 km/h (0 Bft)
02.05.2026 01:22 7,6 °C 2,8 °C 11,1 °C 83 % 1025,2 hPa 0,0 l/m² 0,0 km/h (0 Bft) W 265 ° 0 min 0,0 UV-I 0 W/m² 4,9 °C 7,6 °C 0,0 km/h (0 Bft)
02.05.2026 01:24 7,6 °C 2,8 °C 11,1 °C 83 % 1025,2 hPa 0,0 l/m² 0,0 km/h (0 Bft) W 265 ° 0 min 0,0 UV-I 0 W/m² 4,9 °C 7,6 °C 0,0 km/h (0 Bft)
02.05.2026 01:26 7,5 °C 2,8 °C 11,1 °C 83 % 1025,2 hPa 0,0 l/m² 0,0 km/h (0 Bft) W 265 ° 0 min 0,0 UV-I 0 W/m² 4,8 °C 7,5 °C 0,0 km/h (0 Bft)
02.05.2026 01:28 7,4 °C 2,8 °C 11,1 °C 83 % 1025,2 hPa 0,0 l/m² 0,0 km/h (0 Bft) W 265 ° 0 min 0,0 UV-I 0 W/m² 4,7 °C 7,4 °C 0,0 km/h (0 Bft)
02.05.2026 01:30 7,4 °C 2,8 °C 11,1 °C 83 % 1025,3 hPa 0,0 l/m² 0,0 km/h (0 Bft) W 265 ° 0 min 0,0 UV-I 0 W/m² 4,7 °C 7,4 °C 0,0 km/h (0 Bft)
02.05.2026 01:32 7,4 °C 2,8 °C 11,1 °C 84 % 1025,3 hPa 0,0 l/m² 0,0 km/h (0 Bft) W 265 ° 0 min 0,0 UV-I 0 W/m² 4,9 °C 7,4 °C 0,0 km/h (0 Bft)
02.05.2026 01:34 7,4 °C 2,8 °C 11,1 °C 84 % 1025,2 hPa 0,0 l/m² 0,0 km/h (0 Bft) W 265 ° 0 min 0,0 UV-I 0 W/m² 4,9 °C 7,4 °C 0,0 km/h (0 Bft)
02.05.2026 01:36 7,4 °C 2,8 °C 11,1 °C 84 % 1025,2 hPa 0,0 l/m² 0,0 km/h (0 Bft) W 265 ° 0 min 0,0 UV-I 0 W/m² 4,9 °C 7,4 °C 0,0 km/h (0 Bft)
02.05.2026 01:38 7,4 °C 2,8 °C 11,1 °C 84 % 1025,2 hPa 0,0 l/m² 0,0 km/h (0 Bft) W 265 ° 0 min 0,0 UV-I 0 W/m² 4,9 °C 7,4 °C 0,0 km/h (0 Bft)
02.05.2026 01:40 7,3 °C 2,2 °C 11,1 °C 84 % 1025,2 hPa 0,0 l/m² 0,0 km/h (0 Bft) W 265 ° 0 min 0,0 UV-I 0 W/m² 4,8 °C 7,3 °C 0,0 km/h (0 Bft)
02.05.2026 01:42 7,3 °C 2,8 °C 11,1 °C 84 % 1025,2 hPa 0,0 l/m² 0,0 km/h (0 Bft) W 265 ° 0 min 0,0 UV-I 0 W/m² 4,8 °C 7,3 °C 0,0 km/h (0 Bft)
02.05.2026 01:44 7,2 °C 2,8 °C 11,1 °C 84 % 1025,2 hPa 0,0 l/m² 0,0 km/h (0 Bft) W 265 ° 0 min 0,0 UV-I 0 W/m² 4,7 °C 7,2 °C 0,0 km/h (0 Bft)
02.05.2026 01:46 7,2 °C 2,2 °C 11,1 °C 84 % 1025,1 hPa 0,0 l/m² 0,0 km/h (0 Bft) W 265 ° 0 min 0,0 UV-I 0 W/m² 4,7 °C 7,2 °C 0,0 km/h (0 Bft)
02.05.2026 01:48 7,2 °C 2,8 °C 11,1 °C 84 % 1025,2 hPa 0,0 l/m² 0,0 km/h (0 Bft) W 265 ° 0 min 0,0 UV-I 0 W/m² 4,7 °C 7,2 °C 0,0 km/h (0 Bft)
02.05.2026 01:50 7,1 °C 2,8 °C 11,1 °C 84 % 1025,1 hPa 0,0 l/m² 0,0 km/h (0 Bft) W 265 ° 0 min 0,0 UV-I 0 W/m² 4,6 °C 7,1 °C 0,0 km/h (0 Bft)
02.05.2026 01:52 7,1 °C 2,2 °C 11,1 °C 84 % 1025,1 hPa 0,0 l/m² 0,0 km/h (0 Bft) W 265 ° 0 min 0,0 UV-I 0 W/m² 4,6 °C 7,1 °C 0,0 km/h (0 Bft)
02.05.2026 01:54 7,1 °C 2,2 °C 11,1 °C 84 % 1025,1 hPa 0,0 l/m² 0,0 km/h (0 Bft) W 265 ° 0 min 0,0 UV-I 0 W/m² 4,6 °C 7,1 °C 1,6 km/h (1 Bft)
02.05.2026 01:56 7,1 °C 2,2 °C 11,1 °C 84 % 1025,1 hPa 0,0 l/m² 0,0 km/h (0 Bft) W 265 ° 0 min 0,0 UV-I 0 W/m² 4,6 °C 7,1 °C 0,0 km/h (0 Bft)
02.05.2026 01:58 7,1 °C 2,2 °C 11,1 °C 84 % 1025,1 hPa 0,0 l/m² 0,1 km/h (0 Bft) W 265 ° 0 min 0,0 UV-I 0 W/m² 4,6 °C 7,1 °C 1,6 km/h (1 Bft)
02.05.2026 02:00 7,0 °C 2,2 °C 11,1 °C 84 % 1025,1 hPa 0,0 l/m² 0,2 km/h (0 Bft) W 265 ° 0 min 0,0 UV-I 0 W/m² 4,5 °C 7,0 °C 1,6 km/h (1 Bft)
02.05.2026 02:02 7,0 °C 2,2 °C 11,1 °C 84 % 1025,1 hPa 0,0 l/m² 0,0 km/h (0 Bft) W 265 ° 0 min 0,0 UV-I 0 W/m² 4,5 °C 7,0 °C 1,6 km/h (1 Bft)
02.05.2026 02:04 6,9 °C 2,2 °C 11,1 °C 84 % 1025,1 hPa 0,0 l/m² 0,0 km/h (0 Bft) W 265 ° 0 min 0,0 UV-I 0 W/m² 4,4 °C 6,9 °C 0,0 km/h (0 Bft)
02.05.2026 02:06 6,9 °C 2,2 °C 11,1 °C 84 % 1025,1 hPa 0,0 l/m² 0,0 km/h (0 Bft) W 265 ° 0 min 0,0 UV-I 0 W/m² 4,4 °C 6,9 °C 0,0 km/h (0 Bft)
02.05.2026 02:08 6,9 °C 2,2 °C 11,1 °C 84 % 1025,1 hPa 0,0 l/m² 0,0 km/h (0 Bft) W 265 ° 0 min 0,0 UV-I 0 W/m² 4,4 °C 6,9 °C 0,0 km/h (0 Bft)
02.05.2026 02:10 6,9 °C 2,2 °C 11,1 °C 84 % 1025,1 hPa 0,0 l/m² 0,0 km/h (0 Bft) W 265 ° 0 min 0,0 UV-I 0 W/m² 4,4 °C 6,9 °C 0,0 km/h (0 Bft)
02.05.2026 02:12 6,9 °C 2,2 °C 11,1 °C 85 % 1025,1 hPa 0,0 l/m² 0,0 km/h (0 Bft) W 265 ° 0 min 0,0 UV-I 0 W/m² 4,6 °C 6,9 °C 0,0 km/h (0 Bft)
02.05.2026 02:14 6,9 °C 2,2 °C 11,1 °C 85 % 1025,0 hPa 0,0 l/m² 0,0 km/h (0 Bft) W 265 ° 0 min 0,0 UV-I 0 W/m² 4,6 °C 6,9 °C 0,0 km/h (0 Bft)
02.05.2026 02:16 6,8 °C 2,2 °C 11,1 °C 85 % 1025,0 hPa 0,0 l/m² 0,0 km/h (0 Bft) W 265 ° 0 min 0,0 UV-I 0 W/m² 4,5 °C 6,8 °C 0,0 km/h (0 Bft)
02.05.2026 02:18 6,8 °C 2,2 °C 11,1 °C 85 % 1025,0 hPa 0,0 l/m² 0,0 km/h (0 Bft) W 265 ° 0 min 0,0 UV-I 0 W/m² 4,5 °C 6,8 °C 0,0 km/h (0 Bft)
02.05.2026 02:20 6,8 °C 2,2 °C 11,1 °C 85 % 1025,0 hPa 0,0 l/m² 0,0 km/h (0 Bft) W 265 ° 0 min 0,0 UV-I 0 W/m² 4,5 °C 6,8 °C 0,0 km/h (0 Bft)
02.05.2026 02:22 6,8 °C 1,7 °C 11,1 °C 85 % 1025,0 hPa 0,0 l/m² 0,0 km/h (0 Bft) W 265 ° 0 min 0,0 UV-I 0 W/m² 4,5 °C 6,8 °C 0,0 km/h (0 Bft)
02.05.2026 02:24 6,8 °C 2,2 °C 11,1 °C 85 % 1025,0 hPa 0,0 l/m² 0,0 km/h (0 Bft) W 265 ° 0 min 0,0 UV-I 0 W/m² 4,5 °C 6,8 °C 0,0 km/h (0 Bft)
02.05.2026 02:26 6,7 °C 1,7 °C 11,1 °C 85 % 1025,0 hPa 0,0 l/m² 0,0 km/h (0 Bft) W 265 ° 0 min 0,0 UV-I 0 W/m² 4,4 °C 6,7 °C 0,0 km/h (0 Bft)
02.05.2026 02:28 6,7 °C 1,7 °C 11,1 °C 85 % 1025,0 hPa 0,0 l/m² 0,0 km/h (0 Bft) W 265 ° 0 min 0,0 UV-I 0 W/m² 4,4 °C 6,7 °C 0,0 km/h (0 Bft)
02.05.2026 02:30 6,8 °C 1,7 °C 11,1 °C 85 % 1025,0 hPa 0,0 l/m² 0,0 km/h (0 Bft) W 265 ° 0 min 0,0 UV-I 0 W/m² 4,5 °C 6,8 °C 0,0 km/h (0 Bft)
02.05.2026 02:32 6,7 °C 1,7 °C 11,1 °C 85 % 1025,0 hPa 0,0 l/m² 0,0 km/h (0 Bft) W 265 ° 0 min 0,0 UV-I 0 W/m² 4,4 °C 6,7 °C 0,0 km/h (0 Bft)
02.05.2026 02:34 6,7 °C 2,2 °C 11,1 °C 85 % 1025,0 hPa 0,0 l/m² 0,0 km/h (0 Bft) W 265 ° 0 min 0,0 UV-I 0 W/m² 4,4 °C 6,7 °C 0,0 km/h (0 Bft)
02.05.2026 02:36 6,7 °C 2,2 °C 11,1 °C 85 % 1025,0 hPa 0,0 l/m² 0,0 km/h (0 Bft) W 265 ° 0 min 0,0 UV-I 0 W/m² 4,4 °C 6,7 °C 0,0 km/h (0 Bft)
02.05.2026 02:38 6,7 °C 2,2 °C 11,1 °C 85 % 1024,9 hPa 0,0 l/m² 0,0 km/h (0 Bft) W 265 ° 0 min 0,0 UV-I 0 W/m² 4,4 °C 6,7 °C 0,0 km/h (0 Bft)
02.05.2026 02:40 6,6 °C 2,8 °C 11,1 °C 85 % 1025,0 hPa 0,0 l/m² 0,0 km/h (0 Bft) W 265 ° 0 min 0,0 UV-I 0 W/m² 4,3 °C 6,6 °C 0,0 km/h (0 Bft)
02.05.2026 02:42 6,6 °C 2,2 °C 11,1 °C 85 % 1025,0 hPa 0,0 l/m² 0,0 km/h (0 Bft) W 265 ° 0 min 0,0 UV-I 0 W/m² 4,3 °C 6,6 °C 1,6 km/h (1 Bft)
02.05.2026 02:44 6,6 °C 2,2 °C 11,1 °C 85 % 1025,0 hPa 0,0 l/m² 0,3 km/h (0 Bft) W 265 ° 0 min 0,0 UV-I 0 W/m² 4,3 °C 6,6 °C 1,6 km/h (1 Bft)
02.05.2026 02:46 6,4 °C 2,2 °C 11,1 °C 85 % 1025,0 hPa 0,0 l/m² 0,3 km/h (0 Bft) W 265 ° 0 min 0,0 UV-I 0 W/m² 4,1 °C 6,4 °C 1,6 km/h (1 Bft)
02.05.2026 02:48 6,4 °C 2,2 °C 11,1 °C 85 % 1025,0 hPa 0,0 l/m² 0,0 km/h (0 Bft) W 265 ° 0 min 0,0 UV-I 0 W/m² 4,1 °C 6,4 °C 0,0 km/h (0 Bft)
02.05.2026 02:50 6,4 °C 1,7 °C 11,1 °C 85 % 1025,0 hPa 0,0 l/m² 0,0 km/h (0 Bft) W 265 ° 0 min 0,0 UV-I 0 W/m² 4,1 °C 6,4 °C 0,0 km/h (0 Bft)
02.05.2026 02:52 6,4 °C 2,2 °C 11,1 °C 85 % 1025,0 hPa 0,0 l/m² 0,0 km/h (0 Bft) W 265 ° 0 min 0,0 UV-I 0 W/m² 4,1 °C 6,4 °C 0,0 km/h (0 Bft)
02.05.2026 02:54 6,4 °C 2,2 °C 11,1 °C 86 % 1024,9 hPa 0,0 l/m² 0,0 km/h (0 Bft) W 265 ° 0 min 0,0 UV-I 0 W/m² 4,2 °C 6,4 °C 1,6 km/h (1 Bft)
02.05.2026 02:56 6,4 °C 2,2 °C 11,1 °C 86 % 1024,9 hPa 0,0 l/m² 0,0 km/h (0 Bft) W 265 ° 0 min 0,0 UV-I 0 W/m² 4,2 °C 6,4 °C 0,0 km/h (0 Bft)
02.05.2026 02:58 6,3 °C 1,7 °C 11,1 °C 86 % 1024,9 hPa 0,0 l/m² 0,0 km/h (0 Bft) W 265 ° 0 min 0,0 UV-I 0 W/m² 4,1 °C 6,3 °C 0,0 km/h (0 Bft)
02.05.2026 03:00 6,3 °C 1,7 °C 11,1 °C 86 % 1024,8 hPa 0,0 l/m² 0,0 km/h (0 Bft) W 265 ° 0 min 0,0 UV-I 0 W/m² 4,1 °C 6,3 °C 0,0 km/h (0 Bft)
02.05.2026 03:02 6,3 °C 1,7 °C 11,1 °C 86 % 1024,8 hPa 0,0 l/m² 0,1 km/h (0 Bft) W 265 ° 0 min 0,0 UV-I 0 W/m² 4,1 °C 6,3 °C 1,6 km/h (1 Bft)
02.05.2026 03:04 6,2 °C 1,7 °C 11,1 °C 86 % 1024,8 hPa 0,0 l/m² 0,2 km/h (0 Bft) W 265 ° 0 min 0,0 UV-I 0 W/m² 4,0 °C 6,2 °C 1,6 km/h (1 Bft)
02.05.2026 03:06 6,2 °C 1,7 °C 11,1 °C 86 % 1024,8 hPa 0,0 l/m² 0,2 km/h (0 Bft) W 265 ° 0 min 0,0 UV-I 0 W/m² 4,0 °C 6,2 °C 1,6 km/h (1 Bft)
02.05.2026 03:08 6,2 °C 1,7 °C 11,1 °C 86 % 1024,8 hPa 0,0 l/m² 0,2 km/h (0 Bft) W 265 ° 0 min 0,0 UV-I 0 W/m² 4,0 °C 6,2 °C 1,6 km/h (1 Bft)
02.05.2026 03:10 6,1 °C 1,7 °C 11,1 °C 86 % 1024,7 hPa 0,0 l/m² 0,0 km/h (0 Bft) W 265 ° 0 min 0,0 UV-I 0 W/m² 3,9 °C 6,1 °C 0,0 km/h (0 Bft)
02.05.2026 03:12 6,1 °C 1,7 °C 11,1 °C 86 % 1024,7 hPa 0,0 l/m² 0,0 km/h (0 Bft) W 265 ° 0 min 0,0 UV-I 0 W/m² 3,9 °C 6,1 °C 0,0 km/h (0 Bft)
02.05.2026 03:14 6,1 °C 1,7 °C 11,1 °C 86 % 1024,7 hPa 0,0 l/m² 0,0 km/h (0 Bft) W 265 ° 0 min 0,0 UV-I 0 W/m² 3,9 °C 6,1 °C 0,0 km/h (0 Bft)
02.05.2026 03:16 6,1 °C 1,7 °C 11,1 °C 86 % 1024,7 hPa 0,0 l/m² 0,0 km/h (0 Bft) W 265 ° 0 min 0,0 UV-I 0 W/m² 3,9 °C 6,1 °C 1,6 km/h (1 Bft)
02.05.2026 03:18 6,1 °C 1,7 °C 11,1 °C 86 % 1024,7 hPa 0,0 l/m² 0,1 km/h (0 Bft) W 265 ° 0 min 0,0 UV-I 0 W/m² 3,9 °C 6,1 °C 1,6 km/h (1 Bft)
02.05.2026 03:20 6,1 °C 1,7 °C 11,1 °C 86 % 1024,6 hPa 0,0 l/m² 0,0 km/h (0 Bft) W 265 ° 0 min 0,0 UV-I 0 W/m² 3,9 °C 6,1 °C 0,0 km/h (0 Bft)
02.05.2026 03:22 6,1 °C 1,7 °C 11,1 °C 86 % 1024,6 hPa 0,0 l/m² 0,0 km/h (0 Bft) W 265 ° 0 min 0,0 UV-I 0 W/m² 3,9 °C 6,1 °C 0,0 km/h (0 Bft)
02.05.2026 03:24 6,1 °C 1,7 °C 11,1 °C 86 % 1024,6 hPa 0,0 l/m² 0,0 km/h (0 Bft) W 265 ° 0 min 0,0 UV-I 0 W/m² 3,9 °C 6,1 °C 0,0 km/h (0 Bft)
02.05.2026 03:26 6,0 °C 1,7 °C 11,1 °C 86 % 1024,6 hPa 0,0 l/m² 0,1 km/h (0 Bft) W 265 ° 0 min 0,0 UV-I 0 W/m² 3,8 °C 6,0 °C 1,6 km/h (1 Bft)
02.05.2026 03:28 6,0 °C 1,7 °C 11,1 °C 86 % 1024,6 hPa 0,0 l/m² 0,5 km/h (0 Bft) W 265 ° 0 min 0,0 UV-I 0 W/m² 3,8 °C 6,0 °C 1,6 km/h (1 Bft)
02.05.2026 03:30 5,9 °C 1,7 °C 11,1 °C 86 % 1024,6 hPa 0,0 l/m² 0,2 km/h (0 Bft) W 265 ° 0 min 0,0 UV-I 0 W/m² 3,7 °C 5,9 °C 1,6 km/h (1 Bft)
02.05.2026 03:32 5,9 °C 1,7 °C 11,1 °C 86 % 1024,6 hPa 0,0 l/m² 0,3 km/h (0 Bft) W 265 ° 0 min 0,0 UV-I 0 W/m² 3,7 °C 5,9 °C 1,6 km/h (1 Bft)
02.05.2026 03:34 5,9 °C 1,7 °C 11,1 °C 86 % 1024,6 hPa 0,0 l/m² 0,0 km/h (0 Bft) W 265 ° 0 min 0,0 UV-I 0 W/m² 3,7 °C 5,9 °C 1,6 km/h (1 Bft)
02.05.2026 03:36 5,9 °C 1,7 °C 11,1 °C 86 % 1024,6 hPa 0,0 l/m² 0,0 km/h (0 Bft) W 265 ° 0 min 0,0 UV-I 0 W/m² 3,7 °C 5,9 °C 0,0 km/h (0 Bft)
02.05.2026 03:38 5,9 °C 1,7 °C 11,1 °C 86 % 1024,6 hPa 0,0 l/m² 0,0 km/h (0 Bft) W 265 ° 0 min 0,0 UV-I 0 W/m² 3,7 °C 5,9 °C 1,6 km/h (1 Bft)
02.05.2026 03:40 5,9 °C 1,7 °C 11,1 °C 86 % 1024,5 hPa 0,0 l/m² 0,0 km/h (0 Bft) W 265 ° 0 min 0,0 UV-I 0 W/m² 3,7 °C 5,9 °C 0,0 km/h (0 Bft)
02.05.2026 03:42 5,8 °C 1,7 °C 11,1 °C 86 % 1024,5 hPa 0,0 l/m² 0,0 km/h (0 Bft) W 265 ° 0 min 0,0 UV-I 0 W/m² 3,6 °C 5,8 °C 1,6 km/h (1 Bft)
02.05.2026 03:44 5,8 °C 1,7 °C 11,1 °C 86 % 1024,5 hPa 0,0 l/m² 0,2 km/h (0 Bft) W 265 ° 0 min 0,0 UV-I 0 W/m² 3,6 °C 5,8 °C 1,6 km/h (1 Bft)
02.05.2026 03:46 5,8 °C 1,7 °C 11,1 °C 86 % 1024,5 hPa 0,0 l/m² 0,2 km/h (0 Bft) W 265 ° 0 min 0,0 UV-I 0 W/m² 3,6 °C 5,8 °C 1,6 km/h (1 Bft)
02.05.2026 03:48 5,8 °C 1,1 °C 11,1 °C 87 % 1024,5 hPa 0,0 l/m² 0,1 km/h (0 Bft) W 265 ° 0 min 0,0 UV-I 0 W/m² 3,8 °C 5,8 °C 1,6 km/h (1 Bft)
02.05.2026 03:50 5,8 °C 1,1 °C 10,6 °C 87 % 1024,4 hPa 0,0 l/m² 0,0 km/h (0 Bft) W 265 ° 0 min 0,0 UV-I 0 W/m² 3,8 °C 5,8 °C 0,0 km/h (0 Bft)
02.05.2026 03:52 5,8 °C 1,1 °C 10,6 °C 87 % 1024,4 hPa 0,0 l/m² 0,0 km/h (0 Bft) W 265 ° 0 min 0,0 UV-I 0 W/m² 3,8 °C 5,8 °C 0,0 km/h (0 Bft)
02.05.2026 03:54 5,8 °C 1,1 °C 10,6 °C 87 % 1024,4 hPa 0,0 l/m² 0,0 km/h (0 Bft) W 265 ° 0 min 0,0 UV-I 0 W/m² 3,8 °C 5,8 °C 0,0 km/h (0 Bft)
02.05.2026 03:56 5,8 °C 1,1 °C 11,1 °C 87 % 1024,4 hPa 0,0 l/m² 0,0 km/h (0 Bft) W 265 ° 0 min 0,0 UV-I 0 W/m² 3,8 °C 5,8 °C 0,0 km/h (0 Bft)
02.05.2026 03:58 5,8 °C 1,1 °C 11,1 °C 87 % 1024,5 hPa 0,0 l/m² 0,0 km/h (0 Bft) W 265 ° 0 min 0,0 UV-I 0 W/m² 3,8 °C 5,8 °C 0,0 km/h (0 Bft)
02.05.2026 04:00 5,8 °C 1,1 °C 11,1 °C 87 % 1024,4 hPa 0,0 l/m² 0,0 km/h (0 Bft) W 265 ° 0 min 0,0 UV-I 0 W/m² 3,8 °C 5,8 °C 0,0 km/h (0 Bft)
02.05.2026 04:02 5,7 °C 1,1 °C 10,6 °C 87 % 1024,4 hPa 0,0 l/m² 0,0 km/h (0 Bft) W 265 ° 0 min 0,0 UV-I 0 W/m² 3,7 °C 5,7 °C 0,0 km/h (0 Bft)
02.05.2026 04:04 5,7 °C 1,1 °C 10,6 °C 87 % 1024,4 hPa 0,0 l/m² 0,0 km/h (0 Bft) W 265 ° 0 min 0,0 UV-I 0 W/m² 3,7 °C 5,7 °C 1,6 km/h (1 Bft)
02.05.2026 04:06 5,7 °C 1,7 °C 11,1 °C 87 % 1024,4 hPa 0,0 l/m² 0,3 km/h (0 Bft) W 265 ° 0 min 0,0 UV-I 0 W/m² 3,7 °C 5,7 °C 1,6 km/h (1 Bft)
02.05.2026 04:08 5,6 °C 1,1 °C 11,1 °C 87 % 1024,4 hPa 0,0 l/m² 0,0 km/h (0 Bft) W 265 ° 0 min 0,0 UV-I 0 W/m² 3,6 °C 5,6 °C 0,0 km/h (0 Bft)
02.05.2026 04:10 5,6 °C 1,1 °C 10,6 °C 87 % 1024,4 hPa 0,0 l/m² 0,1 km/h (0 Bft) W 265 ° 0 min 0,0 UV-I 0 W/m² 3,6 °C 5,6 °C 1,6 km/h (1 Bft)
02.05.2026 04:12 5,5 °C 1,1 °C 10,6 °C 87 % 1024,4 hPa 0,0 l/m² 0,0 km/h (0 Bft) W 265 ° 0 min 0,0 UV-I 0 W/m² 3,5 °C 5,5 °C 0,0 km/h (0 Bft)
02.05.2026 04:14 5,5 °C 1,1 °C 10,6 °C 87 % 1024,4 hPa 0,0 l/m² 0,0 km/h (0 Bft) W 265 ° 0 min 0,0 UV-I 0 W/m² 3,5 °C 5,5 °C 1,6 km/h (1 Bft)
02.05.2026 04:16 5,5 °C 1,1 °C 10,6 °C 87 % 1024,4 hPa 0,0 l/m² 0,0 km/h (0 Bft) W 265 ° 0 min 0,0 UV-I 0 W/m² 3,5 °C 5,5 °C 0,0 km/h (0 Bft)
02.05.2026 04:18 5,5 °C 1,1 °C 10,6 °C 87 % 1024,4 hPa 0,0 l/m² 0,0 km/h (0 Bft) W 265 ° 0 min 0,0 UV-I 0 W/m² 3,5 °C 5,5 °C 0,0 km/h (0 Bft)
02.05.2026 04:20 5,4 °C 1,1 °C 10,6 °C 87 % 1024,4 hPa 0,0 l/m² 0,0 km/h (0 Bft) W 265 ° 0 min 0,0 UV-I 0 W/m² 3,4 °C 5,4 °C 0,0 km/h (0 Bft)
02.05.2026 04:22 5,4 °C 1,1 °C 10,6 °C 87 % 1024,4 hPa 0,0 l/m² 0,0 km/h (0 Bft) W 265 ° 0 min 0,0 UV-I 0 W/m² 3,4 °C 5,4 °C 1,6 km/h (1 Bft)
02.05.2026 04:24 5,5 °C 1,1 °C 10,6 °C 87 % 1024,4 hPa 0,0 l/m² 0,0 km/h (0 Bft) W 265 ° 0 min 0,0 UV-I 0 W/m² 3,5 °C 5,5 °C 0,0 km/h (0 Bft)
02.05.2026 04:26 5,5 °C 1,1 °C 10,6 °C 87 % 1024,4 hPa 0,0 l/m² 0,0 km/h (0 Bft) W 265 ° 0 min 0,0 UV-I 0 W/m² 3,5 °C 5,5 °C 1,6 km/h (1 Bft)
02.05.2026 04:28 5,4 °C 1,1 °C 10,6 °C 87 % 1024,4 hPa 0,0 l/m² 0,0 km/h (0 Bft) W 265 ° 0 min 0,0 UV-I 0 W/m² 3,4 °C 5,4 °C 0,0 km/h (0 Bft)
02.05.2026 04:30 5,5 °C 1,1 °C 10,6 °C 87 % 1024,4 hPa 0,0 l/m² 0,0 km/h (0 Bft) W 265 ° 0 min 0,0 UV-I 0 W/m² 3,5 °C 5,5 °C 0,0 km/h (0 Bft)
02.05.2026 04:32 5,6 °C 1,1 °C 10,6 °C 87 % 1024,4 hPa 0,0 l/m² 0,0 km/h (0 Bft) W 265 ° 0 min 0,0 UV-I 0 W/m² 3,6 °C 5,6 °C 0,0 km/h (0 Bft)
02.05.2026 04:34 5,5 °C 1,1 °C 10,6 °C 87 % 1024,4 hPa 0,0 l/m² 0,1 km/h (0 Bft) W 265 ° 0 min 0,0 UV-I 0 W/m² 3,5 °C 5,5 °C 1,6 km/h (1 Bft)
02.05.2026 04:36 5,5 °C 1,1 °C 10,6 °C 87 % 1024,4 hPa 0,0 l/m² 0,0 km/h (0 Bft) W 265 ° 0 min 0,0 UV-I 0 W/m² 3,5 °C 5,5 °C 0,0 km/h (0 Bft)
02.05.2026 04:38 5,4 °C 1,1 °C 10,6 °C 87 % 1024,4 hPa 0,0 l/m² 0,0 km/h (0 Bft) W 265 ° 0 min 0,0 UV-I 0 W/m² 3,4 °C 5,4 °C 0,0 km/h (0 Bft)
02.05.2026 04:40 5,4 °C 1,1 °C 10,6 °C 87 % 1024,4 hPa 0,0 l/m² 0,0 km/h (0 Bft) W 265 ° 0 min 0,0 UV-I 0 W/m² 3,4 °C 5,4 °C 0,0 km/h (0 Bft)
02.05.2026 04:42 5,3 °C 1,1 °C 10,6 °C 87 % 1024,4 hPa 0,0 l/m² 0,0 km/h (0 Bft) W 265 ° 0 min 0,0 UV-I 0 W/m² 3,3 °C 5,3 °C 0,0 km/h (0 Bft)
02.05.2026 04:44 5,3 °C 1,1 °C 10,6 °C 87 % 1024,3 hPa 0,0 l/m² 0,0 km/h (0 Bft) W 265 ° 0 min 0,0 UV-I 0 W/m² 3,3 °C 5,3 °C 0,0 km/h (0 Bft)
02.05.2026 04:46 5,2 °C 1,1 °C 10,6 °C 87 % 1024,3 hPa 0,0 l/m² 0,0 km/h (0 Bft) W 265 ° 0 min 0,0 UV-I 0 W/m² 3,2 °C 5,2 °C 0,0 km/h (0 Bft)
02.05.2026 04:48 5,1 °C 1,7 °C 10,6 °C 87 % 1024,3 hPa 0,0 l/m² 0,0 km/h (0 Bft) W 265 ° 0 min 0,0 UV-I 0 W/m² 3,1 °C 5,1 °C 0,0 km/h (0 Bft)
02.05.2026 04:50 5,1 °C 1,7 °C 10,6 °C 87 % 1024,3 hPa 0,0 l/m² 0,0 km/h (0 Bft) W 265 ° 0 min 0,0 UV-I 0 W/m² 3,1 °C 5,1 °C 0,0 km/h (0 Bft)
02.05.2026 04:52 5,1 °C 1,1 °C 10,6 °C 87 % 1024,3 hPa 0,0 l/m² 0,0 km/h (0 Bft) W 265 ° 0 min 0,0 UV-I 0 W/m² 3,1 °C 5,1 °C 0,0 km/h (0 Bft)
02.05.2026 04:54 5,1 °C 1,1 °C 10,6 °C 87 % 1024,3 hPa 0,0 l/m² 0,0 km/h (0 Bft) W 265 ° 0 min 0,0 UV-I 0 W/m² 3,1 °C 5,1 °C 0,0 km/h (0 Bft)
02.05.2026 04:56 5,1 °C 1,1 °C 10,6 °C 87 % 1024,3 hPa 0,0 l/m² 0,0 km/h (0 Bft) W 265 ° 0 min 0,0 UV-I 0 W/m² 3,1 °C 5,1 °C 0,0 km/h (0 Bft)
02.05.2026 04:58 5,1 °C 1,1 °C 10,6 °C 87 % 1024,3 hPa 0,0 l/m² 0,0 km/h (0 Bft) W 265 ° 0 min 0,0 UV-I 0 W/m² 3,1 °C 5,1 °C 0,0 km/h (0 Bft)
02.05.2026 05:00 5,1 °C 1,1 °C 10,6 °C 87 % 1024,3 hPa 0,0 l/m² 0,0 km/h (0 Bft) W 265 ° 0 min 0,0 UV-I 0 W/m² 3,1 °C 5,1 °C 0,0 km/h (0 Bft)
02.05.2026 05:02 5,1 °C 1,1 °C 10,6 °C 87 % 1024,3 hPa 0,0 l/m² 0,0 km/h (0 Bft) W 265 ° 0 min 0,0 UV-I 0 W/m² 3,1 °C 5,1 °C 0,0 km/h (0 Bft)
02.05.2026 05:04 5,1 °C 1,1 °C 10,6 °C 87 % 1024,3 hPa 0,0 l/m² 0,0 km/h (0 Bft) W 265 ° 0 min 0,0 UV-I 0 W/m² 3,1 °C 5,1 °C 0,0 km/h (0 Bft)
02.05.2026 05:06 5,1 °C 1,1 °C 10,6 °C 87 % 1024,3 hPa 0,0 l/m² 0,0 km/h (0 Bft) W 265 ° 0 min 0,0 UV-I 0 W/m² 3,1 °C 5,1 °C 0,0 km/h (0 Bft)
02.05.2026 05:08 5,1 °C 1,1 °C 10,6 °C 87 % 1024,3 hPa 0,0 l/m² 0,0 km/h (0 Bft) W 264 ° 0 min 0,0 UV-I 0 W/m² 3,1 °C 5,1 °C 0,0 km/h (0 Bft)
02.05.2026 05:10 5,0 °C 1,1 °C 10,6 °C 87 % 1024,3 hPa 0,0 l/m² 0,0 km/h (0 Bft) W 264 ° 0 min 0,0 UV-I 0 W/m² 3,0 °C 5,0 °C 0,0 km/h (0 Bft)
02.05.2026 05:12 5,0 °C 1,1 °C 10,6 °C 87 % 1024,2 hPa 0,0 l/m² 0,0 km/h (0 Bft) W 264 ° 0 min 0,0 UV-I 0 W/m² 3,0 °C 5,0 °C 0,0 km/h (0 Bft)
02.05.2026 05:14 5,1 °C 1,1 °C 10,6 °C 87 % 1024,3 hPa 0,0 l/m² 0,0 km/h (0 Bft) W 264 ° 0 min 0,0 UV-I 0 W/m² 3,1 °C 5,1 °C 0,0 km/h (0 Bft)
02.05.2026 05:16 5,1 °C 1,1 °C 10,6 °C 88 % 1024,2 hPa 0,0 l/m² 0,0 km/h (0 Bft) W 264 ° 0 min 0,0 UV-I 0 W/m² 3,3 °C 5,1 °C 0,0 km/h (0 Bft)
02.05.2026 05:18 5,1 °C 1,1 °C 10,6 °C 87 % 1024,2 hPa 0,0 l/m² 0,0 km/h (0 Bft) W 264 ° 0 min 0,0 UV-I 0 W/m² 3,1 °C 5,1 °C 0,0 km/h (0 Bft)
02.05.2026 05:20 5,1 °C 1,1 °C 10,6 °C 87 % 1024,2 hPa 0,0 l/m² 0,0 km/h (0 Bft) W 264 ° 0 min 0,0 UV-I 0 W/m² 3,1 °C 5,1 °C 0,0 km/h (0 Bft)
02.05.2026 05:22 5,1 °C 1,1 °C 10,6 °C 87 % 1024,2 hPa 0,0 l/m² 0,0 km/h (0 Bft) W 264 ° 0 min 0,0 UV-I 0 W/m² 3,1 °C 5,1 °C 0,0 km/h (0 Bft)
02.05.2026 05:24 5,0 °C 1,1 °C 10,6 °C 87 % 1024,2 hPa 0,0 l/m² 0,0 km/h (0 Bft) W 264 ° 0 min 0,0 UV-I 0 W/m² 3,0 °C 5,0 °C 0,0 km/h (0 Bft)
02.05.2026 05:26 5,0 °C 1,1 °C 10,6 °C 87 % 1024,2 hPa 0,0 l/m² 0,0 km/h (0 Bft) W 264 ° 0 min 0,0 UV-I 0 W/m² 3,0 °C 5,0 °C 0,0 km/h (0 Bft)
02.05.2026 05:28 4,9 °C 1,1 °C 10,6 °C 87 % 1024,1 hPa 0,0 l/m² 0,0 km/h (0 Bft) W 264 ° 0 min 0,0 UV-I 0 W/m² 2,9 °C 4,9 °C 0,0 km/h (0 Bft)
02.05.2026 05:30 5,0 °C 1,1 °C 10,6 °C 87 % 1024,1 hPa 0,0 l/m² 0,0 km/h (0 Bft) W 264 ° 0 min 0,0 UV-I 0 W/m² 3,0 °C 5,0 °C 0,0 km/h (0 Bft)
02.05.2026 05:32 5,0 °C 1,1 °C 10,6 °C 87 % 1024,1 hPa 0,0 l/m² 0,0 km/h (0 Bft) W 264 ° 0 min 0,0 UV-I 0 W/m² 3,0 °C 5,0 °C 0,0 km/h (0 Bft)
02.05.2026 05:34 5,0 °C 1,1 °C 10,6 °C 87 % 1024,1 hPa 0,0 l/m² 0,0 km/h (0 Bft) W 264 ° 0 min 0,0 UV-I 0 W/m² 3,0 °C 5,0 °C 0,0 km/h (0 Bft)
02.05.2026 05:36 4,9 °C 0,6 °C 10,6 °C 87 % 1024,1 hPa 0,0 l/m² 0,0 km/h (0 Bft) W 264 ° 0 min 0,0 UV-I 0 W/m² 2,9 °C 4,9 °C 0,0 km/h (0 Bft)
02.05.2026 05:38 4,9 °C 0,6 °C 10,6 °C 87 % 1024,2 hPa 0,0 l/m² 0,0 km/h (0 Bft) W 264 ° 0 min 0,0 UV-I 0 W/m² 2,9 °C 4,9 °C 0,0 km/h (0 Bft)
02.05.2026 05:40 4,9 °C 1,1 °C 10,6 °C 87 % 1024,1 hPa 0,0 l/m² 0,0 km/h (0 Bft) W 264 ° 0 min 0,0 UV-I 0 W/m² 2,9 °C 4,9 °C 0,0 km/h (0 Bft)
02.05.2026 05:42 4,9 °C 1,1 °C 10,6 °C 87 % 1024,1 hPa 0,0 l/m² 0,0 km/h (0 Bft) W 264 ° 0 min 0,0 UV-I 0 W/m² 2,9 °C 4,9 °C 0,0 km/h (0 Bft)
02.05.2026 05:44 4,9 °C 1,1 °C 10,6 °C 87 % 1024,2 hPa 0,0 l/m² 0,0 km/h (0 Bft) W 264 ° 0 min 0,0 UV-I 0 W/m² 2,9 °C 4,9 °C 0,0 km/h (0 Bft)
02.05.2026 05:46 4,9 °C 1,1 °C 10,6 °C 87 % 1024,1 hPa 0,0 l/m² 0,0 km/h (0 Bft) W 264 ° 0 min 0,0 UV-I 0 W/m² 2,9 °C 4,9 °C 0,0 km/h (0 Bft)
02.05.2026 05:48 4,9 °C 1,1 °C 10,6 °C 87 % 1024,1 hPa 0,0 l/m² 0,0 km/h (0 Bft) W 264 ° 0 min 0,0 UV-I 4 W/m² 2,9 °C 4,9 °C 0,0 km/h (0 Bft)
02.05.2026 05:50 4,9 °C 0,6 °C 10,6 °C 87 % 1024,1 hPa 0,0 l/m² 0,0 km/h (0 Bft) W 264 ° 0 min 0,0 UV-I 9 W/m² 2,9 °C 4,9 °C 0,0 km/h (0 Bft)
02.05.2026 05:52 4,9 °C 1,1 °C 10,6 °C 87 % 1024,1 hPa 0,0 l/m² 0,0 km/h (0 Bft) W 264 ° 0 min 0,0 UV-I 14 W/m² 2,9 °C 4,9 °C 0,0 km/h (0 Bft)
02.05.2026 05:54 4,9 °C 1,1 °C 10,6 °C 87 % 1024,1 hPa 0,0 l/m² 0,0 km/h (0 Bft) W 264 ° 2 min 0,0 UV-I 19 W/m² 2,9 °C 4,9 °C 0,0 km/h (0 Bft)
02.05.2026 05:56 4,9 °C 1,1 °C 10,6 °C 87 % 1024,0 hPa 0,0 l/m² 0,0 km/h (0 Bft) W 264 ° 2 min 0,0 UV-I 24 W/m² 2,9 °C 4,9 °C 0,0 km/h (0 Bft)
02.05.2026 05:58 4,9 °C 1,1 °C 10,6 °C 87 % 1024,1 hPa 0,0 l/m² 0,0 km/h (0 Bft) W 264 ° 2 min 0,0 UV-I 29 W/m² 2,9 °C 4,9 °C 0,0 km/h (0 Bft)
02.05.2026 06:00 4,9 °C 1,1 °C 10,6 °C 88 % 1024,1 hPa 0,0 l/m² 0,0 km/h (0 Bft) W 264 ° 2 min 0,0 UV-I 47 W/m² 3,1 °C 4,9 °C 0,0 km/h (0 Bft)
02.05.2026 06:02 4,9 °C 1,1 °C 10,6 °C 87 % 1024,0 hPa 0,0 l/m² 0,0 km/h (0 Bft) W 264 ° 2 min 0,0 UV-I 47 W/m² 2,9 °C 4,9 °C 0,0 km/h (0 Bft)
02.05.2026 06:04 4,9 °C 1,1 °C 10,6 °C 87 % 1024,0 hPa 0,0 l/m² 0,0 km/h (0 Bft) W 264 ° 2 min 0,0 UV-I 47 W/m² 2,9 °C 4,9 °C 0,0 km/h (0 Bft)
02.05.2026 06:06 4,9 °C 1,1 °C 10,6 °C 87 % 1024,0 hPa 0,0 l/m² 0,0 km/h (0 Bft) W 264 ° 2 min 0,0 UV-I 51 W/m² 2,9 °C 4,9 °C 0,0 km/h (0 Bft)
02.05.2026 06:08 4,9 °C 1,1 °C 10,6 °C 87 % 1024,0 hPa 0,0 l/m² 0,0 km/h (0 Bft) W 264 ° 2 min 0,0 UV-I 51 W/m² 2,9 °C 4,9 °C 0,0 km/h (0 Bft)
02.05.2026 06:10 5,0 °C 1,1 °C 10,6 °C 88 % 1024,0 hPa 0,0 l/m² 0,0 km/h (0 Bft) W 264 ° 2 min 0,0 UV-I 54 W/m² 3,2 °C 5,0 °C 0,0 km/h (0 Bft)
02.05.2026 06:12 5,0 °C 1,1 °C 10,6 °C 88 % 1024,0 hPa 0,0 l/m² 0,0 km/h (0 Bft) W 264 ° 2 min 0,0 UV-I 53 W/m² 3,2 °C 5,0 °C 0,0 km/h (0 Bft)
02.05.2026 06:14 5,1 °C 1,1 °C 10,6 °C 88 % 1024,1 hPa 0,0 l/m² 0,0 km/h (0 Bft) W 264 ° 2 min 0,0 UV-I 54 W/m² 3,3 °C 5,1 °C 0,0 km/h (0 Bft)
02.05.2026 06:16 5,1 °C 1,7 °C 10,6 °C 88 % 1024,1 hPa 0,0 l/m² 0,0 km/h (0 Bft) W 264 ° 2 min 0,0 UV-I 54 W/m² 3,3 °C 5,1 °C 0,0 km/h (0 Bft)
02.05.2026 06:18 5,2 °C 1,7 °C 10,6 °C 88 % 1024,1 hPa 0,0 l/m² 0,0 km/h (0 Bft) W 264 ° 2 min 0,0 UV-I 60 W/m² 3,4 °C 5,2 °C 0,0 km/h (0 Bft)
02.05.2026 06:20 5,3 °C 1,7 °C 10,6 °C 88 % 1024,1 hPa 0,0 l/m² 0,0 km/h (0 Bft) W 264 ° 2 min 0,0 UV-I 60 W/m² 3,5 °C 5,3 °C 0,0 km/h (0 Bft)
02.05.2026 06:22 5,3 °C 1,7 °C 10,6 °C 88 % 1024,1 hPa 0,0 l/m² 0,0 km/h (0 Bft) W 261 ° 2 min 0,0 UV-I 62 W/m² 3,5 °C 5,3 °C 0,0 km/h (0 Bft)
02.05.2026 06:24 5,3 °C 1,7 °C 10,6 °C 88 % 1024,0 hPa 0,0 l/m² 0,0 km/h (0 Bft) S-SW 208 ° 2 min 0,0 UV-I 62 W/m² 3,5 °C 5,3 °C 0,0 km/h (0 Bft)
02.05.2026 06:26 5,4 °C 1,7 °C 10,6 °C 88 % 1024,0 hPa 0,0 l/m² 0,0 km/h (0 Bft) S-SW 208 ° 2 min 0,0 UV-I 63 W/m² 3,6 °C 5,4 °C 0,0 km/h (0 Bft)
02.05.2026 06:28 5,4 °C 1,7 °C 10,6 °C 88 % 1024,0 hPa 0,0 l/m² 0,0 km/h (0 Bft) S-SW 208 ° 2 min 0,0 UV-I 65 W/m² 3,6 °C 5,4 °C 0,0 km/h (0 Bft)
02.05.2026 06:30 5,4 °C 1,7 °C 10,6 °C 88 % 1024,1 hPa 0,0 l/m² 0,0 km/h (0 Bft) S-SW 208 ° 2 min 0,0 UV-I 65 W/m² 3,6 °C 5,4 °C 0,0 km/h (0 Bft)
02.05.2026 06:32 5,5 °C 2,2 °C 10,6 °C 88 % 1024,0 hPa 0,0 l/m² 0,0 km/h (0 Bft) S-SW 208 ° 2 min 0,0 UV-I 65 W/m² 3,7 °C 5,5 °C 0,0 km/h (0 Bft)
02.05.2026 06:34 5,6 °C 2,2 °C 10,6 °C 88 % 1024,0 hPa 0,0 l/m² 0,0 km/h (0 Bft) S-SW 208 ° 2 min 0,0 UV-I 67 W/m² 3,8 °C 5,6 °C 0,0 km/h (0 Bft)
02.05.2026 06:36 5,7 °C 2,2 °C 10,6 °C 88 % 1024,0 hPa 0,0 l/m² 0,0 km/h (0 Bft) S-SW 208 ° 2 min 0,0 UV-I 69 W/m² 3,9 °C 5,7 °C 0,0 km/h (0 Bft)
02.05.2026 06:38 5,7 °C 2,2 °C 10,6 °C 88 % 1024,1 hPa 0,0 l/m² 0,0 km/h (0 Bft) S-SW 208 ° 0 min 0,0 UV-I 69 W/m² 3,9 °C 5,7 °C 0,0 km/h (0 Bft)
02.05.2026 06:40 5,8 °C 2,8 °C 10,6 °C 88 % 1024,1 hPa 0,0 l/m² 0,0 km/h (0 Bft) S-SW 208 ° 0 min 0,0 UV-I 70 W/m² 4,0 °C 5,8 °C 0,0 km/h (0 Bft)
02.05.2026 06:42 5,9 °C 2,8 °C 10,6 °C 88 % 1024,0 hPa 0,0 l/m² 0,0 km/h (0 Bft) S-SW 208 ° 0 min 0,0 UV-I 70 W/m² 4,1 °C 5,9 °C 0,0 km/h (0 Bft)
02.05.2026 06:44 5,9 °C 2,8 °C 10,6 °C 88 % 1024,0 hPa 0,0 l/m² 0,0 km/h (0 Bft) S-SW 208 ° 0 min 0,0 UV-I 72 W/m² 4,1 °C 5,9 °C 0,0 km/h (0 Bft)
02.05.2026 06:46 6,1 °C 2,8 °C 10,6 °C 88 % 1024,0 hPa 0,0 l/m² 0,0 km/h (0 Bft) S-SW 208 ° 0 min 0,0 UV-I 74 W/m² 4,3 °C 6,1 °C 0,0 km/h (0 Bft)
02.05.2026 06:48 6,2 °C 3,3 °C 10,6 °C 88 % 1024,0 hPa 0,0 l/m² 0,0 km/h (0 Bft) S-SW 208 ° 0 min 0,0 UV-I 74 W/m² 4,4 °C 6,2 °C 0,0 km/h (0 Bft)
02.05.2026 06:50 6,3 °C 3,3 °C 10,6 °C 88 % 1024,0 hPa 0,0 l/m² 0,0 km/h (0 Bft) S-SW 208 ° 0 min 0,0 UV-I 76 W/m² 4,5 °C 6,3 °C 0,0 km/h (0 Bft)
02.05.2026 06:52 6,4 °C 3,3 °C 10,6 °C 88 % 1023,9 hPa 0,0 l/m² 0,0 km/h (0 Bft) S-SW 208 ° 0 min 0,0 UV-I 76 W/m² 4,6 °C 6,4 °C 0,0 km/h (0 Bft)
02.05.2026 06:54 6,6 °C 3,3 °C 10,6 °C 88 % 1023,9 hPa 0,0 l/m² 0,0 km/h (0 Bft) S-SW 208 ° 0 min 0,0 UV-I 76 W/m² 4,8 °C 6,6 °C 0,0 km/h (0 Bft)
02.05.2026 06:56 6,7 °C 3,9 °C 10,6 °C 88 % 1024,0 hPa 0,0 l/m² 0,0 km/h (0 Bft) S-SW 208 ° 0 min 0,0 UV-I 77 W/m² 4,9 °C 6,7 °C 0,0 km/h (0 Bft)
02.05.2026 06:58 6,8 °C 3,9 °C 10,6 °C 88 % 1024,0 hPa 0,0 l/m² 0,9 km/h (0 Bft) S 175 ° 0 min 0,0 UV-I 77 W/m² 5,0 °C 6,8 °C 3,2 km/h (1 Bft)
02.05.2026 07:00 6,9 °C 3,9 °C 10,6 °C 88 % 1024,0 hPa 0,0 l/m² 1,3 km/h (1 Bft) S 176 ° 0 min 0,0 UV-I 79 W/m² 5,1 °C 6,9 °C 4,8 km/h (1 Bft)
02.05.2026 07:02 7,1 °C 4,4 °C 10,6 °C 88 % 1023,9 hPa 0,0 l/m² 1,4 km/h (1 Bft) S 179 ° 0 min 0,0 UV-I 81 W/m² 5,2 °C 7,1 °C 3,2 km/h (1 Bft)
02.05.2026 07:04 7,4 °C 4,4 °C 10,6 °C 88 % 1024,0 hPa 0,0 l/m² 1,2 km/h (1 Bft) S 179 ° 0 min 0,0 UV-I 79 W/m² 5,5 °C 7,4 °C 3,2 km/h (1 Bft)
02.05.2026 07:06 7,6 °C 4,4 °C 10,6 °C 88 % 1024,0 hPa 0,0 l/m² 1,2 km/h (1 Bft) S 180 ° 0 min 0,0 UV-I 95 W/m² 5,7 °C 7,6 °C 3,2 km/h (1 Bft)
02.05.2026 07:08 7,7 °C 4,4 °C 10,6 °C 88 % 1024,0 hPa 0,0 l/m² 1,1 km/h (1 Bft) S 179 ° 0 min 0,0 UV-I 109 W/m² 5,8 °C 7,7 °C 3,2 km/h (1 Bft)
02.05.2026 07:10 7,9 °C 5,0 °C 10,6 °C 88 % 1024,0 hPa 0,0 l/m² 1,1 km/h (1 Bft) S 181 ° 0 min 0,0 UV-I 81 W/m² 6,0 °C 7,9 °C 3,2 km/h (1 Bft)
02.05.2026 07:12 8,0 °C 5,0 °C 10,6 °C 88 % 1024,0 hPa 0,0 l/m² 0,4 km/h (0 Bft) S 181 ° 0 min 0,5 UV-I 81 W/m² 6,1 °C 8,0 °C 1,6 km/h (1 Bft)
02.05.2026 07:14 8,1 °C 5,0 °C 10,6 °C 87 % 1023,9 hPa 0,0 l/m² 0,6 km/h (0 Bft) S 181 ° 0 min 0,5 UV-I 86 W/m² 6,1 °C 8,1 °C 1,6 km/h (1 Bft)
02.05.2026 07:16 8,3 °C 5,6 °C 10,6 °C 87 % 1023,9 hPa 0,0 l/m² 0,2 km/h (0 Bft) S 181 ° 0 min 0,5 UV-I 84 W/m² 6,3 °C 8,3 °C 1,6 km/h (1 Bft)
02.05.2026 07:18 8,5 °C 6,1 °C 10,6 °C 87 % 1024,0 hPa 0,0 l/m² 0,7 km/h (0 Bft) S 182 ° 0 min 0,5 UV-I 84 W/m² 6,5 °C 8,5 °C 3,2 km/h (1 Bft)
02.05.2026 07:20 8,8 °C 7,2 °C 10,6 °C 87 % 1024,0 hPa 0,0 l/m² 1,3 km/h (1 Bft) S 182 ° 0 min 0,5 UV-I 88 W/m² 6,8 °C 8,8 °C 3,2 km/h (1 Bft)
02.05.2026 07:22 8,9 °C 7,8 °C 10,6 °C 86 % 1023,9 hPa 0,0 l/m² 1,9 km/h (1 Bft) S 183 ° 0 min 0,5 UV-I 90 W/m² 6,7 °C 8,9 °C 3,2 km/h (1 Bft)
02.05.2026 07:24 9,1 °C 8,3 °C 10,6 °C 86 % 1023,9 hPa 0,0 l/m² 1,8 km/h (1 Bft) S 183 ° 0 min 0,5 UV-I 91 W/m² 6,9 °C 9,1 °C 4,8 km/h (1 Bft)
02.05.2026 07:26 9,2 °C 8,3 °C 10,6 °C 85 % 1023,9 hPa 0,0 l/m² 1,5 km/h (1 Bft) S-SW 193 ° 0 min 0,5 UV-I 105 W/m² 6,8 °C 9,2 °C 4,8 km/h (1 Bft)
02.05.2026 07:28 9,3 °C 8,3 °C 10,6 °C 86 % 1023,9 hPa 0,0 l/m² 1,5 km/h (1 Bft) S-SW 192 ° 0 min 0,5 UV-I 90 W/m² 7,1 °C 9,3 °C 3,2 km/h (1 Bft)
02.05.2026 07:30 9,4 °C 7,8 °C 10,6 °C 85 % 1023,9 hPa 0,0 l/m² 1,1 km/h (1 Bft) S 190 ° 0 min 0,5 UV-I 86 W/m² 7,0 °C 9,4 °C 3,2 km/h (1 Bft)
02.05.2026 07:32 9,6 °C 7,2 °C 10,6 °C 85 % 1023,9 hPa 0,0 l/m² 0,5 km/h (0 Bft) S 190 ° 0 min 0,5 UV-I 86 W/m² 7,2 °C 9,6 °C 3,2 km/h (1 Bft)
02.05.2026 07:34 9,8 °C 7,2 °C 10,0 °C 84 % 1023,9 hPa 0,0 l/m² 0,8 km/h (0 Bft) S 190 ° 0 min 0,5 UV-I 84 W/m² 7,2 °C 9,8 °C 3,2 km/h (1 Bft)
02.05.2026 07:36 9,9 °C 7,2 °C 10,6 °C 83 % 1023,9 hPa 0,0 l/m² 1,8 km/h (1 Bft) S 189 ° 0 min 0,5 UV-I 86 W/m² 7,2 °C 9,9 °C 3,2 km/h (1 Bft)
02.05.2026 07:38 10,1 °C 7,2 °C 10,0 °C 83 % 1023,9 hPa 0,0 l/m² 2,5 km/h (1 Bft) S-SW 196 ° 0 min 0,5 UV-I 84 W/m² 7,3 °C 10,1 °C 4,8 km/h (1 Bft)
02.05.2026 07:40 10,3 °C 7,2 °C 10,6 °C 82 % 1023,9 hPa 0,0 l/m² 3,1 km/h (1 Bft) S-SW 206 ° 0 min 0,5 UV-I 84 W/m² 7,4 °C 10,3 °C 4,8 km/h (1 Bft)
02.05.2026 07:42 10,4 °C 7,8 °C 10,6 °C 81 % 1023,9 hPa 0,0 l/m² 2,8 km/h (1 Bft) S-SW 197 ° 0 min 0,6 UV-I 84 W/m² 7,3 °C 10,4 °C 8,0 km/h (2 Bft)
02.05.2026 07:44 10,7 °C 7,8 °C 10,6 °C 80 % 1023,9 hPa 0,0 l/m² 3,6 km/h (1 Bft) S-SW 196 ° 0 min 0,6 UV-I 84 W/m² 7,4 °C 10,7 °C 8,0 km/h (2 Bft)
02.05.2026 07:46 10,8 °C 7,8 °C 10,6 °C 80 % 1023,9 hPa 0,0 l/m² 2,8 km/h (1 Bft) S-SW 193 ° 0 min 0,6 UV-I 84 W/m² 7,5 °C 10,8 °C 4,8 km/h (1 Bft)
02.05.2026 07:48 10,9 °C 7,8 °C 10,6 °C 79 % 1023,8 hPa 0,0 l/m² 3,0 km/h (1 Bft) S-SW 193 ° 0 min 0,6 UV-I 86 W/m² 7,4 °C 10,9 °C 4,8 km/h (1 Bft)
02.05.2026 07:50 11,1 °C 7,8 °C 10,6 °C 78 % 1023,9 hPa 0,0 l/m² 4,5 km/h (1 Bft) S 183 ° 0 min 0,6 UV-I 86 W/m² 7,4 °C 11,1 °C 8,0 km/h (2 Bft)
02.05.2026 07:52 11,2 °C 8,3 °C 10,6 °C 78 % 1023,8 hPa 0,0 l/m² 4,9 km/h (1 Bft) S-SW 197 ° 0 min 0,6 UV-I 90 W/m² 7,5 °C 11,2 °C 11,3 km/h (2 Bft)
02.05.2026 07:54 11,3 °C 8,3 °C 10,6 °C 76 % 1023,8 hPa 0,0 l/m² 4,9 km/h (1 Bft) S-SW 196 ° 0 min 0,6 UV-I 90 W/m² 7,2 °C 11,3 °C 8,0 km/h (2 Bft)
02.05.2026 07:56 11,5 °C 8,9 °C 10,6 °C 76 % 1023,8 hPa 0,0 l/m² 4,0 km/h (1 Bft) S-SW 199 ° 0 min 0,6 UV-I 90 W/m² 7,4 °C 11,5 °C 8,0 km/h (2 Bft)
02.05.2026 07:58 11,7 °C 8,9 °C 10,6 °C 75 % 1023,8 hPa 0,0 l/m² 3,4 km/h (1 Bft) S-SW 202 ° 0 min 0,6 UV-I 90 W/m² 7,4 °C 11,7 °C 6,4 km/h (2 Bft)
02.05.2026 08:00 11,8 °C 8,9 °C 10,6 °C 74 % 1023,8 hPa 0,0 l/m² 2,7 km/h (1 Bft) S-SW 202 ° 0 min 0,6 UV-I 146 W/m² 7,3 °C 11,8 °C 6,4 km/h (2 Bft)
02.05.2026 08:02 11,9 °C 8,9 °C 10,6 °C 74 % 1023,8 hPa 0,0 l/m² 4,1 km/h (1 Bft) S 186 ° 2 min 0,7 UV-I 336 W/m² 7,4 °C 11,9 °C 9,7 km/h (2 Bft)
02.05.2026 08:04 12,1 °C 8,9 °C 10,0 °C 74 % 1023,8 hPa 0,0 l/m² 2,4 km/h (1 Bft) S-SW 206 ° 2 min 0,8 UV-I 343 W/m² 7,6 °C 12,1 °C 4,8 km/h (1 Bft)
02.05.2026 08:06 12,3 °C 9,4 °C 10,6 °C 73 % 1023,7 hPa 0,0 l/m² 2,5 km/h (1 Bft) S-SW 204 ° 2 min 0,8 UV-I 346 W/m² 7,6 °C 12,3 °C 6,4 km/h (2 Bft)
02.05.2026 08:08 12,4 °C 9,4 °C 10,6 °C 73 % 1023,8 hPa 0,0 l/m² 1,8 km/h (1 Bft) S-SW 204 ° 2 min 0,8 UV-I 355 W/m² 7,7 °C 12,4 °C 6,4 km/h (2 Bft)
02.05.2026 08:10 12,6 °C 9,4 °C 10,0 °C 72 % 1023,8 hPa 0,0 l/m² 4,3 km/h (1 Bft) S 179 ° 2 min 0,8 UV-I 362 W/m² 7,7 °C 12,6 °C 8,0 km/h (2 Bft)
02.05.2026 08:12 12,7 °C 9,4 °C 10,6 °C 72 % 1023,8 hPa 0,0 l/m² 2,5 km/h (1 Bft) S-SW 196 ° 2 min 0,8 UV-I 366 W/m² 7,8 °C 12,7 °C 6,4 km/h (2 Bft)
02.05.2026 08:14 12,8 °C 9,4 °C 10,0 °C 71 % 1023,7 hPa 0,0 l/m² 3,6 km/h (1 Bft) S-SW 200 ° 2 min 0,8 UV-I 378 W/m² 7,7 °C 12,8 °C 8,0 km/h (2 Bft)
02.05.2026 08:16 12,9 °C 9,4 °C 10,0 °C 71 % 1023,7 hPa 0,0 l/m² 4,1 km/h (1 Bft) S 179 ° 2 min 0,9 UV-I 381 W/m² 7,8 °C 12,9 °C 6,4 km/h (2 Bft)
02.05.2026 08:18 13,1 °C 9,4 °C 10,0 °C 70 % 1023,7 hPa 0,0 l/m² 2,1 km/h (1 Bft) S 186 ° 2 min 0,9 UV-I 390 W/m² 7,8 °C 13,1 °C 6,4 km/h (2 Bft)
02.05.2026 08:20 13,3 °C 10,0 °C 10,6 °C 69 % 1023,7 hPa 0,0 l/m² 3,8 km/h (1 Bft) S-SW 196 ° 2 min 0,9 UV-I 399 W/m² 7,7 °C 13,3 °C 8,0 km/h (2 Bft)
02.05.2026 08:22 13,4 °C 10,0 °C 10,6 °C 70 % 1023,7 hPa 0,0 l/m² 2,3 km/h (1 Bft) S-SW 193 ° 2 min 0,9 UV-I 404 W/m² 8,0 °C 13,4 °C 6,4 km/h (2 Bft)
02.05.2026 08:24 13,5 °C 10,6 °C 10,0 °C 69 % 1023,7 hPa 0,0 l/m² 2,1 km/h (1 Bft) S-SW 193 ° 2 min 0,9 UV-I 411 W/m² 7,9 °C 13,5 °C 3,2 km/h (1 Bft)
02.05.2026 08:26 13,7 °C 11,1 °C 10,6 °C 69 % 1023,7 hPa 0,0 l/m² 2,5 km/h (1 Bft) S-SW 206 ° 2 min 0,9 UV-I 418 W/m² 8,1 °C 13,7 °C 6,4 km/h (2 Bft)
02.05.2026 08:28 13,9 °C 11,1 °C 10,6 °C 67 % 1023,7 hPa 0,0 l/m² 2,8 km/h (1 Bft) S-SW 204 ° 2 min 1,0 UV-I 425 W/m² 7,9 °C 13,9 °C 4,8 km/h (1 Bft)
02.05.2026 08:30 14,1 °C 11,7 °C 10,6 °C 67 % 1023,7 hPa 0,0 l/m² 1,9 km/h (1 Bft) S 191 ° 2 min 1,0 UV-I 431 W/m² 8,1 °C 14,1 °C 6,4 km/h (2 Bft)
02.05.2026 08:32 14,3 °C 11,7 °C 10,0 °C 67 % 1023,7 hPa 0,0 l/m² 1,4 km/h (1 Bft) S 190 ° 2 min 1,0 UV-I 438 W/m² 8,3 °C 14,3 °C 3,2 km/h (1 Bft)
02.05.2026 08:34 14,5 °C 11,7 °C 10,6 °C 67 % 1023,7 hPa 0,0 l/m² 3,4 km/h (1 Bft) S-SW 201 ° 2 min 1,0 UV-I 441 W/m² 8,4 °C 14,5 °C 6,4 km/h (2 Bft)
02.05.2026 08:36 14,6 °C 11,7 °C 10,6 °C 65 % 1023,7 hPa 0,0 l/m² 2,2 km/h (1 Bft) S-SW 207 ° 2 min 1,0 UV-I 450 W/m² 8,1 °C 14,6 °C 4,8 km/h (1 Bft)
02.05.2026 08:38 14,9 °C 12,2 °C 10,6 °C 65 % 1023,7 hPa 0,0 l/m² 3,9 km/h (1 Bft) W-SW 250 ° 2 min 1,1 UV-I 457 W/m² 8,4 °C 14,9 °C 8,0 km/h (2 Bft)
02.05.2026 08:40 15,1 °C 12,2 °C 10,6 °C 64 % 1023,7 hPa 0,0 l/m² 2,4 km/h (1 Bft) W-SW 250 ° 2 min 1,1 UV-I 462 W/m² 8,3 °C 15,1 °C 6,4 km/h (2 Bft)
02.05.2026 08:42 15,3 °C 12,8 °C 10,6 °C 63 % 1023,7 hPa 0,0 l/m² 4,2 km/h (1 Bft) SW 223 ° 2 min 1,1 UV-I 468 W/m² 8,3 °C 15,3 °C 8,0 km/h (2 Bft)
02.05.2026 08:44 15,5 °C 12,8 °C 10,6 °C 63 % 1023,6 hPa 0,0 l/m² 2,7 km/h (1 Bft) S-SW 204 ° 2 min 1,1 UV-I 475 W/m² 8,5 °C 15,5 °C 6,4 km/h (2 Bft)
02.05.2026 08:46 15,7 °C 13,3 °C 10,6 °C 62 % 1023,5 hPa 0,0 l/m² 3,2 km/h (1 Bft) W-SW 243 ° 2 min 1,2 UV-I 482 W/m² 8,4 °C 15,7 °C 8,0 km/h (2 Bft)
02.05.2026 08:48 15,9 °C 13,3 °C 10,6 °C 60 % 1023,6 hPa 0,0 l/m² 3,5 km/h (1 Bft) S-SW 199 ° 2 min 1,2 UV-I 485 W/m² 8,1 °C 15,9 °C 8,0 km/h (2 Bft)
02.05.2026 08:50 15,9 °C 13,3 °C 10,0 °C 59 % 1023,5 hPa 0,0 l/m² 5,4 km/h (2 Bft) S-SW 202 ° 2 min 1,2 UV-I 492 W/m² 7,9 °C 15,9 °C 9,7 km/h (2 Bft)
02.05.2026 08:52 16,1 °C 13,3 °C 10,6 °C 59 % 1023,5 hPa 0,0 l/m² 4,7 km/h (1 Bft) W-SW 253 ° 2 min 1,2 UV-I 497 W/m² 8,1 °C 16,1 °C 6,4 km/h (2 Bft)
02.05.2026 08:54 16,2 °C 13,9 °C 10,6 °C 59 % 1023,5 hPa 0,0 l/m² 2,9 km/h (1 Bft) W-SW 253 ° 2 min 1,3 UV-I 503 W/m² 8,2 °C 16,2 °C 4,8 km/h (1 Bft)
02.05.2026 08:56 16,3 °C 13,9 °C 10,0 °C 57 % 1023,4 hPa 0,0 l/m² 6,6 km/h (2 Bft) SW 234 ° 2 min 1,3 UV-I 504 W/m² 7,8 °C 16,3 °C 11,3 km/h (2 Bft)
02.05.2026 08:58 16,4 °C 13,9 °C 10,6 °C 57 % 1023,4 hPa 0,0 l/m² 6,1 km/h (2 Bft) SW 236 ° 2 min 1,3 UV-I 512 W/m² 7,9 °C 16,4 °C 9,7 km/h (2 Bft)
02.05.2026 09:00 16,6 °C 14,4 °C 10,0 °C 56 % 1023,4 hPa 0,0 l/m² 6,7 km/h (2 Bft) S-SW 206 ° 2 min 1,3 UV-I 519 W/m² 7,8 °C 16,6 °C 9,7 km/h (2 Bft)
02.05.2026 09:02 16,8 °C 14,4 °C 10,6 °C 57 % 1023,4 hPa 0,0 l/m² 4,0 km/h (1 Bft) SW 230 ° 2 min 1,3 UV-I 526 W/m² 8,2 °C 16,8 °C 6,4 km/h (2 Bft)
02.05.2026 09:04 17,0 °C 15,0 °C 10,6 °C 56 % 1023,4 hPa 0,0 l/m² 6,3 km/h (2 Bft) SW 231 ° 2 min 1,4 UV-I 527 W/m² 8,2 °C 17,0 °C 16,1 km/h (3 Bft)
02.05.2026 09:06 17,2 °C 15,0 °C 10,6 °C 54 % 1023,5 hPa 0,0 l/m² 3,8 km/h (1 Bft) SW 229 ° 2 min 1,4 UV-I 526 W/m² 7,8 °C 17,2 °C 6,4 km/h (2 Bft)
02.05.2026 09:08 17,3 °C 15,0 °C 10,6 °C 54 % 1023,4 hPa 0,0 l/m² 5,7 km/h (2 Bft) SW 223 ° 2 min 1,4 UV-I 513 W/m² 7,9 °C 17,3 °C 11,3 km/h (2 Bft)
02.05.2026 09:10 17,3 °C 15,0 °C 10,6 °C 53 % 1023,4 hPa 0,0 l/m² 9,4 km/h (2 Bft) W 260 ° 2 min 1,4 UV-I 517 W/m² 7,6 °C 17,3 °C 14,5 km/h (3 Bft)
02.05.2026 09:12 17,4 °C 15,0 °C 10,6 °C 54 % 1023,4 hPa 0,0 l/m² 6,3 km/h (2 Bft) S-SW 208 ° 2 min 1,5 UV-I 519 W/m² 8,0 °C 17,4 °C 14,5 km/h (3 Bft)
02.05.2026 09:14 17,5 °C 15,0 °C 10,6 °C 53 % 1023,4 hPa 0,0 l/m² 6,6 km/h (2 Bft) W-SW 244 ° 2 min 1,5 UV-I 527 W/m² 7,8 °C 17,5 °C 12,9 km/h (3 Bft)
02.05.2026 09:16 17,6 °C 15,6 °C 10,6 °C 53 % 1023,3 hPa 0,0 l/m² 7,0 km/h (2 Bft) SW 226 ° 2 min 1,5 UV-I 533 W/m² 7,9 °C 17,6 °C 11,3 km/h (2 Bft)
02.05.2026 09:18 17,8 °C 15,6 °C 10,6 °C 52 % 1023,3 hPa 0,0 l/m² 6,8 km/h (2 Bft) S-SW 202 ° 2 min 1,5 UV-I 536 W/m² 7,8 °C 17,8 °C 12,9 km/h (3 Bft)
02.05.2026 09:20 17,9 °C 15,6 °C 10,6 °C 53 % 1023,4 hPa 0,0 l/m² 5,4 km/h (2 Bft) S-SW 202 ° 2 min 1,6 UV-I 541 W/m² 8,2 °C 17,9 °C 9,7 km/h (2 Bft)
02.05.2026 09:22 18,1 °C 16,1 °C 10,6 °C 51 % 1023,3 hPa 0,0 l/m² 5,1 km/h (1 Bft) W-SW 244 ° 2 min 1,6 UV-I 545 W/m² 7,8 °C 18,1 °C 9,7 km/h (2 Bft)
02.05.2026 09:24 18,2 °C 16,1 °C 10,6 °C 51 % 1023,3 hPa 0,0 l/m² 5,5 km/h (2 Bft) W-SW 258 ° 2 min 1,6 UV-I 554 W/m² 7,9 °C 18,2 °C 9,7 km/h (2 Bft)
02.05.2026 09:26 18,4 °C 16,1 °C 10,6 °C 49 % 1023,3 hPa 0,0 l/m² 8,2 km/h (2 Bft) W-SW 241 ° 2 min 1,6 UV-I 555 W/m² 7,5 °C 18,4 °C 14,5 km/h (3 Bft)
02.05.2026 09:28 18,5 °C 16,1 °C 10,6 °C 49 % 1023,3 hPa 0,0 l/m² 10,5 km/h (2 Bft) W 261 ° 2 min 1,7 UV-I 557 W/m² 7,6 °C 18,5 °C 14,5 km/h (3 Bft)
02.05.2026 09:30 18,6 °C 16,7 °C 10,6 °C 50 % 1023,3 hPa 0,0 l/m² 8,2 km/h (2 Bft) S-SW 200 ° 2 min 1,7 UV-I 563 W/m² 8,0 °C 18,6 °C 19,3 km/h (3 Bft)
02.05.2026 09:32 18,7 °C 16,7 °C 10,6 °C 50 % 1023,2 hPa 0,0 l/m² 8,2 km/h (2 Bft) W 263 ° 2 min 1,7 UV-I 566 W/m² 8,1 °C 18,7 °C 11,3 km/h (2 Bft)
02.05.2026 09:34 18,8 °C 16,7 °C 10,6 °C 51 % 1023,2 hPa 0,0 l/m² 6,7 km/h (2 Bft) W 271 ° 2 min 1,8 UV-I 570 W/m² 8,4 °C 18,8 °C 9,7 km/h (2 Bft)
02.05.2026 09:36 19,1 °C 16,7 °C 10,6 °C 51 % 1023,2 hPa 0,0 l/m² 7,0 km/h (2 Bft) W-SW 248 ° 2 min 1,8 UV-I 575 W/m² 8,7 °C 19,1 °C 11,3 km/h (2 Bft)
02.05.2026 09:38 19,1 °C 16,7 °C 10,6 °C 51 % 1023,2 hPa 0,0 l/m² 8,3 km/h (2 Bft) SW 218 ° 2 min 1,8 UV-I 577 W/m² 8,7 °C 19,1 °C 16,1 km/h (3 Bft)
02.05.2026 09:40 19,2 °C 17,2 °C 10,6 °C 51 % 1023,1 hPa 0,0 l/m² 6,8 km/h (2 Bft) S-SW 213 ° 2 min 1,9 UV-I 582 W/m² 8,8 °C 19,2 °C 12,9 km/h (3 Bft)
02.05.2026 09:42 19,3 °C 17,2 °C 10,6 °C 51 % 1023,2 hPa 0,0 l/m² 8,3 km/h (2 Bft) W-SW 244 ° 2 min 1,9 UV-I 589 W/m² 8,9 °C 19,3 °C 16,1 km/h (3 Bft)
02.05.2026 09:44 19,3 °C 17,2 °C 10,6 °C 50 % 1023,1 hPa 0,0 l/m² 7,0 km/h (2 Bft) W-SW 252 ° 2 min 1,9 UV-I 592 W/m² 8,6 °C 19,3 °C 14,5 km/h (3 Bft)
02.05.2026 09:46 19,2 °C 17,8 °C 10,6 °C 51 % 1023,1 hPa 0,0 l/m² 9,6 km/h (2 Bft) W-SW 241 ° 2 min 1,9 UV-I 596 W/m² 8,8 °C 19,2 °C 14,5 km/h (3 Bft)
02.05.2026 09:48 19,3 °C 17,8 °C 10,6 °C 51 % 1023,1 hPa 0,0 l/m² 9,4 km/h (2 Bft) S-SW 207 ° 2 min 2,0 UV-I 601 W/m² 8,9 °C 19,3 °C 16,1 km/h (3 Bft)
02.05.2026 09:50 19,4 °C 17,8 °C 10,6 °C 51 % 1023,1 hPa 0,0 l/m² 6,6 km/h (2 Bft) W-SW 254 ° 2 min 2,0 UV-I 605 W/m² 9,0 °C 19,4 °C 12,9 km/h (3 Bft)
02.05.2026 09:52 19,7 °C 18,3 °C 10,6 °C 53 % 1023,1 hPa 0,0 l/m² 6,5 km/h (2 Bft) S-SW 193 ° 2 min 2,0 UV-I 608 W/m² 9,8 °C 19,7 °C 12,9 km/h (3 Bft)
02.05.2026 09:54 19,8 °C 18,9 °C 10,6 °C 51 % 1023,1 hPa 0,0 l/m² 8,5 km/h (2 Bft) S-SW 200 ° 2 min 2,1 UV-I 615 W/m² 9,4 °C 19,8 °C 12,9 km/h (3 Bft)
02.05.2026 09:56 19,9 °C 19,4 °C 10,6 °C 52 % 1023,0 hPa 0,0 l/m² 4,1 km/h (1 Bft) SW 226 ° 2 min 2,1 UV-I 619 W/m² 9,7 °C 19,9 °C 8,0 km/h (2 Bft)
02.05.2026 09:58 19,9 °C 20,6 °C 10,6 °C 50 % 1023,0 hPa 0,0 l/m² 9,4 km/h (2 Bft) S-SW 198 ° 2 min 2,1 UV-I 626 W/m² 9,2 °C 19,9 °C 16,1 km/h (3 Bft)
02.05.2026 10:00 20,0 °C 20,6 °C 10,6 °C 52 % 1023,0 hPa 0,0 l/m² 5,5 km/h (2 Bft) W-SW 252 ° 2 min 2,1 UV-I 631 W/m² 9,8 °C 20,0 °C 11,3 km/h (2 Bft)
02.05.2026 10:02 20,2 °C 21,7 °C 10,6 °C 50 % 1023,0 hPa 0,0 l/m² 9,1 km/h (2 Bft) W-NW 283 ° 2 min 2,2 UV-I 635 W/m² 9,4 °C 20,2 °C 14,5 km/h (3 Bft)
02.05.2026 10:04 20,3 °C 22,8 °C 10,6 °C 51 % 1023,0 hPa 0,0 l/m² 5,9 km/h (2 Bft) W-SW 254 ° 2 min 2,2 UV-I 638 W/m² 9,8 °C 20,3 °C 11,3 km/h (2 Bft)
02.05.2026 10:06 20,3 °C 23,3 °C 10,6 °C 49 % 1023,0 hPa 0,0 l/m² 7,8 km/h (2 Bft) W-SW 254 ° 2 min 2,2 UV-I 645 W/m² 9,2 °C 20,3 °C 12,9 km/h (3 Bft)
02.05.2026 10:08 20,4 °C 23,3 °C 10,6 °C 50 % 1023,0 hPa 0,0 l/m² 7,8 km/h (2 Bft) W 269 ° 2 min 2,3 UV-I 645 W/m² 9,6 °C 20,4 °C 14,5 km/h (3 Bft)
02.05.2026 10:10 20,4 °C 22,2 °C 10,6 °C 49 % 1023,0 hPa 0,0 l/m² 10,0 km/h (2 Bft) W-SW 240 ° 2 min 2,3 UV-I 650 W/m² 9,3 °C 20,4 °C 12,9 km/h (3 Bft)
02.05.2026 10:12 20,4 °C 21,7 °C 10,6 °C 50 % 1022,9 hPa 0,0 l/m² 5,9 km/h (2 Bft) W-SW 238 ° 2 min 2,3 UV-I 649 W/m² 9,6 °C 20,4 °C 12,9 km/h (3 Bft)
02.05.2026 10:14 20,5 °C 21,7 °C 10,6 °C 50 % 1023,0 hPa 0,0 l/m² 4,7 km/h (1 Bft) S-SW 197 ° 2 min 2,4 UV-I 650 W/m² 9,7 °C 20,5 °C 11,3 km/h (2 Bft)
02.05.2026 10:16 20,7 °C 21,7 °C 10,6 °C 50 % 1022,9 hPa 0,0 l/m² 7,0 km/h (2 Bft) W 271 ° 2 min 2,4 UV-I 652 W/m² 9,9 °C 20,7 °C 14,5 km/h (3 Bft)
02.05.2026 10:18 20,7 °C 21,1 °C 10,6 °C 49 % 1022,9 hPa 0,0 l/m² 9,1 km/h (2 Bft) SW 222 ° 2 min 2,4 UV-I 654 W/m² 9,6 °C 20,7 °C 16,1 km/h (3 Bft)
02.05.2026 10:20 20,8 °C 20,6 °C 10,6 °C 51 % 1022,9 hPa 0,0 l/m² 9,2 km/h (2 Bft) W 267 ° 2 min 2,4 UV-I 656 W/m² 10,3 °C 20,8 °C 14,5 km/h (3 Bft)
02.05.2026 10:22 20,9 °C 20,6 °C 10,6 °C 49 % 1022,9 hPa 0,0 l/m² 11,1 km/h (2 Bft) W-SW 240 ° 2 min 2,5 UV-I 657 W/m² 9,8 °C 20,9 °C 17,7 km/h (3 Bft)
02.05.2026 10:24 20,9 °C 20,6 °C 10,6 °C 49 % 1022,9 hPa 0,0 l/m² 9,2 km/h (2 Bft) W-SW 246 ° 2 min 2,5 UV-I 661 W/m² 9,8 °C 20,9 °C 14,5 km/h (3 Bft)
02.05.2026 10:26 20,9 °C 20,6 °C 10,6 °C 48 % 1022,9 hPa 0,0 l/m² 11,3 km/h (2 Bft) SW 235 ° 2 min 2,6 UV-I 666 W/m² 9,5 °C 20,9 °C 16,1 km/h (3 Bft)
02.05.2026 10:28 20,9 °C 20,6 °C 10,6 °C 49 % 1022,8 hPa 0,0 l/m² 9,6 km/h (2 Bft) NW 308 ° 2 min 2,6 UV-I 670 W/m² 9,8 °C 20,9 °C 14,5 km/h (3 Bft)
02.05.2026 10:30 21,0 °C 20,6 °C 10,6 °C 49 % 1022,8 hPa 0,0 l/m² 9,7 km/h (2 Bft) W-SW 258 ° 2 min 2,6 UV-I 675 W/m² 9,9 °C 21,0 °C 16,1 km/h (3 Bft)
02.05.2026 10:32 21,1 °C 20,6 °C 10,6 °C 49 % 1022,8 hPa 0,0 l/m² 7,2 km/h (2 Bft) W 265 ° 2 min 2,7 UV-I 679 W/m² 10,0 °C 21,1 °C 11,3 km/h (2 Bft)
02.05.2026 10:34 21,4 °C 20,6 °C 10,6 °C 49 % 1022,8 hPa 0,0 l/m² 5,2 km/h (1 Bft) S-SW 208 ° 2 min 2,7 UV-I 680 W/m² 10,2 °C 21,4 °C 11,3 km/h (2 Bft)
02.05.2026 10:36 21,4 °C 20,6 °C 10,6 °C 48 % 1022,7 hPa 0,0 l/m² 7,6 km/h (2 Bft) W-SW 254 ° 2 min 2,7 UV-I 686 W/m² 9,9 °C 21,4 °C 12,9 km/h (3 Bft)
02.05.2026 10:38 21,5 °C 20,6 °C 10,6 °C 49 % 1022,8 hPa 0,0 l/m² 8,3 km/h (2 Bft) SW 225 ° 2 min 2,7 UV-I 689 W/m² 10,3 °C 21,5 °C 12,9 km/h (3 Bft)
02.05.2026 10:40 21,5 °C 20,6 °C 10,6 °C 48 % 1022,7 hPa 0,0 l/m² 7,4 km/h (2 Bft) SW 223 ° 2 min 2,7 UV-I 691 W/m² 10,0 °C 21,5 °C 14,5 km/h (3 Bft)
02.05.2026 10:42 21,6 °C 20,6 °C 10,6 °C 48 % 1022,7 hPa 0,0 l/m² 7,2 km/h (2 Bft) SW 226 ° 2 min 2,8 UV-I 696 W/m² 10,1 °C 21,6 °C 12,9 km/h (3 Bft)
02.05.2026 10:44 21,7 °C 21,1 °C 10,6 °C 47 % 1022,7 hPa 0,0 l/m² 8,3 km/h (2 Bft) W-SW 249 ° 2 min 2,8 UV-I 700 W/m² 9,9 °C 21,7 °C 14,5 km/h (3 Bft)
02.05.2026 10:46 21,8 °C 21,1 °C 10,6 °C 47 % 1022,7 hPa 0,0 l/m² 8,4 km/h (2 Bft) W 259 ° 2 min 2,8 UV-I 707 W/m² 10,0 °C 21,8 °C 14,5 km/h (3 Bft)
02.05.2026 10:48 21,7 °C 21,1 °C 10,6 °C 46 % 1022,6 hPa 0,0 l/m² 11,1 km/h (2 Bft) W 273 ° 2 min 2,9 UV-I 708 W/m² 9,6 °C 21,7 °C 17,7 km/h (3 Bft)
02.05.2026 10:50 21,6 °C 21,1 °C 10,6 °C 46 % 1022,6 hPa 0,0 l/m² 9,9 km/h (2 Bft) W-SW 253 ° 2 min 2,9 UV-I 708 W/m² 9,5 °C 21,6 °C 16,1 km/h (3 Bft)
02.05.2026 10:52 21,7 °C 21,1 °C 10,6 °C 48 % 1022,6 hPa 0,0 l/m² 8,9 km/h (2 Bft) W-NW 296 ° 2 min 2,9 UV-I 715 W/m² 10,2 °C 21,7 °C 16,1 km/h (3 Bft)
02.05.2026 10:54 21,9 °C 21,7 °C 10,6 °C 47 % 1022,6 hPa 0,0 l/m² 9,0 km/h (2 Bft) W 273 ° 2 min 3,0 UV-I 719 W/m² 10,1 °C 21,9 °C 17,7 km/h (3 Bft)
02.05.2026 10:56 21,8 °C 21,7 °C 10,6 °C 47 % 1022,6 hPa 0,0 l/m² 11,4 km/h (2 Bft) SW 233 ° 2 min 3,0 UV-I 724 W/m² 10,0 °C 21,8 °C 16,1 km/h (3 Bft)
02.05.2026 10:58 21,9 °C 21,7 °C 10,6 °C 48 % 1022,6 hPa 0,0 l/m² 8,8 km/h (2 Bft) S-SW 205 ° 2 min 3,0 UV-I 728 W/m² 10,4 °C 21,9 °C 11,3 km/h (2 Bft)
02.05.2026 11:00 22,0 °C 22,2 °C 10,6 °C 47 % 1022,6 hPa 0,0 l/m² 7,0 km/h (2 Bft) S-SW 198 ° 2 min 3,1 UV-I 731 W/m² 10,2 °C 22,0 °C 11,3 km/h (2 Bft)
02.05.2026 11:02 22,2 °C 23,3 °C 10,6 °C 48 % 1022,5 hPa 0,0 l/m² 6,5 km/h (2 Bft) W 265 ° 2 min 3,1 UV-I 733 W/m² 10,7 °C 22,2 °C 12,9 km/h (3 Bft)
02.05.2026 11:04 22,3 °C 25,0 °C 10,6 °C 48 % 1022,5 hPa 0,0 l/m² 7,1 km/h (2 Bft) W 272 ° 2 min 3,1 UV-I 740 W/m² 10,8 °C 22,3 °C 11,3 km/h (2 Bft)
02.05.2026 11:06 22,6 °C 26,7 °C 10,6 °C 48 % 1022,5 hPa 0,0 l/m² 9,1 km/h (2 Bft) W 264 ° 2 min 3,2 UV-I 745 W/m² 11,0 °C 22,6 °C 12,9 km/h (3 Bft)
02.05.2026 11:08 22,6 °C 27,2 °C 10,6 °C 46 % 1022,5 hPa 0,0 l/m² 11,7 km/h (2 Bft) SW 233 ° 2 min 3,2 UV-I 749 W/m² 10,4 °C 22,6 °C 17,7 km/h (3 Bft)
02.05.2026 11:10 22,4 °C 27,2 °C 11,1 °C 46 % 1022,5 hPa 0,0 l/m² 12,9 km/h (3 Bft) W-SW 258 ° 2 min 3,2 UV-I 752 W/m² 10,2 °C 22,4 °C 19,3 km/h (3 Bft)
02.05.2026 11:12 22,2 °C 27,8 °C 11,1 °C 46 % 1022,5 hPa 0,0 l/m² 10,6 km/h (2 Bft) W 271 ° 2 min 3,2 UV-I 752 W/m² 10,0 °C 22,2 °C 16,1 km/h (3 Bft)
02.05.2026 11:14 22,1 °C 28,3 °C 10,6 °C 48 % 1022,4 hPa 0,0 l/m² 8,2 km/h (2 Bft) W 260 ° 2 min 3,2 UV-I 754 W/m² 10,6 °C 22,1 °C 12,9 km/h (3 Bft)
02.05.2026 11:16 22,0 °C 28,3 °C 11,1 °C 47 % 1022,4 hPa 0,0 l/m² 10,9 km/h (2 Bft) W-SW 242 ° 2 min 3,2 UV-I 756 W/m² 10,2 °C 22,0 °C 20,9 km/h (4 Bft)
02.05.2026 11:18 22,1 °C 27,8 °C 11,1 °C 48 % 1022,4 hPa 0,0 l/m² 13,9 km/h (3 Bft) W-SW 252 ° 2 min 3,3 UV-I 761 W/m² 10,6 °C 22,1 °C 22,5 km/h (4 Bft)
02.05.2026 11:20 22,2 °C 27,8 °C 11,1 °C 49 % 1022,4 hPa 0,0 l/m² 11,2 km/h (2 Bft) W-NW 297 ° 2 min 3,2 UV-I 765 W/m² 11,0 °C 22,2 °C 17,7 km/h (3 Bft)
02.05.2026 11:22 22,4 °C 28,3 °C 11,1 °C 47 % 1022,4 hPa 0,0 l/m² 9,8 km/h (2 Bft) W 274 ° 2 min 2,9 UV-I 770 W/m² 10,5 °C 22,4 °C 16,1 km/h (3 Bft)
02.05.2026 11:24 22,4 °C 28,9 °C 11,1 °C 47 % 1022,4 hPa 0,0 l/m² 7,4 km/h (2 Bft) W 267 ° 2 min 3,4 UV-I 770 W/m² 10,5 °C 22,4 °C 11,3 km/h (2 Bft)
02.05.2026 11:26 22,4 °C 29,4 °C 11,1 °C 48 % 1022,3 hPa 0,0 l/m² 7,8 km/h (2 Bft) W 272 ° 2 min 3,4 UV-I 772 W/m² 10,8 °C 22,4 °C 17,7 km/h (3 Bft)
02.05.2026 11:28 22,7 °C 29,4 °C 11,1 °C 48 % 1022,4 hPa 0,0 l/m² 8,9 km/h (2 Bft) W 267 ° 2 min 3,4 UV-I 772 W/m² 11,1 °C 22,7 °C 14,5 km/h (3 Bft)
02.05.2026 11:30 22,8 °C 30,0 °C 11,1 °C 48 % 1022,3 hPa 0,0 l/m² 10,9 km/h (2 Bft) W-SW 239 ° 2 min 3,5 UV-I 782 W/m² 11,2 °C 22,8 °C 17,7 km/h (3 Bft)
02.05.2026 11:32 22,9 °C 29,4 °C 11,1 °C 47 % 1022,2 hPa 0,0 l/m² 8,9 km/h (2 Bft) W-SW 255 ° 2 min 3,4 UV-I 775 W/m² 11,0 °C 22,9 °C 16,1 km/h (3 Bft)
02.05.2026 11:34 22,9 °C 28,9 °C 11,1 °C 46 % 1022,3 hPa 0,0 l/m² 14,8 km/h (3 Bft) W-SW 254 ° 2 min 3,5 UV-I 575 W/m² 10,7 °C 22,9 °C 22,5 km/h (4 Bft)
02.05.2026 11:36 22,7 °C 28,3 °C 11,1 °C 46 % 1022,3 hPa 0,0 l/m² 15,8 km/h (3 Bft) W-SW 237 ° 2 min 3,5 UV-I 780 W/m² 10,5 °C 22,7 °C 25,7 km/h (4 Bft)
02.05.2026 11:38 22,6 °C 27,8 °C 11,1 °C 47 % 1022,2 hPa 0,0 l/m² 10,8 km/h (2 Bft) W-SW 255 ° 2 min 3,6 UV-I 712 W/m² 10,7 °C 22,6 °C 20,9 km/h (4 Bft)
02.05.2026 11:40 22,8 °C 28,3 °C 11,1 °C 47 % 1022,2 hPa 0,0 l/m² 7,5 km/h (2 Bft) W-SW 254 ° 2 min 3,6 UV-I 791 W/m² 10,9 °C 22,8 °C 12,9 km/h (3 Bft)
02.05.2026 11:42 23,0 °C 28,9 °C 11,1 °C 47 % 1022,1 hPa 0,0 l/m² 7,5 km/h (2 Bft) W 260 ° 2 min 3,6 UV-I 784 W/m² 11,1 °C 23,0 °C 12,9 km/h (3 Bft)
02.05.2026 11:44 23,1 °C 28,9 °C 11,1 °C 47 % 1022,1 hPa 0,0 l/m² 9,8 km/h (2 Bft) W-SW 250 ° 2 min 3,6 UV-I 791 W/m² 11,2 °C 23,1 °C 17,7 km/h (3 Bft)
02.05.2026 11:46 22,9 °C 28,9 °C 11,1 °C 48 % 1022,1 hPa 0,0 l/m² 9,8 km/h (2 Bft) W 261 ° 2 min 3,7 UV-I 803 W/m² 11,3 °C 22,9 °C 16,1 km/h (3 Bft)
02.05.2026 11:48 22,9 °C 28,3 °C 11,1 °C 45 % 1022,0 hPa 0,0 l/m² 10,1 km/h (2 Bft) S-SW 213 ° 2 min 3,7 UV-I 807 W/m² 10,3 °C 22,9 °C 17,7 km/h (3 Bft)
02.05.2026 11:50 23,1 °C 28,9 °C 11,1 °C 47 % 1022,0 hPa 0,0 l/m² 5,8 km/h (2 Bft) W 261 ° 2 min 3,7 UV-I 812 W/m² 11,2 °C 23,1 °C 11,3 km/h (2 Bft)
02.05.2026 11:52 23,5 °C 29,4 °C 11,1 °C 46 % 1022,0 hPa 0,0 l/m² 8,0 km/h (2 Bft) S-SW 204 ° 2 min 3,7 UV-I 816 W/m² 11,2 °C 23,5 °C 12,9 km/h (3 Bft)
02.05.2026 11:54 23,4 °C 29,4 °C 11,1 °C 45 % 1022,0 hPa 0,0 l/m² 12,2 km/h (2 Bft) S 173 ° 2 min 3,7 UV-I 821 W/m² 10,8 °C 23,4 °C 24,1 km/h (4 Bft)
02.05.2026 11:56 23,4 °C 28,9 °C 11,1 °C 45 % 1022,0 hPa 0,0 l/m² 9,7 km/h (2 Bft) W 262 ° 2 min 3,8 UV-I 821 W/m² 10,8 °C 23,4 °C 16,1 km/h (3 Bft)
02.05.2026 11:58 23,4 °C 29,4 °C 11,1 °C 45 % 1021,9 hPa 0,0 l/m² 9,6 km/h (2 Bft) S-SW 199 ° 2 min 3,8 UV-I 826 W/m² 10,8 °C 23,4 °C 14,5 km/h (3 Bft)
02.05.2026 12:00 23,6 °C 29,4 °C 11,1 °C 44 % 1021,9 hPa 0,0 l/m² 10,9 km/h (2 Bft) S 188 ° 2 min 3,8 UV-I 828 W/m² 10,6 °C 23,6 °C 16,1 km/h (3 Bft)
02.05.2026 12:02 23,6 °C 29,4 °C 11,1 °C 44 % 1021,9 hPa 0,0 l/m² 8,8 km/h (2 Bft) SW 236 ° 2 min 3,8 UV-I 828 W/m² 10,6 °C 23,6 °C 16,1 km/h (3 Bft)
02.05.2026 12:04 23,7 °C 30,0 °C 11,1 °C 45 % 1021,9 hPa 0,0 l/m² 9,0 km/h (2 Bft) SW 221 ° 2 min 3,8 UV-I 828 W/m² 11,1 °C 23,7 °C 14,5 km/h (3 Bft)
02.05.2026 12:06 23,7 °C 30,0 °C 11,1 °C 44 % 1021,8 hPa 0,0 l/m² 11,6 km/h (2 Bft) W-SW 254 ° 2 min 3,8 UV-I 826 W/m² 10,7 °C 23,7 °C 17,7 km/h (3 Bft)
02.05.2026 12:08 23,6 °C 29,4 °C 11,1 °C 44 % 1021,8 hPa 0,0 l/m² 8,9 km/h (2 Bft) W 269 ° 2 min 3,9 UV-I 830 W/m² 10,6 °C 23,6 °C 17,7 km/h (3 Bft)
02.05.2026 12:10 23,8 °C 30,6 °C 11,7 °C 47 % 1021,8 hPa 0,0 l/m² 4,6 km/h (1 Bft) W 271 ° 2 min 3,9 UV-I 828 W/m² 11,8 °C 23,8 °C 9,7 km/h (2 Bft)
02.05.2026 12:12 24,2 °C 31,1 °C 11,7 °C 44 % 1021,7 hPa 0,0 l/m² 7,3 km/h (2 Bft) W-SW 239 ° 2 min 3,9 UV-I 830 W/m² 11,2 °C 24,2 °C 16,1 km/h (3 Bft)
02.05.2026 12:14 24,2 °C 31,1 °C 11,7 °C 44 % 1021,7 hPa 0,0 l/m² 9,2 km/h (2 Bft) W 270 ° 2 min 3,9 UV-I 830 W/m² 11,2 °C 24,2 °C 19,3 km/h (3 Bft)
02.05.2026 12:16 24,1 °C 31,1 °C 11,7 °C 43 % 1021,7 hPa 0,0 l/m² 11,5 km/h (2 Bft) W-SW 252 ° 2 min 3,9 UV-I 830 W/m² 10,7 °C 24,1 °C 19,3 km/h (3 Bft)
02.05.2026 12:18 24,0 °C 30,6 °C 11,7 °C 43 % 1021,7 hPa 0,0 l/m² 9,5 km/h (2 Bft) SW 231 ° 2 min 3,9 UV-I 831 W/m² 10,6 °C 24,0 °C 16,1 km/h (3 Bft)
02.05.2026 12:20 23,9 °C 30,6 °C 11,7 °C 44 % 1021,7 hPa 0,0 l/m² 10,8 km/h (2 Bft) W-SW 257 ° 2 min 4,0 UV-I 837 W/m² 10,9 °C 23,9 °C 24,1 km/h (4 Bft)
02.05.2026 12:22 23,9 °C 30,6 °C 11,7 °C 43 % 1021,7 hPa 0,0 l/m² 10,0 km/h (2 Bft) SW 234 ° 2 min 4,0 UV-I 835 W/m² 10,5 °C 23,9 °C 22,5 km/h (4 Bft)
02.05.2026 12:24 24,1 °C 30,6 °C 11,7 °C 42 % 1021,6 hPa 0,0 l/m² 10,0 km/h (2 Bft) W-SW 240 ° 2 min 4,0 UV-I 837 W/m² 10,4 °C 24,1 °C 17,7 km/h (3 Bft)
02.05.2026 12:26 23,9 °C 30,6 °C 11,7 °C 41 % 1021,6 hPa 0,0 l/m² 8,0 km/h (2 Bft) W 272 ° 2 min 4,0 UV-I 837 W/m² 9,8 °C 23,9 °C 14,5 km/h (3 Bft)
02.05.2026 12:28 23,9 °C 30,6 °C 11,7 °C 41 % 1021,7 hPa 0,0 l/m² 12,9 km/h (3 Bft) S-SW 203 ° 2 min 4,0 UV-I 838 W/m² 9,8 °C 23,9 °C 20,9 km/h (4 Bft)
02.05.2026 12:30 23,9 °C 30,6 °C 11,7 °C 42 % 1021,7 hPa 0,0 l/m² 12,0 km/h (2 Bft) W-SW 254 ° 2 min 4,0 UV-I 837 W/m² 10,2 °C 23,9 °C 20,9 km/h (4 Bft)
02.05.2026 12:32 23,9 °C 30,6 °C 11,7 °C 41 % 1021,7 hPa 0,0 l/m² 11,8 km/h (2 Bft) W-SW 256 ° 2 min 4,0 UV-I 842 W/m² 9,8 °C 23,9 °C 19,3 km/h (3 Bft)
02.05.2026 12:34 23,9 °C 31,1 °C 11,7 °C 41 % 1021,7 hPa 0,0 l/m² 8,3 km/h (2 Bft) W-NW 302 ° 2 min 4,0 UV-I 842 W/m² 9,8 °C 23,9 °C 12,9 km/h (3 Bft)
02.05.2026 12:36 23,9 °C 31,7 °C 11,7 °C 41 % 1021,6 hPa 0,0 l/m² 6,0 km/h (2 Bft) S-SW 210 ° 2 min 4,1 UV-I 846 W/m² 9,8 °C 23,9 °C 9,7 km/h (2 Bft)
02.05.2026 12:38 24,2 °C 32,2 °C 11,7 °C 41 % 1021,5 hPa 0,0 l/m² 10,7 km/h (2 Bft) W-SW 244 ° 2 min 4,1 UV-I 849 W/m² 10,1 °C 24,2 °C 19,3 km/h (3 Bft)
02.05.2026 12:40 24,2 °C 31,7 °C 11,7 °C 39 % 1021,5 hPa 0,0 l/m² 13,4 km/h (3 Bft) W-SW 252 ° 2 min 4,1 UV-I 853 W/m² 9,4 °C 24,2 °C 24,1 km/h (4 Bft)
02.05.2026 12:42 24,2 °C 31,7 °C 11,7 °C 38 % 1021,5 hPa 0,0 l/m² 9,3 km/h (2 Bft) W 275 ° 2 min 4,1 UV-I 851 W/m² 9,0 °C 24,2 °C 16,1 km/h (3 Bft)
02.05.2026 12:44 24,1 °C 31,7 °C 11,7 °C 40 % 1021,4 hPa 0,0 l/m² 13,3 km/h (3 Bft) SW 214 ° 2 min 4,1 UV-I 853 W/m² 9,6 °C 24,1 °C 19,3 km/h (3 Bft)
02.05.2026 12:46 24,2 °C 31,7 °C 11,7 °C 41 % 1021,4 hPa 0,0 l/m² 10,4 km/h (2 Bft) W-SW 244 ° 2 min 4,1 UV-I 849 W/m² 10,1 °C 24,2 °C 17,7 km/h (3 Bft)
02.05.2026 12:48 24,2 °C 32,8 °C 11,7 °C 39 % 1021,3 hPa 0,0 l/m² 8,0 km/h (2 Bft) W 269 ° 2 min 4,1 UV-I 849 W/m² 9,4 °C 24,2 °C 12,9 km/h (3 Bft)
02.05.2026 12:50 24,2 °C 32,8 °C 11,7 °C 41 % 1021,3 hPa 0,0 l/m² 9,0 km/h (2 Bft) W 262 ° 2 min 4,1 UV-I 851 W/m² 10,1 °C 24,2 °C 14,5 km/h (3 Bft)
02.05.2026 12:52 24,4 °C 32,8 °C 11,7 °C 41 % 1021,3 hPa 0,0 l/m² 7,9 km/h (2 Bft) S-SW 205 ° 2 min 4,1 UV-I 849 W/m² 10,3 °C 24,4 °C 11,3 km/h (2 Bft)
02.05.2026 12:54 24,4 °C 33,3 °C 11,7 °C 39 % 1021,3 hPa 0,0 l/m² 9,9 km/h (2 Bft) S-SW 208 ° 2 min 4,1 UV-I 853 W/m² 9,5 °C 24,4 °C 17,7 km/h (3 Bft)
02.05.2026 12:56 24,4 °C 33,3 °C 11,7 °C 41 % 1021,2 hPa 0,0 l/m² 7,2 km/h (2 Bft) SW 221 ° 2 min 4,1 UV-I 853 W/m² 10,3 °C 24,4 °C 11,3 km/h (2 Bft)
02.05.2026 12:58 24,5 °C 33,3 °C 11,7 °C 39 % 1021,3 hPa 0,0 l/m² 10,6 km/h (2 Bft) S-SW 200 ° 2 min 4,1 UV-I 856 W/m² 9,6 °C 24,5 °C 20,9 km/h (4 Bft)
02.05.2026 13:00 24,4 °C 32,8 °C 11,7 °C 38 % 1021,3 hPa 0,0 l/m² 9,4 km/h (2 Bft) SW 219 ° 2 min 4,2 UV-I 853 W/m² 9,2 °C 24,4 °C 16,1 km/h (3 Bft)
02.05.2026 13:02 24,3 °C 33,3 °C 11,7 °C 39 % 1021,3 hPa 0,0 l/m² 7,4 km/h (2 Bft) SW 223 ° 2 min 4,1 UV-I 853 W/m² 9,4 °C 24,3 °C 11,3 km/h (2 Bft)
02.05.2026 13:04 24,7 °C 33,3 °C 11,7 °C 42 % 1021,2 hPa 0,0 l/m² 4,7 km/h (1 Bft) W 262 ° 2 min 4,1 UV-I 858 W/m² 10,9 °C 24,7 °C 9,7 km/h (2 Bft)
02.05.2026 13:06 24,7 °C 33,9 °C 12,2 °C 37 % 1021,2 hPa 0,0 l/m² 13,8 km/h (3 Bft) W-SW 237 ° 2 min 4,1 UV-I 854 W/m² 9,0 °C 24,7 °C 22,5 km/h (4 Bft)
02.05.2026 13:08 24,5 °C 33,3 °C 12,2 °C 39 % 1021,2 hPa 0,0 l/m² 9,7 km/h (2 Bft) SW 217 ° 2 min 4,1 UV-I 853 W/m² 9,6 °C 24,5 °C 14,5 km/h (3 Bft)
02.05.2026 13:10 24,6 °C 33,9 °C 12,2 °C 39 % 1021,2 hPa 0,0 l/m² 8,5 km/h (2 Bft) S 187 ° 2 min 4,1 UV-I 853 W/m² 9,7 °C 24,6 °C 20,9 km/h (4 Bft)
02.05.2026 13:12 24,6 °C 33,9 °C 12,2 °C 40 % 1021,3 hPa 0,0 l/m² 9,8 km/h (2 Bft) S-SW 192 ° 2 min 4,1 UV-I 853 W/m² 10,1 °C 24,6 °C 20,9 km/h (4 Bft)
02.05.2026 13:14 24,6 °C 34,4 °C 12,2 °C 39 % 1021,2 hPa 0,0 l/m² 8,0 km/h (2 Bft) W-SW 246 ° 2 min 4,1 UV-I 851 W/m² 9,7 °C 24,6 °C 12,9 km/h (3 Bft)
02.05.2026 13:16 24,6 °C 34,4 °C 12,2 °C 40 % 1021,1 hPa 0,0 l/m² 9,0 km/h (2 Bft) W-SW 255 ° 2 min 4,1 UV-I 846 W/m² 10,1 °C 24,6 °C 14,5 km/h (3 Bft)
02.05.2026 13:18 24,4 °C 33,9 °C 12,2 °C 39 % 1021,1 hPa 0,0 l/m² 9,4 km/h (2 Bft) W-SW 256 ° 2 min 4,1 UV-I 847 W/m² 9,5 °C 24,4 °C 16,1 km/h (3 Bft)
02.05.2026 13:20 24,3 °C 33,3 °C 12,2 °C 39 % 1021,2 hPa 0,0 l/m² 11,4 km/h (2 Bft) NW 319 ° 2 min 4,1 UV-I 849 W/m² 9,4 °C 24,3 °C 20,9 km/h (4 Bft)
02.05.2026 13:23 24,7 °C 34,4 °C 12,2 °C 39 % 1021,0 hPa 0,0 l/m² 6,4 km/h (2 Bft) W 271 ° 3 min 4,1 UV-I 851 W/m² 9,8 °C 24,7 °C 17,7 km/h (3 Bft)
02.05.2026 13:24 24,8 °C 34,4 °C 12,2 °C 38 % 1021,0 hPa 0,0 l/m² 14,5 km/h (3 Bft) S-SW 207 ° 1 min 4,1 UV-I 851 W/m² 9,5 °C 24,8 °C 19,3 km/h (3 Bft)
02.05.2026 13:26 24,8 °C 34,4 °C 12,2 °C 37 % 1021,0 hPa 0,0 l/m² 11,1 km/h (2 Bft) NW 312 ° 2 min 4,1 UV-I 851 W/m² 9,1 °C 24,8 °C 19,3 km/h (3 Bft)
02.05.2026 13:28 24,8 °C 34,4 °C 12,2 °C 38 % 1021,0 hPa 0,0 l/m² 10,1 km/h (2 Bft) W-SW 254 ° 2 min 4,1 UV-I 853 W/m² 9,5 °C 24,8 °C 16,1 km/h (3 Bft)
02.05.2026 13:30 24,7 °C 34,4 °C 12,2 °C 38 % 1020,9 hPa 0,0 l/m² 8,4 km/h (2 Bft) W 260 ° 2 min 4,1 UV-I 847 W/m² 9,4 °C 24,7 °C 16,1 km/h (3 Bft)
02.05.2026 13:32 24,7 °C 34,4 °C 12,2 °C 38 % 1020,9 hPa 0,0 l/m² 7,3 km/h (2 Bft) S-SW 206 ° 2 min 4,0 UV-I 847 W/m² 9,4 °C 24,7 °C 12,9 km/h (3 Bft)
02.05.2026 13:34 25,0 °C 35,0 °C 12,2 °C 37 % 1020,9 hPa 0,0 l/m² 8,7 km/h (2 Bft) W-SW 239 ° 2 min 4,1 UV-I 849 W/m² 9,3 °C 25,0 °C 14,5 km/h (3 Bft)
02.05.2026 13:36 24,8 °C 34,4 °C 12,2 °C 36 % 1020,9 hPa 0,0 l/m² 9,4 km/h (2 Bft) W-SW 254 ° 2 min 4,1 UV-I 847 W/m² 8,7 °C 24,8 °C 19,3 km/h (3 Bft)
02.05.2026 13:38 24,9 °C 35,0 °C 12,2 °C 38 % 1020,8 hPa 0,0 l/m² 7,9 km/h (2 Bft) W-SW 258 ° 2 min 4,1 UV-I 847 W/m² 9,6 °C 24,9 °C 14,5 km/h (3 Bft)
02.05.2026 13:40 24,9 °C 35,0 °C 12,2 °C 37 % 1020,8 hPa 0,0 l/m² 8,5 km/h (2 Bft) SW 235 ° 2 min 4,0 UV-I 849 W/m² 9,2 °C 24,9 °C 14,5 km/h (3 Bft)
02.05.2026 13:42 24,9 °C 34,4 °C 12,2 °C 37 % 1020,8 hPa 0,0 l/m² 13,4 km/h (3 Bft) W-SW 238 ° 2 min 4,0 UV-I 847 W/m² 9,2 °C 24,9 °C 24,1 km/h (4 Bft)
02.05.2026 13:44 24,8 °C 33,9 °C 12,2 °C 37 % 1020,8 hPa 0,0 l/m² 12,9 km/h (3 Bft) W 265 ° 2 min 4,0 UV-I 846 W/m² 9,1 °C 24,8 °C 19,3 km/h (3 Bft)
02.05.2026 13:46 24,8 °C 34,4 °C 12,2 °C 38 % 1020,7 hPa 0,0 l/m² 14,0 km/h (3 Bft) W 281 ° 2 min 4,0 UV-I 847 W/m² 9,5 °C 24,8 °C 25,7 km/h (4 Bft)
02.05.2026 13:48 24,8 °C 33,3 °C 12,2 °C 38 % 1020,7 hPa 0,0 l/m² 9,0 km/h (2 Bft) W-SW 244 ° 2 min 4,0 UV-I 846 W/m² 9,5 °C 24,8 °C 17,7 km/h (3 Bft)
02.05.2026 13:50 24,9 °C 34,4 °C 12,2 °C 38 % 1020,6 hPa 0,0 l/m² 9,1 km/h (2 Bft) W 267 ° 2 min 4,0 UV-I 842 W/m² 9,6 °C 24,9 °C 17,7 km/h (3 Bft)
02.05.2026 13:52 25,1 °C 34,4 °C 12,2 °C 38 % 1020,6 hPa 0,0 l/m² 9,1 km/h (2 Bft) W-NW 297 ° 2 min 4,0 UV-I 838 W/m² 9,8 °C 25,1 °C 17,7 km/h (3 Bft)
02.05.2026 13:54 24,9 °C 34,4 °C 12,2 °C 37 % 1020,6 hPa 0,0 l/m² 12,6 km/h (3 Bft) W-NW 301 ° 2 min 4,0 UV-I 842 W/m² 9,2 °C 24,9 °C 20,9 km/h (4 Bft)
02.05.2026 13:56 24,8 °C 34,4 °C 12,2 °C 37 % 1020,5 hPa 0,0 l/m² 11,2 km/h (2 Bft) W 267 ° 2 min 3,9 UV-I 838 W/m² 9,1 °C 24,8 °C 17,7 km/h (3 Bft)
02.05.2026 13:58 24,8 °C 34,4 °C 12,2 °C 38 % 1020,5 hPa 0,0 l/m² 6,3 km/h (2 Bft) SW 234 ° 2 min 3,9 UV-I 840 W/m² 9,5 °C 24,8 °C 14,5 km/h (3 Bft)
02.05.2026 14:00 24,9 °C 34,4 °C 12,2 °C 37 % 1020,5 hPa 0,0 l/m² 11,8 km/h (2 Bft) W-NW 285 ° 2 min 3,9 UV-I 837 W/m² 9,2 °C 24,9 °C 24,1 km/h (4 Bft)
02.05.2026 14:02 25,1 °C 34,4 °C 12,8 °C 37 % 1020,5 hPa 0,0 l/m² 11,8 km/h (2 Bft) W 271 ° 2 min 3,9 UV-I 833 W/m² 9,4 °C 25,1 °C 24,1 km/h (4 Bft)
02.05.2026 14:04 25,1 °C 34,4 °C 12,2 °C 37 % 1020,4 hPa 0,0 l/m² 9,9 km/h (2 Bft) SW 236 ° 2 min 3,8 UV-I 828 W/m² 9,4 °C 25,1 °C 19,3 km/h (3 Bft)
02.05.2026 14:06 24,9 °C 34,4 °C 12,2 °C 36 % 1020,4 hPa 0,0 l/m² 9,0 km/h (2 Bft) SW 223 ° 2 min 3,9 UV-I 835 W/m² 8,8 °C 24,9 °C 12,9 km/h (3 Bft)
02.05.2026 14:08 24,9 °C 34,4 °C 12,8 °C 37 % 1020,4 hPa 0,0 l/m² 10,4 km/h (2 Bft) S-SW 197 ° 2 min 3,9 UV-I 830 W/m² 9,2 °C 24,9 °C 16,1 km/h (3 Bft)
02.05.2026 14:10 24,9 °C 33,9 °C 12,8 °C 39 % 1020,3 hPa 0,0 l/m² 11,5 km/h (2 Bft) SW 219 ° 2 min 3,8 UV-I 830 W/m² 10,0 °C 24,9 °C 19,3 km/h (3 Bft)
02.05.2026 14:12 24,9 °C 33,3 °C 12,8 °C 38 % 1020,3 hPa 0,0 l/m² 12,5 km/h (2 Bft) SW 218 ° 2 min 3,8 UV-I 828 W/m² 9,6 °C 24,9 °C 22,5 km/h (4 Bft)
02.05.2026 14:14 24,9 °C 32,2 °C 12,8 °C 38 % 1020,4 hPa 0,0 l/m² 10,1 km/h (2 Bft) W 267 ° 2 min 3,8 UV-I 824 W/m² 9,6 °C 24,9 °C 20,9 km/h (4 Bft)
02.05.2026 14:16 24,9 °C 31,1 °C 12,2 °C 38 % 1020,3 hPa 0,0 l/m² 4,3 km/h (1 Bft) W-SW 245 ° 2 min 3,7 UV-I 824 W/m² 9,6 °C 24,9 °C 16,1 km/h (3 Bft)
02.05.2026 14:18 24,9 °C 30,0 °C 12,2 °C 37 % 1020,2 hPa 0,0 l/m² 6,4 km/h (2 Bft) W-SW 238 ° 2 min 3,7 UV-I 823 W/m² 9,2 °C 24,9 °C 12,9 km/h (3 Bft)
02.05.2026 14:20 24,8 °C 28,9 °C 12,8 °C 39 % 1020,2 hPa 0,0 l/m² 3,9 km/h (1 Bft) S-SW 197 ° 2 min 3,7 UV-I 816 W/m² 9,9 °C 24,8 °C 9,7 km/h (2 Bft)
02.05.2026 14:22 25,2 °C 28,3 °C 12,8 °C 38 % 1020,2 hPa 0,0 l/m² 7,4 km/h (2 Bft) S 190 ° 2 min 3,7 UV-I 814 W/m² 9,9 °C 25,2 °C 14,5 km/h (3 Bft)
02.05.2026 14:24 25,5 °C 28,3 °C 12,8 °C 39 % 1020,1 hPa 0,0 l/m² 3,9 km/h (1 Bft) S 173 ° 2 min 3,6 UV-I 812 W/m² 10,5 °C 25,5 °C 9,7 km/h (2 Bft)
02.05.2026 14:26 25,8 °C 28,3 °C 12,8 °C 39 % 1020,0 hPa 0,0 l/m² 9,2 km/h (2 Bft) S 175 ° 2 min 3,7 UV-I 812 W/m² 10,8 °C 25,8 °C 14,5 km/h (3 Bft)
02.05.2026 14:28 25,7 °C 29,4 °C 12,8 °C 38 % 1020,0 hPa 0,0 l/m² 5,1 km/h (1 Bft) W-SW 256 ° 2 min 3,6 UV-I 810 W/m² 10,3 °C 25,7 °C 8,0 km/h (2 Bft)
02.05.2026 14:30 25,6 °C 30,6 °C 12,8 °C 39 % 1020,0 hPa 0,0 l/m² 3,7 km/h (1 Bft) S-SO 167 ° 2 min 3,6 UV-I 810 W/m² 10,6 °C 25,6 °C 6,4 km/h (2 Bft)
02.05.2026 14:32 25,5 °C 32,2 °C 12,8 °C 39 % 1020,0 hPa 0,0 l/m² 3,1 km/h (1 Bft) W-SW 256 ° 2 min 3,5 UV-I 807 W/m² 10,5 °C 25,5 °C 6,4 km/h (2 Bft)
02.05.2026 14:34 25,2 °C 33,3 °C 12,8 °C 37 % 1020,0 hPa 0,0 l/m² 3,4 km/h (1 Bft) W 267 ° 2 min 3,5 UV-I 805 W/m² 9,5 °C 25,2 °C 9,7 km/h (2 Bft)
02.05.2026 14:36 25,2 °C 34,4 °C 12,8 °C 38 % 1019,9 hPa 0,0 l/m² 9,4 km/h (2 Bft) W 273 ° 2 min 3,5 UV-I 800 W/m² 9,9 °C 25,2 °C 16,1 km/h (3 Bft)
02.05.2026 14:38 25,2 °C 34,4 °C 12,8 °C 38 % 1020,0 hPa 0,0 l/m² 8,4 km/h (2 Bft) SW 229 ° 2 min 3,5 UV-I 796 W/m² 9,9 °C 25,2 °C 16,1 km/h (3 Bft)
02.05.2026 14:40 25,4 °C 35,0 °C 12,8 °C 37 % 1019,9 hPa 0,0 l/m² 9,6 km/h (2 Bft) S-SW 205 ° 2 min 3,4 UV-I 788 W/m² 9,6 °C 25,4 °C 17,7 km/h (3 Bft)
02.05.2026 14:42 25,6 °C 35,6 °C 12,8 °C 37 % 1019,9 hPa 0,0 l/m² 8,8 km/h (2 Bft) SW 235 ° 2 min 3,3 UV-I 780 W/m² 9,8 °C 25,6 °C 16,1 km/h (3 Bft)
02.05.2026 14:44 25,4 °C 35,6 °C 12,8 °C 37 % 1019,9 hPa 0,0 l/m² 7,2 km/h (2 Bft) W 278 ° 2 min 3,3 UV-I 780 W/m² 9,6 °C 25,4 °C 11,3 km/h (2 Bft)
02.05.2026 14:46 25,4 °C 35,6 °C 12,8 °C 37 % 1019,8 hPa 0,0 l/m² 9,6 km/h (2 Bft) SW 228 ° 2 min 3,3 UV-I 780 W/m² 9,6 °C 25,4 °C 19,3 km/h (3 Bft)
02.05.2026 14:48 25,4 °C 35,6 °C 12,8 °C 36 % 1019,8 hPa 0,0 l/m² 10,3 km/h (2 Bft) SW 225 ° 2 min 3,4 UV-I 777 W/m² 9,2 °C 25,4 °C 20,9 km/h (4 Bft)
02.05.2026 14:50 25,6 °C 36,1 °C 12,8 °C 38 % 1019,8 hPa 0,0 l/m² 9,2 km/h (2 Bft) W-NW 285 ° 2 min 3,3 UV-I 775 W/m² 10,2 °C 25,6 °C 16,1 km/h (3 Bft)
02.05.2026 14:52 25,6 °C 36,1 °C 12,8 °C 37 % 1019,8 hPa 0,0 l/m² 10,3 km/h (2 Bft) W-SW 240 ° 2 min 3,3 UV-I 770 W/m² 9,8 °C 25,6 °C 20,9 km/h (4 Bft)
02.05.2026 14:54 25,4 °C 36,1 °C 12,8 °C 37 % 1019,8 hPa 0,0 l/m² 11,0 km/h (2 Bft) S 186 ° 2 min 3,3 UV-I 770 W/m² 9,6 °C 25,4 °C 17,7 km/h (3 Bft)
02.05.2026 14:56 25,3 °C 36,1 °C 12,8 °C 39 % 1019,7 hPa 0,0 l/m² 6,8 km/h (2 Bft) W-SW 246 ° 2 min 3,3 UV-I 765 W/m² 10,3 °C 25,3 °C 11,3 km/h (2 Bft)
02.05.2026 14:58 25,4 °C 37,2 °C 12,8 °C 37 % 1019,6 hPa 0,0 l/m² 8,1 km/h (2 Bft) S-SO 154 ° 2 min 3,3 UV-I 763 W/m² 9,6 °C 25,4 °C 19,3 km/h (3 Bft)
02.05.2026 15:00 25,8 °C 37,8 °C 12,8 °C 39 % 1019,6 hPa 0,0 l/m² 8,5 km/h (2 Bft) S 176 ° 2 min 3,2 UV-I 763 W/m² 10,8 °C 25,8 °C 17,7 km/h (3 Bft)
02.05.2026 15:02 25,8 °C 37,8 °C 12,8 °C 36 % 1019,6 hPa 0,0 l/m² 9,6 km/h (2 Bft) SW 225 ° 2 min 3,2 UV-I 754 W/m² 9,6 °C 25,8 °C 19,3 km/h (3 Bft)
02.05.2026 15:04 25,6 °C 36,7 °C 12,8 °C 35 % 1019,5 hPa 0,0 l/m² 8,4 km/h (2 Bft) SW 233 ° 2 min 3,1 UV-I 754 W/m² 9,0 °C 25,6 °C 12,9 km/h (3 Bft)
02.05.2026 15:06 25,6 °C 37,2 °C 12,8 °C 36 % 1019,5 hPa 0,0 l/m² 6,0 km/h (2 Bft) W-SW 252 ° 2 min 3,2 UV-I 752 W/m² 9,4 °C 25,6 °C 12,9 km/h (3 Bft)
02.05.2026 15:08 25,7 °C 36,7 °C 12,8 °C 36 % 1019,5 hPa 0,0 l/m² 13,5 km/h (3 Bft) W-SW 241 ° 2 min 3,1 UV-I 744 W/m² 9,5 °C 25,7 °C 20,9 km/h (4 Bft)
02.05.2026 15:10 25,6 °C 36,7 °C 12,8 °C 36 % 1019,6 hPa 0,0 l/m² 13,5 km/h (3 Bft) SW 235 ° 2 min 3,1 UV-I 745 W/m² 9,4 °C 25,6 °C 22,5 km/h (4 Bft)
02.05.2026 15:12 25,6 °C 36,7 °C 12,8 °C 37 % 1019,6 hPa 0,0 l/m² 8,7 km/h (2 Bft) SW 222 ° 2 min 3,1 UV-I 740 W/m² 9,8 °C 25,6 °C 14,5 km/h (3 Bft)
02.05.2026 15:14 25,6 °C 37,2 °C 12,8 °C 37 % 1019,5 hPa 0,0 l/m² 10,5 km/h (2 Bft) W-SW 249 ° 2 min 3,1 UV-I 735 W/m² 9,8 °C 25,6 °C 17,7 km/h (3 Bft)
02.05.2026 15:16 25,3 °C 36,7 °C 12,8 °C 37 % 1019,5 hPa 0,0 l/m² 13,8 km/h (3 Bft) W-SW 250 ° 2 min 3,0 UV-I 729 W/m² 9,6 °C 25,3 °C 22,5 km/h (4 Bft)
02.05.2026 15:18 25,3 °C 36,1 °C 12,8 °C 37 % 1019,3 hPa 0,0 l/m² 8,1 km/h (2 Bft) S 191 ° 2 min 3,0 UV-I 722 W/m² 9,6 °C 25,3 °C 19,3 km/h (3 Bft)
02.05.2026 15:20 25,4 °C 36,7 °C 12,8 °C 37 % 1019,4 hPa 0,0 l/m² 6,7 km/h (2 Bft) S-SW 204 ° 2 min 3,0 UV-I 722 W/m² 9,6 °C 25,4 °C 12,9 km/h (3 Bft)
02.05.2026 15:22 25,4 °C 37,2 °C 12,8 °C 38 % 1019,2 hPa 0,0 l/m² 6,4 km/h (2 Bft) SW 225 ° 2 min 2,9 UV-I 722 W/m² 10,0 °C 25,4 °C 11,3 km/h (2 Bft)
02.05.2026 15:24 25,7 °C 37,8 °C 12,8 °C 39 % 1019,3 hPa 0,0 l/m² 8,9 km/h (2 Bft) W-SW 258 ° 2 min 2,9 UV-I 717 W/m² 10,7 °C 25,7 °C 19,3 km/h (3 Bft)
02.05.2026 15:26 25,7 °C 37,2 °C 12,8 °C 36 % 1019,2 hPa 0,0 l/m² 9,7 km/h (2 Bft) SW 235 ° 2 min 2,9 UV-I 715 W/m² 9,5 °C 25,7 °C 14,5 km/h (3 Bft)
02.05.2026 15:28 25,7 °C 36,7 °C 12,8 °C 37 % 1019,2 hPa 0,0 l/m² 9,5 km/h (2 Bft) S-SW 201 ° 2 min 2,8 UV-I 707 W/m² 9,9 °C 25,7 °C 17,7 km/h (3 Bft)
02.05.2026 15:30 25,7 °C 37,2 °C 12,8 °C 37 % 1019,1 hPa 0,0 l/m² 7,0 km/h (2 Bft) S-SW 201 ° 2 min 2,8 UV-I 700 W/m² 9,9 °C 25,7 °C 12,9 km/h (3 Bft)
02.05.2026 15:32 25,7 °C 37,2 °C 12,8 °C 37 % 1019,1 hPa 0,0 l/m² 8,6 km/h (2 Bft) W-SW 246 ° 2 min 2,7 UV-I 696 W/m² 9,9 °C 25,7 °C 17,7 km/h (3 Bft)
02.05.2026 15:34 26,0 °C 37,8 °C 12,8 °C 38 % 1019,1 hPa 0,0 l/m² 4,7 km/h (1 Bft) S-SW 194 ° 2 min 2,7 UV-I 691 W/m² 10,6 °C 26,0 °C 11,3 km/h (2 Bft)
02.05.2026 15:36 26,0 °C 38,3 °C 12,8 °C 36 % 1019,1 hPa 0,0 l/m² 9,6 km/h (2 Bft) W-SW 248 ° 2 min 2,7 UV-I 689 W/m² 9,8 °C 26,0 °C 14,5 km/h (3 Bft)
02.05.2026 15:38 25,9 °C 37,2 °C 12,8 °C 37 % 1019,0 hPa 0,0 l/m² 9,4 km/h (2 Bft) S-SW 205 ° 2 min 2,7 UV-I 686 W/m² 10,1 °C 25,9 °C 12,9 km/h (3 Bft)
02.05.2026 15:40 25,6 °C 37,2 °C 13,3 °C 36 % 1019,0 hPa 0,0 l/m² 8,7 km/h (2 Bft) W-SW 257 ° 2 min 2,7 UV-I 679 W/m² 9,4 °C 25,6 °C 16,1 km/h (3 Bft)
02.05.2026 15:42 25,6 °C 37,2 °C 13,3 °C 36 % 1019,0 hPa 0,0 l/m² 7,6 km/h (2 Bft) W 268 ° 2 min 2,6 UV-I 673 W/m² 9,4 °C 25,6 °C 17,7 km/h (3 Bft)
02.05.2026 15:44 25,7 °C 38,3 °C 12,8 °C 37 % 1018,9 hPa 0,0 l/m² 5,0 km/h (1 Bft) W-NW 297 ° 2 min 2,6 UV-I 668 W/m² 9,9 °C 25,7 °C 11,3 km/h (2 Bft)
02.05.2026 15:46 25,8 °C 38,3 °C 13,3 °C 38 % 1018,9 hPa 0,0 l/m² 7,5 km/h (2 Bft) S-SW 199 ° 2 min 2,5 UV-I 663 W/m² 10,4 °C 25,8 °C 16,1 km/h (3 Bft)
02.05.2026 15:48 25,9 °C 38,3 °C 12,8 °C 37 % 1018,8 hPa 0,0 l/m² 8,3 km/h (2 Bft) S-SW 206 ° 2 min 2,5 UV-I 657 W/m² 10,1 °C 25,9 °C 14,5 km/h (3 Bft)
02.05.2026 15:50 26,1 °C 37,8 °C 12,8 °C 37 % 1018,8 hPa 0,0 l/m² 9,3 km/h (2 Bft) SW 235 ° 2 min 2,5 UV-I 656 W/m² 10,3 °C 26,1 °C 14,5 km/h (3 Bft)
02.05.2026 15:52 26,2 °C 37,2 °C 12,8 °C 36 % 1018,8 hPa 0,0 l/m² 10,7 km/h (2 Bft) W-SW 247 ° 2 min 2,4 UV-I 654 W/m² 9,9 °C 26,2 °C 19,3 km/h (3 Bft)
02.05.2026 15:54 25,8 °C 37,2 °C 12,8 °C 35 % 1018,7 hPa 0,0 l/m² 6,2 km/h (2 Bft) W-SW 248 ° 2 min 2,4 UV-I 647 W/m² 9,2 °C 25,8 °C 14,5 km/h (3 Bft)
02.05.2026 15:56 25,9 °C 37,2 °C 13,3 °C 36 % 1018,8 hPa 0,0 l/m² 9,0 km/h (2 Bft) W 259 ° 2 min 2,4 UV-I 643 W/m² 9,7 °C 25,9 °C 14,5 km/h (3 Bft)
02.05.2026 15:58 26,0 °C 37,2 °C 13,3 °C 35 % 1018,8 hPa 0,0 l/m² 9,3 km/h (2 Bft) SW 235 ° 2 min 2,3 UV-I 640 W/m² 9,3 °C 26,0 °C 16,1 km/h (3 Bft)
02.05.2026 16:00 25,9 °C 37,2 °C 13,3 °C 34 % 1018,8 hPa 0,0 l/m² 5,5 km/h (2 Bft) SW 227 ° 2 min 2,3 UV-I 635 W/m² 8,8 °C 25,9 °C 9,7 km/h (2 Bft)
02.05.2026 16:02 25,8 °C 37,8 °C 12,8 °C 36 % 1018,7 hPa 0,0 l/m² 4,3 km/h (1 Bft) W-SW 254 ° 2 min 2,3 UV-I 629 W/m² 9,6 °C 25,8 °C 12,9 km/h (3 Bft)
02.05.2026 16:04 25,9 °C 38,3 °C 12,8 °C 36 % 1018,7 hPa 0,0 l/m² 7,1 km/h (2 Bft) S-SW 198 ° 2 min 2,3 UV-I 624 W/m² 9,7 °C 25,9 °C 12,9 km/h (3 Bft)
02.05.2026 16:06 26,1 °C 38,9 °C 13,3 °C 35 % 1018,7 hPa 0,0 l/m² 6,2 km/h (2 Bft) S-SW 213 ° 2 min 2,2 UV-I 619 W/m² 9,4 °C 26,1 °C 12,9 km/h (3 Bft)
02.05.2026 16:08 25,8 °C 38,3 °C 13,3 °C 35 % 1018,6 hPa 0,0 l/m² 5,0 km/h (1 Bft) SW 223 ° 2 min 2,2 UV-I 617 W/m² 9,2 °C 25,8 °C 12,9 km/h (3 Bft)
02.05.2026 16:10 25,9 °C 37,8 °C 13,3 °C 37 % 1018,6 hPa 0,0 l/m² 9,3 km/h (2 Bft) S-SW 198 ° 2 min 2,1 UV-I 610 W/m² 10,1 °C 25,9 °C 16,1 km/h (3 Bft)
02.05.2026 16:12 26,1 °C 38,3 °C 13,3 °C 36 % 1018,6 hPa 0,0 l/m² 11,6 km/h (2 Bft) SW 228 ° 2 min 2,2 UV-I 608 W/m² 9,8 °C 26,1 °C 16,1 km/h (3 Bft)
02.05.2026 16:14 26,1 °C 37,8 °C 13,3 °C 36 % 1018,5 hPa 0,0 l/m² 11,8 km/h (2 Bft) SW 234 ° 2 min 2,1 UV-I 601 W/m² 9,8 °C 26,1 °C 19,3 km/h (3 Bft)
02.05.2026 16:16 25,9 °C 36,7 °C 13,3 °C 34 % 1018,6 hPa 0,0 l/m² 10,8 km/h (2 Bft) W-SW 254 ° 2 min 2,1 UV-I 599 W/m² 8,8 °C 25,9 °C 16,1 km/h (3 Bft)
02.05.2026 16:18 25,8 °C 36,7 °C 13,3 °C 35 % 1018,4 hPa 0,0 l/m² 7,4 km/h (2 Bft) W 267 ° 2 min 2,0 UV-I 596 W/m² 9,2 °C 25,8 °C 11,3 km/h (2 Bft)
02.05.2026 16:20 25,7 °C 37,8 °C 13,3 °C 38 % 1018,4 hPa 0,0 l/m² 3,5 km/h (1 Bft) W 269 ° 2 min 2,0 UV-I 589 W/m² 10,3 °C 25,7 °C 8,0 km/h (2 Bft)
02.05.2026 16:22 25,6 °C 38,9 °C 13,3 °C 35 % 1018,3 hPa 0,0 l/m² 2,5 km/h (1 Bft) W-SW 237 ° 2 min 2,0 UV-I 585 W/m² 9,0 °C 25,6 °C 4,8 km/h (1 Bft)
02.05.2026 16:24 25,6 °C 38,9 °C 13,3 °C 36 % 1018,3 hPa 0,0 l/m² 8,9 km/h (2 Bft) W-SW 254 ° 2 min 1,9 UV-I 582 W/m² 9,4 °C 25,6 °C 20,9 km/h (4 Bft)
02.05.2026 16:26 25,9 °C 37,8 °C 13,3 °C 35 % 1018,3 hPa 0,0 l/m² 7,5 km/h (2 Bft) SW 224 ° 2 min 1,9 UV-I 578 W/m² 9,3 °C 25,9 °C 11,3 km/h (2 Bft)
02.05.2026 16:28 26,1 °C 37,8 °C 13,3 °C 35 % 1018,3 hPa 0,0 l/m² 6,7 km/h (2 Bft) W 266 ° 2 min 1,9 UV-I 573 W/m² 9,4 °C 26,1 °C 12,9 km/h (3 Bft)
02.05.2026 16:30 26,4 °C 37,8 °C 13,3 °C 35 % 1018,3 hPa 0,0 l/m² 8,5 km/h (2 Bft) SW 221 ° 2 min 1,8 UV-I 570 W/m² 9,7 °C 26,4 °C 16,1 km/h (3 Bft)
02.05.2026 16:33 26,3 °C 37,8 °C 13,3 °C 35 % 1018,2 hPa 0,0 l/m² 8,3 km/h (2 Bft) W-SW 250 ° 3 min 1,8 UV-I 561 W/m² 9,6 °C 26,3 °C 14,5 km/h (3 Bft)
02.05.2026 16:34 26,3 °C 37,8 °C 13,3 °C 35 % 1018,2 hPa 0,0 l/m² 5,0 km/h (1 Bft) W-SW 245 ° 1 min 1,8 UV-I 559 W/m² 9,6 °C 26,3 °C 8,0 km/h (2 Bft)
02.05.2026 16:36 26,3 °C 37,8 °C 13,3 °C 33 % 1018,3 hPa 0,0 l/m² 12,4 km/h (2 Bft) W 263 ° 2 min 1,8 UV-I 555 W/m² 8,7 °C 26,3 °C 19,3 km/h (3 Bft)
02.05.2026 16:38 26,1 °C 37,2 °C 13,3 °C 34 % 1018,2 hPa 0,0 l/m² 10,2 km/h (2 Bft) W-SW 256 ° 2 min 1,7 UV-I 548 W/m² 9,0 °C 26,1 °C 16,1 km/h (3 Bft)
02.05.2026 16:40 26,0 °C 36,7 °C 13,3 °C 35 % 1018,2 hPa 0,0 l/m² 7,7 km/h (2 Bft) W-SW 250 ° 2 min 1,7 UV-I 545 W/m² 9,3 °C 26,0 °C 14,5 km/h (3 Bft)
02.05.2026 16:42 26,0 °C 36,7 °C 13,3 °C 34 % 1018,1 hPa 0,0 l/m² 7,1 km/h (2 Bft) W-SW 241 ° 2 min 1,7 UV-I 540 W/m² 8,9 °C 26,0 °C 11,3 km/h (2 Bft)
02.05.2026 16:44 25,9 °C 36,7 °C 13,3 °C 33 % 1018,1 hPa 0,0 l/m² 6,0 km/h (2 Bft) SW 233 ° 2 min 1,6 UV-I 536 W/m² 8,4 °C 25,9 °C 11,3 km/h (2 Bft)
02.05.2026 16:46 25,9 °C 37,8 °C 13,3 °C 34 % 1018,0 hPa 0,0 l/m² 2,0 km/h (1 Bft) NW 312 ° 2 min 1,7 UV-I 531 W/m² 8,8 °C 25,9 °C 4,8 km/h (1 Bft)
02.05.2026 16:48 26,1 °C 37,8 °C 13,3 °C 34 % 1018,0 hPa 0,0 l/m² 4,4 km/h (1 Bft) W-NW 285 ° 2 min 1,6 UV-I 529 W/m² 9,0 °C 26,1 °C 6,4 km/h (2 Bft)
02.05.2026 16:50 26,2 °C 38,3 °C 13,3 °C 34 % 1017,9 hPa 0,0 l/m² 2,8 km/h (1 Bft) W-SW 257 ° 2 min 1,6 UV-I 524 W/m² 9,1 °C 26,2 °C 4,8 km/h (1 Bft)
02.05.2026 16:52 26,2 °C 38,9 °C 13,3 °C 35 % 1017,9 hPa 0,0 l/m² 3,4 km/h (1 Bft) SW 216 ° 2 min 1,5 UV-I 520 W/m² 9,5 °C 26,2 °C 9,7 km/h (2 Bft)
02.05.2026 16:54 26,3 °C 38,3 °C 13,3 °C 33 % 1017,8 hPa 0,0 l/m² 6,7 km/h (2 Bft) S 173 ° 2 min 1,5 UV-I 517 W/m² 8,7 °C 26,3 °C 16,1 km/h (3 Bft)
02.05.2026 16:56 26,3 °C 37,8 °C 13,3 °C 34 % 1017,8 hPa 0,0 l/m² 7,8 km/h (2 Bft) W-SW 250 ° 2 min 1,4 UV-I 513 W/m² 9,2 °C 26,3 °C 14,5 km/h (3 Bft)
02.05.2026 16:58 26,3 °C 36,7 °C 13,3 °C 34 % 1017,7 hPa 0,0 l/m² 11,1 km/h (2 Bft) SW 223 ° 2 min 1,4 UV-I 510 W/m² 9,2 °C 26,3 °C 17,7 km/h (3 Bft)
02.05.2026 17:00 26,2 °C 33,9 °C 13,3 °C 34 % 1017,8 hPa 0,0 l/m² 9,6 km/h (2 Bft) S 173 ° 2 min 1,4 UV-I 504 W/m² 9,1 °C 26,2 °C 20,9 km/h (4 Bft)
02.05.2026 17:02 26,2 °C 32,2 °C 13,3 °C 35 % 1017,7 hPa 0,0 l/m² 5,6 km/h (2 Bft) S-SW 197 ° 2 min 1,4 UV-I 497 W/m² 9,5 °C 26,2 °C 9,7 km/h (2 Bft)
02.05.2026 17:04 26,2 °C 30,6 °C 13,3 °C 33 % 1017,7 hPa 0,0 l/m² 9,5 km/h (2 Bft) SW 234 ° 2 min 1,3 UV-I 496 W/m² 8,6 °C 26,2 °C 14,5 km/h (3 Bft)
02.05.2026 17:06 26,1 °C 28,9 °C 13,3 °C 34 % 1017,7 hPa 0,0 l/m² 8,4 km/h (2 Bft) W-SW 255 ° 2 min 1,4 UV-I 492 W/m² 9,0 °C 26,1 °C 16,1 km/h (3 Bft)
02.05.2026 17:08 26,0 °C 27,8 °C 13,3 °C 34 % 1017,7 hPa 0,0 l/m² 7,2 km/h (2 Bft) SW 230 ° 2 min 1,3 UV-I 485 W/m² 8,9 °C 26,0 °C 14,5 km/h (3 Bft)
02.05.2026 17:10 25,9 °C 26,7 °C 13,3 °C 34 % 1017,6 hPa 0,0 l/m² 3,5 km/h (1 Bft) W-SW 246 ° 2 min 1,3 UV-I 482 W/m² 8,8 °C 25,9 °C 9,7 km/h (2 Bft)
02.05.2026 17:12 26,1 °C 25,6 °C 13,3 °C 34 % 1017,6 hPa 0,0 l/m² 6,3 km/h (2 Bft) W 266 ° 2 min 1,3 UV-I 480 W/m² 9,0 °C 26,1 °C 9,7 km/h (2 Bft)
02.05.2026 17:14 26,3 °C 25,6 °C 13,3 °C 34 % 1017,5 hPa 0,0 l/m² 7,9 km/h (2 Bft) SW 216 ° 2 min 1,2 UV-I 473 W/m² 9,2 °C 26,3 °C 14,5 km/h (3 Bft)
02.05.2026 17:16 26,3 °C 25,6 °C 13,3 °C 33 % 1017,5 hPa 0,0 l/m² 8,7 km/h (2 Bft) W-SW 258 ° 2 min 1,2 UV-I 468 W/m² 8,7 °C 26,3 °C 12,9 km/h (3 Bft)
02.05.2026 17:18 26,2 °C 24,4 °C 13,3 °C 33 % 1017,5 hPa 0,0 l/m² 8,1 km/h (2 Bft) S-SW 210 ° 2 min 1,2 UV-I 464 W/m² 8,6 °C 26,2 °C 14,5 km/h (3 Bft)
02.05.2026 17:20 26,1 °C 24,4 °C 13,3 °C 33 % 1017,5 hPa 0,0 l/m² 8,2 km/h (2 Bft) S-SW 202 ° 2 min 1,2 UV-I 459 W/m² 8,6 °C 26,1 °C 14,5 km/h (3 Bft)
02.05.2026 17:22 26,1 °C 23,9 °C 13,3 °C 33 % 1017,4 hPa 0,0 l/m² 5,7 km/h (2 Bft) SO 125 ° 2 min 1,2 UV-I 454 W/m² 8,6 °C 26,1 °C 11,3 km/h (2 Bft)
02.05.2026 17:24 26,1 °C 23,9 °C 13,3 °C 33 % 1017,3 hPa 0,0 l/m² 6,6 km/h (2 Bft) SW 235 ° 2 min 1,1 UV-I 448 W/m² 8,6 °C 26,1 °C 11,3 km/h (2 Bft)
02.05.2026 17:26 26,1 °C 23,9 °C 13,3 °C 33 % 1017,3 hPa 0,0 l/m² 11,2 km/h (2 Bft) W 269 ° 2 min 1,1 UV-I 445 W/m² 8,6 °C 26,1 °C 17,7 km/h (3 Bft)
02.05.2026 17:28 26,0 °C 23,9 °C 13,3 °C 33 % 1017,3 hPa 0,0 l/m² 5,2 km/h (1 Bft) W 259 ° 2 min 1,1 UV-I 441 W/m² 8,5 °C 26,0 °C 11,3 km/h (2 Bft)
02.05.2026 17:30 26,0 °C 23,9 °C 13,3 °C 34 % 1017,2 hPa 0,0 l/m² 5,6 km/h (2 Bft) W-SW 252 ° 2 min 1,0 UV-I 434 W/m² 8,9 °C 26,0 °C 11,3 km/h (2 Bft)
02.05.2026 17:32 26,1 °C 23,9 °C 13,3 °C 34 % 1017,2 hPa 0,0 l/m² 4,4 km/h (1 Bft) S-SW 209 ° 2 min 1,0 UV-I 427 W/m² 9,0 °C 26,1 °C 11,3 km/h (2 Bft)
02.05.2026 17:34 26,0 °C 23,9 °C 13,3 °C 34 % 1017,2 hPa 0,0 l/m² 8,4 km/h (2 Bft) S-SW 202 ° 2 min 1,0 UV-I 422 W/m² 8,9 °C 26,0 °C 14,5 km/h (3 Bft)
02.05.2026 17:36 25,8 °C 23,9 °C 13,3 °C 32 % 1017,1 hPa 0,0 l/m² 5,1 km/h (1 Bft) S-SW 193 ° 2 min 1,0 UV-I 415 W/m² 7,8 °C 25,8 °C 9,7 km/h (2 Bft)
02.05.2026 17:38 25,8 °C 24,4 °C 13,3 °C 33 % 1017,1 hPa 0,0 l/m² 7,9 km/h (2 Bft) W-SW 237 ° 2 min 0,9 UV-I 411 W/m² 8,3 °C 25,8 °C 16,1 km/h (3 Bft)
02.05.2026 17:40 25,9 °C 24,4 °C 13,3 °C 34 % 1017,1 hPa 0,0 l/m² 8,8 km/h (2 Bft) SW 221 ° 2 min 1,0 UV-I 408 W/m² 8,8 °C 25,9 °C 16,1 km/h (3 Bft)
02.05.2026 17:42 25,9 °C 23,9 °C 13,3 °C 33 % 1017,1 hPa 0,0 l/m² 7,3 km/h (2 Bft) S-SW 195 ° 2 min 0,9 UV-I 397 W/m² 8,4 °C 25,9 °C 16,1 km/h (3 Bft)
02.05.2026 17:44 25,8 °C 23,9 °C 13,3 °C 34 % 1017,1 hPa 0,0 l/m² 7,2 km/h (2 Bft) W 267 ° 2 min 0,9 UV-I 392 W/m² 8,7 °C 25,8 °C 14,5 km/h (3 Bft)
02.05.2026 17:46 25,8 °C 24,4 °C 13,3 °C 32 % 1017,1 hPa 0,0 l/m² 10,5 km/h (2 Bft) W-SW 249 ° 2 min 0,8 UV-I 388 W/m² 7,8 °C 25,8 °C 17,7 km/h (3 Bft)
02.05.2026 17:48 25,8 °C 24,4 °C 13,3 °C 33 % 1017,0 hPa 0,0 l/m² 9,3 km/h (2 Bft) W-SW 238 ° 2 min 0,8 UV-I 381 W/m² 8,3 °C 25,8 °C 14,5 km/h (3 Bft)
02.05.2026 17:50 25,8 °C 23,9 °C 13,3 °C 33 % 1017,0 hPa 0,0 l/m² 7,3 km/h (2 Bft) SW 235 ° 2 min 0,8 UV-I 378 W/m² 8,3 °C 25,8 °C 11,3 km/h (2 Bft)
02.05.2026 17:52 25,8 °C 23,9 °C 13,3 °C 33 % 1017,0 hPa 0,0 l/m² 6,7 km/h (2 Bft) S-SW 213 ° 2 min 0,8 UV-I 373 W/m² 8,3 °C 25,8 °C 11,3 km/h (2 Bft)
02.05.2026 17:54 25,8 °C 23,9 °C 13,3 °C 32 % 1017,0 hPa 0,0 l/m² 8,1 km/h (2 Bft) W-SW 256 ° 2 min 0,8 UV-I 364 W/m² 7,8 °C 25,8 °C 14,5 km/h (3 Bft)
02.05.2026 17:56 25,8 °C 23,3 °C 13,3 °C 33 % 1017,0 hPa 0,0 l/m² 5,4 km/h (2 Bft) SW 233 ° 2 min 0,8 UV-I 359 W/m² 8,3 °C 25,8 °C 12,9 km/h (3 Bft)
02.05.2026 17:58 25,7 °C 23,3 °C 13,3 °C 33 % 1016,9 hPa 0,0 l/m² 11,3 km/h (2 Bft) W 273 ° 2 min 0,7 UV-I 353 W/m² 8,2 °C 25,7 °C 17,7 km/h (3 Bft)
02.05.2026 18:00 25,7 °C 22,8 °C 13,3 °C 33 % 1017,0 hPa 0,0 l/m² 10,8 km/h (2 Bft) W-SW 252 ° 2 min 0,7 UV-I 348 W/m² 8,2 °C 25,7 °C 22,5 km/h (4 Bft)
02.05.2026 18:02 25,7 °C 22,8 °C 13,3 °C 33 % 1016,9 hPa 0,0 l/m² 10,1 km/h (2 Bft) W-SW 242 ° 2 min 0,7 UV-I 345 W/m² 8,2 °C 25,7 °C 20,9 km/h (4 Bft)
02.05.2026 18:04 25,8 °C 22,8 °C 13,3 °C 33 % 1016,8 hPa 0,0 l/m² 7,8 km/h (2 Bft) SW 227 ° 2 min 0,7 UV-I 336 W/m² 8,3 °C 25,8 °C 12,9 km/h (3 Bft)
02.05.2026 18:06 25,8 °C 22,8 °C 13,3 °C 33 % 1016,9 hPa 0,0 l/m² 7,0 km/h (2 Bft) S 175 ° 0 min 0,7 UV-I 181 W/m² 8,3 °C 25,8 °C 12,9 km/h (3 Bft)
02.05.2026 18:08 25,8 °C 22,8 °C 13,3 °C 33 % 1016,8 hPa 0,0 l/m² 8,4 km/h (2 Bft) SW 232 ° 2 min 0,6 UV-I 213 W/m² 8,3 °C 25,8 °C 14,5 km/h (3 Bft)
02.05.2026 18:10 25,8 °C 22,8 °C 13,3 °C 33 % 1016,8 hPa 0,0 l/m² 9,4 km/h (2 Bft) S-SW 195 ° 0 min 0,6 UV-I 128 W/m² 8,3 °C 25,8 °C 19,3 km/h (3 Bft)
02.05.2026 18:12 25,8 °C 22,8 °C 13,3 °C 32 % 1016,8 hPa 0,0 l/m² 10,1 km/h (2 Bft) S-SW 202 ° 0 min 0,5 UV-I 107 W/m² 7,8 °C 25,8 °C 19,3 km/h (3 Bft)
02.05.2026 18:14 25,7 °C 23,3 °C 13,3 °C 32 % 1016,8 hPa 0,0 l/m² 9,6 km/h (2 Bft) S-SW 208 ° 0 min 0,5 UV-I 69 W/m² 7,8 °C 25,7 °C 17,7 km/h (3 Bft)
02.05.2026 18:16 25,8 °C 23,3 °C 13,3 °C 33 % 1016,8 hPa 0,0 l/m² 7,7 km/h (2 Bft) SW 236 ° 0 min 0,5 UV-I 132 W/m² 8,3 °C 25,8 °C 12,9 km/h (3 Bft)
02.05.2026 18:18 25,7 °C 22,8 °C 13,3 °C 33 % 1016,7 hPa 0,0 l/m² 6,1 km/h (2 Bft) S-SW 210 ° 0 min 0,5 UV-I 118 W/m² 8,2 °C 25,7 °C 12,9 km/h (3 Bft)
02.05.2026 18:20 25,7 °C 23,3 °C 13,3 °C 34 % 1016,7 hPa 0,0 l/m² 6,4 km/h (2 Bft) SW 223 ° 0 min 0,6 UV-I 153 W/m² 8,6 °C 25,7 °C 12,9 km/h (3 Bft)
02.05.2026 18:22 25,8 °C 23,3 °C 13,3 °C 33 % 1016,6 hPa 0,0 l/m² 6,1 km/h (2 Bft) S-SW 206 ° 2 min 0,5 UV-I 186 W/m² 8,3 °C 25,8 °C 12,9 km/h (3 Bft)
02.05.2026 18:24 25,8 °C 23,3 °C 13,3 °C 33 % 1016,7 hPa 0,0 l/m² 7,9 km/h (2 Bft) SW 220 ° 0 min 0,5 UV-I 111 W/m² 8,3 °C 25,8 °C 14,5 km/h (3 Bft)
02.05.2026 18:26 25,8 °C 23,3 °C 13,3 °C 33 % 1016,6 hPa 0,0 l/m² 8,6 km/h (2 Bft) S-SW 213 ° 0 min 0,5 UV-I 98 W/m² 8,3 °C 25,8 °C 14,5 km/h (3 Bft)
02.05.2026 18:28 25,7 °C 23,3 °C 13,3 °C 34 % 1016,6 hPa 0,0 l/m² 6,9 km/h (2 Bft) S-SW 199 ° 0 min 0,5 UV-I 100 W/m² 8,6 °C 25,7 °C 17,7 km/h (3 Bft)
02.05.2026 18:30 25,7 °C 23,9 °C 13,3 °C 33 % 1016,6 hPa 0,0 l/m² 4,9 km/h (1 Bft) SW 231 ° 0 min 0,0 UV-I 167 W/m² 8,2 °C 25,7 °C 12,9 km/h (3 Bft)
02.05.2026 18:32 25,7 °C 23,3 °C 13,3 °C 33 % 1016,6 hPa 0,0 l/m² 6,7 km/h (2 Bft) W-SW 253 ° 0 min 0,0 UV-I 46 W/m² 8,2 °C 25,7 °C 9,7 km/h (2 Bft)
02.05.2026 18:34 25,6 °C 24,4 °C 13,3 °C 35 % 1016,6 hPa 0,0 l/m² 5,5 km/h (2 Bft) W 265 ° 0 min 0,0 UV-I 44 W/m² 9,0 °C 25,6 °C 12,9 km/h (3 Bft)
02.05.2026 18:36 25,6 °C 24,4 °C 13,3 °C 33 % 1016,5 hPa 0,0 l/m² 5,4 km/h (2 Bft) W 262 ° 0 min 0,0 UV-I 63 W/m² 8,1 °C 25,6 °C 9,7 km/h (2 Bft)
02.05.2026 18:38 25,6 °C 24,4 °C 13,3 °C 34 % 1016,5 hPa 0,0 l/m² 7,4 km/h (2 Bft) S-SW 198 ° 0 min 0,0 UV-I 63 W/m² 8,6 °C 25,6 °C 12,9 km/h (3 Bft)
02.05.2026 18:40 25,6 °C 24,4 °C 13,3 °C 33 % 1016,5 hPa 0,0 l/m² 7,4 km/h (2 Bft) W-SW 250 ° 0 min 0,0 UV-I 42 W/m² 8,1 °C 25,6 °C 12,9 km/h (3 Bft)
02.05.2026 18:42 25,6 °C 25,0 °C 13,3 °C 33 % 1016,5 hPa 0,0 l/m² 5,5 km/h (2 Bft) W-SW 250 ° 0 min 0,0 UV-I 44 W/m² 8,1 °C 25,6 °C 11,3 km/h (2 Bft)
02.05.2026 18:44 25,6 °C 25,0 °C 13,3 °C 34 % 1016,5 hPa 0,0 l/m² 6,2 km/h (2 Bft) SW 222 ° 0 min 0,0 UV-I 44 W/m² 8,6 °C 25,6 °C 11,3 km/h (2 Bft)
02.05.2026 18:46 25,5 °C 25,0 °C 13,3 °C 34 % 1016,4 hPa 0,0 l/m² 7,2 km/h (2 Bft) SW 235 ° 0 min 0,0 UV-I 46 W/m² 8,5 °C 25,5 °C 12,9 km/h (3 Bft)
02.05.2026 18:48 25,4 °C 25,0 °C 13,3 °C 33 % 1016,4 hPa 0,0 l/m² 6,6 km/h (2 Bft) W 275 ° 0 min 0,0 UV-I 44 W/m² 7,9 °C 25,4 °C 9,7 km/h (2 Bft)
02.05.2026 18:50 25,4 °C 24,4 °C 13,3 °C 33 % 1016,4 hPa 0,0 l/m² 6,1 km/h (2 Bft) W 278 ° 0 min 0,0 UV-I 53 W/m² 7,9 °C 25,4 °C 11,3 km/h (2 Bft)
02.05.2026 18:52 25,3 °C 24,4 °C 13,3 °C 34 % 1016,3 hPa 0,0 l/m² 4,1 km/h (1 Bft) W 265 ° 0 min 0,0 UV-I 67 W/m² 8,3 °C 25,3 °C 6,4 km/h (2 Bft)
02.05.2026 18:54 25,3 °C 24,4 °C 13,3 °C 33 % 1016,4 hPa 0,0 l/m² 6,1 km/h (2 Bft) SW 228 ° 0 min 0,0 UV-I 44 W/m² 7,9 °C 25,3 °C 11,3 km/h (2 Bft)
02.05.2026 18:56 25,2 °C 25,6 °C 13,3 °C 35 % 1016,3 hPa 0,0 l/m² 4,1 km/h (1 Bft) S 180 ° 0 min 0,0 UV-I 54 W/m² 8,6 °C 25,2 °C 6,4 km/h (2 Bft)
02.05.2026 18:58 25,2 °C 25,6 °C 13,3 °C 34 % 1016,4 hPa 0,0 l/m² 7,6 km/h (2 Bft) SW 234 ° 0 min 0,0 UV-I 47 W/m² 8,2 °C 25,2 °C 11,3 km/h (2 Bft)
02.05.2026 19:00 25,1 °C 26,1 °C 13,3 °C 34 % 1016,3 hPa 0,0 l/m² 6,0 km/h (2 Bft) S-SW 204 ° 0 min 0,0 UV-I 93 W/m² 8,1 °C 25,1 °C 9,7 km/h (2 Bft)
02.05.2026 19:02 25,1 °C 26,1 °C 13,3 °C 34 % 1016,3 hPa 0,0 l/m² 4,3 km/h (1 Bft) SW 233 ° 0 min 0,0 UV-I 79 W/m² 8,1 °C 25,1 °C 6,4 km/h (2 Bft)
02.05.2026 19:04 25,1 °C 26,7 °C 13,3 °C 34 % 1016,3 hPa 0,0 l/m² 4,8 km/h (1 Bft) SW 228 ° 0 min 0,0 UV-I 49 W/m² 8,1 °C 25,1 °C 9,7 km/h (2 Bft)
02.05.2026 19:06 25,1 °C 26,1 °C 13,3 °C 34 % 1016,3 hPa 0,0 l/m² 3,9 km/h (1 Bft) SW 223 ° 0 min 0,0 UV-I 51 W/m² 8,1 °C 25,1 °C 8,0 km/h (2 Bft)
02.05.2026 19:08 25,1 °C 26,1 °C 13,3 °C 34 % 1016,2 hPa 0,0 l/m² 2,4 km/h (1 Bft) W-SW 239 ° 0 min 0,0 UV-I 51 W/m² 8,1 °C 25,1 °C 8,0 km/h (2 Bft)
02.05.2026 19:10 25,0 °C 26,1 °C 13,3 °C 34 % 1016,2 hPa 0,0 l/m² 6,2 km/h (2 Bft) W-SW 255 ° 0 min 0,0 UV-I 47 W/m² 8,0 °C 25,0 °C 9,7 km/h (2 Bft)
02.05.2026 19:12 25,0 °C 25,6 °C 13,3 °C 35 % 1016,2 hPa 0,0 l/m² 6,4 km/h (2 Bft) SW 236 ° 0 min 0,0 UV-I 47 W/m² 8,5 °C 25,0 °C 11,3 km/h (2 Bft)
02.05.2026 19:14 24,9 °C 25,6 °C 13,3 °C 35 % 1016,2 hPa 0,0 l/m² 4,2 km/h (1 Bft) W-SW 248 ° 0 min 0,0 UV-I 60 W/m² 8,4 °C 24,9 °C 8,0 km/h (2 Bft)
02.05.2026 19:16 24,8 °C 25,6 °C 13,3 °C 36 % 1016,1 hPa 0,0 l/m² 2,6 km/h (1 Bft) SW 229 ° 0 min 0,0 UV-I 58 W/m² 8,7 °C 24,8 °C 4,8 km/h (1 Bft)
02.05.2026 19:18 24,8 °C 25,0 °C 13,3 °C 35 % 1016,2 hPa 0,0 l/m² 2,0 km/h (1 Bft) S-SW 204 ° 0 min 0,0 UV-I 49 W/m² 8,3 °C 24,8 °C 4,8 km/h (1 Bft)
02.05.2026 19:20 24,8 °C 23,9 °C 13,3 °C 35 % 1016,1 hPa 0,0 l/m² 3,5 km/h (1 Bft) S-SW 201 ° 0 min 0,0 UV-I 56 W/m² 8,3 °C 24,8 °C 6,4 km/h (2 Bft)
02.05.2026 19:22 24,7 °C 23,3 °C 13,3 °C 36 % 1016,1 hPa 0,0 l/m² 1,9 km/h (1 Bft) S-SW 200 ° 0 min 0,0 UV-I 62 W/m² 8,6 °C 24,7 °C 3,2 km/h (1 Bft)
02.05.2026 19:24 24,7 °C 21,7 °C 13,3 °C 36 % 1016,2 hPa 0,0 l/m² 3,6 km/h (1 Bft) SW 227 ° 0 min 0,0 UV-I 63 W/m² 8,6 °C 24,7 °C 8,0 km/h (2 Bft)
02.05.2026 19:26 24,7 °C 20,6 °C 13,3 °C 35 % 1016,1 hPa 0,0 l/m² 3,2 km/h (1 Bft) SW 215 ° 0 min 0,0 UV-I 79 W/m² 8,2 °C 24,7 °C 6,4 km/h (2 Bft)
02.05.2026 19:28 24,7 °C 20,0 °C 13,3 °C 35 % 1016,2 hPa 0,0 l/m² 2,6 km/h (1 Bft) S-SW 213 ° 0 min 0,0 UV-I 69 W/m² 8,2 °C 24,7 °C 4,8 km/h (1 Bft)
02.05.2026 19:30 24,7 °C 19,4 °C 13,3 °C 36 % 1016,1 hPa 0,0 l/m² 4,1 km/h (1 Bft) S-SW 202 ° 0 min 0,0 UV-I 65 W/m² 8,6 °C 24,7 °C 6,4 km/h (2 Bft)
02.05.2026 19:32 24,4 °C 18,9 °C 13,3 °C 37 % 1016,2 hPa 0,0 l/m² 2,8 km/h (1 Bft) S-SW 202 ° 0 min 0,0 UV-I 62 W/m² 8,8 °C 24,4 °C 4,8 km/h (1 Bft)
02.05.2026 19:34 24,3 °C 18,3 °C 13,3 °C 37 % 1016,1 hPa 0,0 l/m² 2,8 km/h (1 Bft) S-SW 208 ° 0 min 0,0 UV-I 53 W/m² 8,7 °C 24,3 °C 4,8 km/h (1 Bft)
02.05.2026 19:36 24,1 °C 17,8 °C 13,3 °C 38 % 1016,1 hPa 0,0 l/m² 0,6 km/h (0 Bft) S-SW 208 ° 0 min 0,0 UV-I 47 W/m² 8,9 °C 24,1 °C 1,6 km/h (1 Bft)
02.05.2026 19:38 23,8 °C 17,2 °C 13,3 °C 39 % 1016,1 hPa 0,0 l/m² 0,8 km/h (0 Bft) S-SW 208 ° 0 min 0,0 UV-I 47 W/m² 9,0 °C 23,8 °C 3,2 km/h (1 Bft)
02.05.2026 19:40 23,6 °C 16,7 °C 13,3 °C 39 % 1016,1 hPa 0,0 l/m² 0,2 km/h (0 Bft) S-SW 208 ° 0 min 0,0 UV-I 42 W/m² 8,8 °C 23,6 °C 1,6 km/h (1 Bft)
02.05.2026 19:42 23,3 °C 16,1 °C 13,3 °C 41 % 1016,1 hPa 0,0 l/m² 0,5 km/h (0 Bft) S-SW 208 ° 0 min 0,0 UV-I 40 W/m² 9,3 °C 23,3 °C 1,6 km/h (1 Bft)
02.05.2026 19:44 23,0 °C 16,1 °C 13,3 °C 41 % 1016,1 hPa 0,0 l/m² 0,2 km/h (0 Bft) S-SW 208 ° 0 min 0,0 UV-I 39 W/m² 9,0 °C 23,0 °C 1,6 km/h (1 Bft)
02.05.2026 19:46 22,8 °C 15,6 °C 13,3 °C 43 % 1016,0 hPa 0,0 l/m² 0,3 km/h (0 Bft) S-SW 208 ° 0 min 0,0 UV-I 33 W/m² 9,6 °C 22,8 °C 1,6 km/h (1 Bft)
02.05.2026 19:48 22,4 °C 15,6 °C 13,3 °C 44 % 1016,0 hPa 0,0 l/m² 0,0 km/h (0 Bft) S-SW 208 ° 0 min 0,0 UV-I 32 W/m² 9,5 °C 22,4 °C 0,0 km/h (0 Bft)
02.05.2026 19:50 22,2 °C 15,0 °C 13,3 °C 44 % 1016,1 hPa 0,0 l/m² 0,6 km/h (0 Bft) S-SW 208 ° 0 min 0,0 UV-I 30 W/m² 9,4 °C 22,2 °C 1,6 km/h (1 Bft)
02.05.2026 19:52 22,0 °C 14,4 °C 13,3 °C 46 % 1016,0 hPa 0,0 l/m² 0,0 km/h (0 Bft) S-SW 208 ° 0 min 0,0 UV-I 28 W/m² 9,8 °C 22,0 °C 0,0 km/h (0 Bft)
02.05.2026 19:54 21,9 °C 14,4 °C 13,3 °C 47 % 1016,0 hPa 0,0 l/m² 0,0 km/h (0 Bft) S-SW 208 ° 0 min 0,0 UV-I 26 W/m² 10,1 °C 21,9 °C 0,0 km/h (0 Bft)
02.05.2026 19:56 21,6 °C 14,4 °C 13,3 °C 48 % 1016,0 hPa 0,0 l/m² 0,2 km/h (0 Bft) S-SW 208 ° 0 min 0,0 UV-I 26 W/m² 10,1 °C 21,6 °C 1,6 km/h (1 Bft)
02.05.2026 19:58 21,4 °C 13,9 °C 13,3 °C 48 % 1016,0 hPa 0,0 l/m² 0,0 km/h (0 Bft) S-SW 208 ° 0 min 0,0 UV-I 25 W/m² 9,9 °C 21,4 °C 0,0 km/h (0 Bft)
02.05.2026 20:00 21,2 °C 13,9 °C 13,3 °C 51 % 1016,1 hPa 0,0 l/m² 0,2 km/h (0 Bft) S-SW 208 ° 0 min 0,0 UV-I 25 W/m² 10,7 °C 21,2 °C 1,6 km/h (1 Bft)
02.05.2026 20:02 20,9 °C 13,3 °C 13,3 °C 50 % 1016,0 hPa 0,0 l/m² 0,7 km/h (0 Bft) S-SW 208 ° 0 min 0,0 UV-I 23 W/m² 10,1 °C 20,9 °C 1,6 km/h (1 Bft)
02.05.2026 20:04 20,8 °C 13,3 °C 13,3 °C 49 % 1016,0 hPa 0,0 l/m² 0,0 km/h (0 Bft) S-SW 208 ° 0 min 0,0 UV-I 23 W/m² 9,7 °C 20,8 °C 0,0 km/h (0 Bft)
02.05.2026 20:06 20,7 °C 13,3 °C 13,3 °C 52 % 1016,0 hPa 0,0 l/m² 0,0 km/h (0 Bft) S-SW 208 ° 0 min 0,0 UV-I 23 W/m² 10,5 °C 20,7 °C 0,0 km/h (0 Bft)
02.05.2026 20:08 20,4 °C 13,3 °C 13,3 °C 52 % 1016,0 hPa 0,0 l/m² 0,0 km/h (0 Bft) S-SW 208 ° 0 min 0,0 UV-I 23 W/m² 10,2 °C 20,4 °C 0,0 km/h (0 Bft)
02.05.2026 20:10 20,2 °C 13,3 °C 13,3 °C 53 % 1016,0 hPa 0,0 l/m² 0,1 km/h (0 Bft) S-SW 208 ° 0 min 0,0 UV-I 23 W/m² 10,3 °C 20,2 °C 1,6 km/h (1 Bft)
02.05.2026 20:12 20,1 °C 12,8 °C 13,3 °C 53 % 1016,0 hPa 0,0 l/m² 0,1 km/h (0 Bft) S-SW 208 ° 0 min 0,0 UV-I 25 W/m² 10,2 °C 20,1 °C 1,6 km/h (1 Bft)
02.05.2026 20:14 19,9 °C 12,8 °C 13,3 °C 53 % 1016,0 hPa 0,0 l/m² 0,0 km/h (0 Bft) S-SW 208 ° 2 min 0,0 UV-I 28 W/m² 10,0 °C 19,9 °C 0,0 km/h (0 Bft)
02.05.2026 20:16 19,8 °C 12,2 °C 13,3 °C 54 % 1016,0 hPa 0,0 l/m² 0,0 km/h (0 Bft) S-SW 208 ° 2 min 0,0 UV-I 46 W/m² 10,2 °C 19,8 °C 0,0 km/h (0 Bft)
02.05.2026 20:18 19,6 °C 12,2 °C 13,3 °C 55 % 1015,9 hPa 0,0 l/m² 0,0 km/h (0 Bft) S-SW 208 ° 2 min 0,0 UV-I 31 W/m² 10,3 °C 19,6 °C 0,0 km/h (0 Bft)
02.05.2026 20:20 19,4 °C 12,2 °C 13,3 °C 56 % 1015,9 hPa 0,0 l/m² 0,0 km/h (0 Bft) S-SW 208 ° 2 min 0,0 UV-I 26 W/m² 10,4 °C 19,4 °C 0,0 km/h (0 Bft)
02.05.2026 20:22 19,4 °C 12,2 °C 13,3 °C 56 % 1015,9 hPa 0,0 l/m² 0,0 km/h (0 Bft) S-SW 208 ° 2 min 0,0 UV-I 22 W/m² 10,4 °C 19,4 °C 0,0 km/h (0 Bft)
02.05.2026 20:24 19,2 °C 11,7 °C 13,3 °C 57 % 1016,0 hPa 0,0 l/m² 0,0 km/h (0 Bft) S-SW 208 ° 2 min 0,0 UV-I 17 W/m² 10,5 °C 19,2 °C 0,0 km/h (0 Bft)
02.05.2026 20:26 19,0 °C 11,7 °C 13,3 °C 57 % 1015,9 hPa 0,0 l/m² 0,0 km/h (0 Bft) S-SW 208 ° 0 min 0,0 UV-I 12 W/m² 10,3 °C 19,0 °C 0,0 km/h (0 Bft)
02.05.2026 20:28 18,8 °C 11,7 °C 13,3 °C 57 % 1015,9 hPa 0,0 l/m² 0,0 km/h (0 Bft) S-SW 208 ° 0 min 0,0 UV-I 7 W/m² 10,1 °C 18,8 °C 0,0 km/h (0 Bft)
02.05.2026 20:30 18,7 °C 11,7 °C 13,3 °C 58 % 1016,0 hPa 0,0 l/m² 0,0 km/h (0 Bft) S-SW 208 ° 0 min 0,0 UV-I 2 W/m² 10,3 °C 18,7 °C 0,0 km/h (0 Bft)
02.05.2026 20:32 18,6 °C 11,1 °C 13,3 °C 58 % 1015,9 hPa 0,0 l/m² 0,0 km/h (0 Bft) S-SW 208 ° 0 min 0,0 UV-I 0 W/m² 10,2 °C 18,6 °C 0,0 km/h (0 Bft)
02.05.2026 20:34 18,4 °C 11,1 °C 13,3 °C 58 % 1016,0 hPa 0,0 l/m² 0,0 km/h (0 Bft) S-SW 208 ° 0 min 0,0 UV-I 0 W/m² 10,0 °C 18,4 °C 0,0 km/h (0 Bft)
02.05.2026 20:36 18,3 °C 11,1 °C 13,3 °C 59 % 1016,0 hPa 0,0 l/m² 0,0 km/h (0 Bft) S-SW 208 ° 0 min 0,0 UV-I 0 W/m² 10,1 °C 18,3 °C 0,0 km/h (0 Bft)
02.05.2026 20:38 18,1 °C 10,6 °C 13,3 °C 59 % 1015,9 hPa 0,0 l/m² 0,0 km/h (0 Bft) S-SW 208 ° 0 min 0,0 UV-I 0 W/m² 10,0 °C 18,1 °C 0,0 km/h (0 Bft)
02.05.2026 20:40 17,9 °C 10,6 °C 13,3 °C 59 % 1016,0 hPa 0,0 l/m² 0,0 km/h (0 Bft) S-SW 208 ° 0 min 0,0 UV-I 0 W/m² 9,8 °C 17,9 °C 0,0 km/h (0 Bft)
02.05.2026 20:42 17,8 °C 10,6 °C 13,3 °C 59 % 1016,0 hPa 0,0 l/m² 0,0 km/h (0 Bft) S-SW 208 ° 0 min 0,0 UV-I 16 W/m² 9,7 °C 17,8 °C 0,0 km/h (0 Bft)
02.05.2026 20:44 17,6 °C 10,6 °C 13,3 °C 60 % 1016,0 hPa 0,0 l/m² 0,0 km/h (0 Bft) S-SW 208 ° 0 min 0,0 UV-I 18 W/m² 9,7 °C 17,6 °C 0,0 km/h (0 Bft)
02.05.2026 20:46 17,5 °C 10,6 °C 13,3 °C 60 % 1016,0 hPa 0,0 l/m² 0,0 km/h (0 Bft) S-SW 208 ° 0 min 0,0 UV-I 18 W/m² 9,6 °C 17,5 °C 0,0 km/h (0 Bft)
02.05.2026 20:48 17,4 °C 10,0 °C 13,3 °C 60 % 1016,1 hPa 0,0 l/m² 0,0 km/h (0 Bft) S-SW 208 ° 0 min 0,0 UV-I 16 W/m² 9,6 °C 17,4 °C 0,0 km/h (0 Bft)
02.05.2026 20:50 17,3 °C 10,0 °C 13,3 °C 60 % 1016,1 hPa 0,0 l/m² 0,0 km/h (0 Bft) S-SW 208 ° 0 min 0,0 UV-I 14 W/m² 9,5 °C 17,3 °C 0,0 km/h (0 Bft)
02.05.2026 20:52 17,2 °C 10,0 °C 13,3 °C 60 % 1016,1 hPa 0,0 l/m² 0,0 km/h (0 Bft) S-SW 208 ° 0 min 0,0 UV-I 14 W/m² 9,4 °C 17,2 °C 0,0 km/h (0 Bft)
02.05.2026 20:54 17,1 °C 10,0 °C 13,3 °C 60 % 1016,0 hPa 0,0 l/m² 0,0 km/h (0 Bft) S-SW 208 ° 0 min 0,0 UV-I 0 W/m² 9,3 °C 17,1 °C 0,0 km/h (0 Bft)
02.05.2026 20:56 16,9 °C 10,0 °C 13,3 °C 60 % 1016,1 hPa 0,0 l/m² 0,0 km/h (0 Bft) S-SW 208 ° 0 min 0,0 UV-I 0 W/m² 9,1 °C 16,9 °C 0,0 km/h (0 Bft)
02.05.2026 20:58 16,8 °C 9,4 °C 12,8 °C 61 % 1016,1 hPa 0,0 l/m² 0,0 km/h (0 Bft) S-SW 208 ° 0 min 0,0 UV-I 0 W/m² 9,2 °C 16,8 °C 0,0 km/h (0 Bft)
02.05.2026 21:00 16,8 °C 9,4 °C 13,3 °C 60 % 1016,1 hPa 0,0 l/m² 0,0 km/h (0 Bft) S-SW 208 ° 0 min 0,0 UV-I 0 W/m² 9,0 °C 16,8 °C 0,0 km/h (0 Bft)
02.05.2026 21:02 16,8 °C 9,4 °C 12,8 °C 60 % 1016,1 hPa 0,0 l/m² 0,0 km/h (0 Bft) S-SW 208 ° 0 min 0,0 UV-I 0 W/m² 9,0 °C 16,8 °C 0,0 km/h (0 Bft)
02.05.2026 21:04 16,7 °C 9,4 °C 13,3 °C 61 % 1016,1 hPa 0,0 l/m² 0,0 km/h (0 Bft) S-SW 208 ° 0 min 0,0 UV-I 0 W/m² 9,1 °C 16,7 °C 0,0 km/h (0 Bft)
02.05.2026 21:06 16,6 °C 9,4 °C 12,8 °C 61 % 1016,1 hPa 0,0 l/m² 0,6 km/h (0 Bft) S-SW 208 ° 0 min 0,0 UV-I 0 W/m² 9,0 °C 16,6 °C 1,6 km/h (1 Bft)
02.05.2026 21:08 16,4 °C 9,4 °C 12,8 °C 61 % 1016,0 hPa 0,0 l/m² 0,4 km/h (0 Bft) S-SW 208 ° 0 min 0,0 UV-I 0 W/m² 8,9 °C 16,4 °C 1,6 km/h (1 Bft)
02.05.2026 21:10 16,3 °C 9,4 °C 13,3 °C 61 % 1016,1 hPa 0,0 l/m² 0,0 km/h (0 Bft) S-SW 208 ° 0 min 0,0 UV-I 0 W/m² 8,8 °C 16,3 °C 0,0 km/h (0 Bft)
02.05.2026 21:12 16,2 °C 9,4 °C 12,8 °C 61 % 1016,1 hPa 0,0 l/m² 0,0 km/h (0 Bft) S-SW 208 ° 0 min 0,0 UV-I 0 W/m² 8,7 °C 16,2 °C 0,0 km/h (0 Bft)
02.05.2026 21:14 16,1 °C 9,4 °C 12,8 °C 61 % 1016,0 hPa 0,0 l/m² 0,0 km/h (0 Bft) S-SW 208 ° 0 min 0,0 UV-I 0 W/m² 8,6 °C 16,1 °C 0,0 km/h (0 Bft)
02.05.2026 21:16 16,1 °C 8,9 °C 12,8 °C 61 % 1016,1 hPa 0,0 l/m² 0,0 km/h (0 Bft) S-SW 208 ° 0 min 0,0 UV-I 0 W/m² 8,6 °C 16,1 °C 0,0 km/h (0 Bft)
02.05.2026 21:18 15,9 °C 8,9 °C 12,8 °C 62 % 1016,0 hPa 0,0 l/m² 0,0 km/h (0 Bft) S-SW 208 ° 0 min 0,0 UV-I 0 W/m² 8,6 °C 15,9 °C 0,0 km/h (0 Bft)
02.05.2026 21:20 15,9 °C 8,9 °C 12,8 °C 62 % 1016,0 hPa 0,0 l/m² 0,0 km/h (0 Bft) S-SW 208 ° 0 min 0,0 UV-I 0 W/m² 8,6 °C 15,9 °C 0,0 km/h (0 Bft)
02.05.2026 21:22 15,8 °C 8,9 °C 12,8 °C 62 % 1016,0 hPa 0,0 l/m² 0,0 km/h (0 Bft) S-SW 208 ° 0 min 0,0 UV-I 0 W/m² 8,5 °C 15,8 °C 0,0 km/h (0 Bft)
02.05.2026 21:24 15,7 °C 8,9 °C 12,8 °C 62 % 1016,1 hPa 0,0 l/m² 0,0 km/h (0 Bft) S-SW 208 ° 0 min 0,0 UV-I 0 W/m² 8,4 °C 15,7 °C 0,0 km/h (0 Bft)
02.05.2026 21:26 15,6 °C 8,9 °C 12,8 °C 63 % 1016,0 hPa 0,0 l/m² 0,0 km/h (0 Bft) S-SW 208 ° 0 min 0,0 UV-I 0 W/m² 8,6 °C 15,6 °C 0,0 km/h (0 Bft)
02.05.2026 21:28 15,5 °C 8,9 °C 12,8 °C 63 % 1016,0 hPa 0,0 l/m² 0,0 km/h (0 Bft) S-SW 208 ° 0 min 0,0 UV-I 0 W/m² 8,5 °C 15,5 °C 0,0 km/h (0 Bft)
02.05.2026 21:30 15,4 °C 8,9 °C 12,8 °C 63 % 1016,0 hPa 0,0 l/m² 0,0 km/h (0 Bft) S-SW 208 ° 0 min 0,0 UV-I 0 W/m² 8,4 °C 15,4 °C 0,0 km/h (0 Bft)
02.05.2026 21:32 15,3 °C 8,9 °C 12,8 °C 64 % 1016,0 hPa 0,0 l/m² 0,1 km/h (0 Bft) S-SW 208 ° 0 min 0,0 UV-I 0 W/m² 8,5 °C 15,3 °C 1,6 km/h (1 Bft)
02.05.2026 21:34 15,1 °C 8,3 °C 12,8 °C 65 % 1016,0 hPa 0,0 l/m² 0,8 km/h (0 Bft) S-SW 208 ° 0 min 0,0 UV-I 0 W/m² 8,6 °C 15,1 °C 1,6 km/h (1 Bft)
02.05.2026 21:36 15,1 °C 8,3 °C 12,8 °C 65 % 1016,0 hPa 0,0 l/m² 1,3 km/h (1 Bft) S-SW 208 ° 0 min 0,0 UV-I 0 W/m² 8,6 °C 15,1 °C 3,2 km/h (1 Bft)
02.05.2026 21:38 15,1 °C 8,3 °C 12,8 °C 65 % 1016,0 hPa 0,0 l/m² 2,0 km/h (1 Bft) S-SW 208 ° 0 min 0,0 UV-I 0 W/m² 8,6 °C 15,1 °C 3,2 km/h (1 Bft)
02.05.2026 21:40 15,0 °C 8,3 °C 12,8 °C 65 % 1016,0 hPa 0,0 l/m² 2,3 km/h (1 Bft) S-SW 208 ° 0 min 0,0 UV-I 0 W/m² 8,5 °C 15,0 °C 3,2 km/h (1 Bft)
02.05.2026 21:42 15,0 °C 8,3 °C 12,8 °C 65 % 1015,9 hPa 0,0 l/m² 2,3 km/h (1 Bft) S-SW 208 ° 0 min 0,0 UV-I 0 W/m² 8,5 °C 15,0 °C 3,2 km/h (1 Bft)
02.05.2026 21:44 14,9 °C 8,3 °C 12,8 °C 65 % 1015,9 hPa 0,0 l/m² 2,2 km/h (1 Bft) S-SW 208 ° 0 min 0,0 UV-I 0 W/m² 8,4 °C 14,9 °C 3,2 km/h (1 Bft)
02.05.2026 21:46 14,9 °C 8,3 °C 12,8 °C 66 % 1015,9 hPa 0,0 l/m² 2,2 km/h (1 Bft) S-SW 208 ° 0 min 0,0 UV-I 0 W/m² 8,6 °C 14,9 °C 3,2 km/h (1 Bft)
02.05.2026 21:48 14,8 °C 8,3 °C 12,8 °C 66 % 1015,9 hPa 0,0 l/m² 1,8 km/h (1 Bft) S-SW 208 ° 0 min 0,0 UV-I 0 W/m² 8,5 °C 14,8 °C 3,2 km/h (1 Bft)
02.05.2026 21:50 14,7 °C 8,3 °C 12,8 °C 66 % 1015,9 hPa 0,0 l/m² 2,1 km/h (1 Bft) S-SW 208 ° 0 min 0,0 UV-I 0 W/m² 8,4 °C 14,7 °C 3,2 km/h (1 Bft)
02.05.2026 21:52 14,7 °C 8,3 °C 12,8 °C 66 % 1015,9 hPa 0,0 l/m² 1,3 km/h (1 Bft) S-SW 208 ° 0 min 0,0 UV-I 0 W/m² 8,4 °C 14,7 °C 3,2 km/h (1 Bft)
02.05.2026 21:54 14,6 °C 8,3 °C 12,8 °C 66 % 1015,8 hPa 0,0 l/m² 1,2 km/h (1 Bft) S-SW 208 ° 0 min 0,0 UV-I 0 W/m² 8,3 °C 14,6 °C 3,2 km/h (1 Bft)
02.05.2026 21:56 14,6 °C 8,3 °C 12,8 °C 66 % 1015,9 hPa 0,0 l/m² 1,4 km/h (1 Bft) S-SW 208 ° 0 min 0,0 UV-I 0 W/m² 8,3 °C 14,6 °C 3,2 km/h (1 Bft)
02.05.2026 21:58 14,5 °C 7,8 °C 12,8 °C 67 % 1015,9 hPa 0,0 l/m² 1,5 km/h (1 Bft) S-SW 208 ° 0 min 0,0 UV-I 0 W/m² 8,4 °C 14,5 °C 3,2 km/h (1 Bft)
02.05.2026 22:00 14,4 °C 7,8 °C 12,8 °C 67 % 1015,9 hPa 0,0 l/m² 1,0 km/h (0 Bft) S-SW 208 ° 0 min 0,0 UV-I 0 W/m² 8,4 °C 14,4 °C 1,6 km/h (1 Bft)
02.05.2026 22:02 14,3 °C 7,8 °C 12,8 °C 68 % 1015,8 hPa 0,0 l/m² 0,4 km/h (0 Bft) S-SW 208 ° 0 min 0,0 UV-I 0 W/m² 8,5 °C 14,3 °C 1,6 km/h (1 Bft)
02.05.2026 22:04 14,2 °C 7,8 °C 12,8 °C 67 % 1015,8 hPa 0,0 l/m² 0,0 km/h (0 Bft) S-SW 208 ° 0 min 0,0 UV-I 0 W/m² 8,2 °C 14,2 °C 0,0 km/h (0 Bft)
02.05.2026 22:06 14,2 °C 7,8 °C 12,8 °C 68 % 1015,8 hPa 0,0 l/m² 0,0 km/h (0 Bft) S-SW 208 ° 0 min 0,0 UV-I 0 W/m² 8,4 °C 14,2 °C 0,0 km/h (0 Bft)
02.05.2026 22:08 14,1 °C 7,8 °C 12,8 °C 68 % 1015,8 hPa 0,0 l/m² 0,0 km/h (0 Bft) S-SW 208 ° 0 min 0,0 UV-I 0 W/m² 8,3 °C 14,1 °C 0,0 km/h (0 Bft)
02.05.2026 22:10 14,0 °C 7,8 °C 12,8 °C 68 % 1015,8 hPa 0,0 l/m² 0,0 km/h (0 Bft) S-SW 208 ° 0 min 0,0 UV-I 0 W/m² 8,2 °C 14,0 °C 0,0 km/h (0 Bft)
02.05.2026 22:12 13,9 °C 7,8 °C 12,8 °C 69 % 1015,8 hPa 0,0 l/m² 0,0 km/h (0 Bft) S-SW 208 ° 0 min 0,0 UV-I 0 W/m² 8,3 °C 13,9 °C 0,0 km/h (0 Bft)
02.05.2026 22:14 13,9 °C 7,8 °C 12,8 °C 69 % 1015,8 hPa 0,0 l/m² 0,0 km/h (0 Bft) S-SW 208 ° 0 min 0,0 UV-I 0 W/m² 8,3 °C 13,9 °C 0,0 km/h (0 Bft)
02.05.2026 22:16 13,8 °C 7,8 °C 12,8 °C 69 % 1015,8 hPa 0,0 l/m² 0,0 km/h (0 Bft) S-SW 208 ° 0 min 0,0 UV-I 0 W/m² 8,2 °C 13,8 °C 0,0 km/h (0 Bft)
02.05.2026 22:18 13,8 °C 7,8 °C 12,8 °C 69 % 1015,8 hPa 0,0 l/m² 0,0 km/h (0 Bft) S-SW 208 ° 0 min 0,0 UV-I 0 W/m² 8,2 °C 13,8 °C 0,0 km/h (0 Bft)
02.05.2026 22:20 13,7 °C 7,2 °C 12,8 °C 70 % 1015,8 hPa 0,0 l/m² 0,0 km/h (0 Bft) S-SW 208 ° 0 min 0,0 UV-I 0 W/m² 8,3 °C 13,7 °C 0,0 km/h (0 Bft)
02.05.2026 22:22 13,7 °C 7,2 °C 12,8 °C 69 % 1015,8 hPa 0,0 l/m² 0,0 km/h (0 Bft) S-SW 208 ° 0 min 0,0 UV-I 0 W/m² 8,1 °C 13,7 °C 0,0 km/h (0 Bft)
02.05.2026 22:24 13,6 °C 7,2 °C 12,8 °C 70 % 1015,8 hPa 0,0 l/m² 0,0 km/h (0 Bft) S-SW 208 ° 0 min 0,0 UV-I 0 W/m² 8,2 °C 13,6 °C 0,0 km/h (0 Bft)
02.05.2026 22:26 13,6 °C 7,2 °C 12,8 °C 70 % 1015,8 hPa 0,0 l/m² 0,0 km/h (0 Bft) S-SW 208 ° 0 min 0,0 UV-I 0 W/m² 8,2 °C 13,6 °C 0,0 km/h (0 Bft)
02.05.2026 22:28 13,5 °C 7,2 °C 12,8 °C 70 % 1015,8 hPa 0,0 l/m² 0,0 km/h (0 Bft) S-SW 208 ° 0 min 0,0 UV-I 0 W/m² 8,1 °C 13,5 °C 0,0 km/h (0 Bft)
02.05.2026 22:30 13,4 °C 7,2 °C 12,8 °C 70 % 1015,8 hPa 0,0 l/m² 0,0 km/h (0 Bft) S-SW 208 ° 0 min 0,0 UV-I 0 W/m² 8,0 °C 13,4 °C 0,0 km/h (0 Bft)
02.05.2026 22:32 13,3 °C 7,2 °C 12,8 °C 70 % 1015,8 hPa 0,0 l/m² 0,0 km/h (0 Bft) S-SW 208 ° 0 min 0,0 UV-I 0 W/m² 7,9 °C 13,3 °C 0,0 km/h (0 Bft)
02.05.2026 22:34 13,2 °C 7,2 °C 12,8 °C 70 % 1015,7 hPa 0,0 l/m² 0,0 km/h (0 Bft) S-SW 208 ° 0 min 0,0 UV-I 0 W/m² 7,9 °C 13,2 °C 0,0 km/h (0 Bft)
02.05.2026 22:36 13,2 °C 7,2 °C 12,8 °C 71 % 1015,8 hPa 0,0 l/m² 0,0 km/h (0 Bft) S-SW 208 ° 0 min 0,0 UV-I 0 W/m² 8,1 °C 13,2 °C 0,0 km/h (0 Bft)
02.05.2026 22:38 13,2 °C 7,2 °C 12,8 °C 71 % 1015,8 hPa 0,0 l/m² 0,0 km/h (0 Bft) S-SW 208 ° 0 min 0,0 UV-I 0 W/m² 8,1 °C 13,2 °C 0,0 km/h (0 Bft)
02.05.2026 22:40 13,1 °C 7,2 °C 12,8 °C 71 % 1015,7 hPa 0,0 l/m² 0,0 km/h (0 Bft) S-SW 208 ° 0 min 0,0 UV-I 0 W/m² 8,0 °C 13,1 °C 0,0 km/h (0 Bft)
02.05.2026 22:42 13,1 °C 7,2 °C 12,8 °C 71 % 1015,7 hPa 0,0 l/m² 0,0 km/h (0 Bft) S-SW 208 ° 0 min 0,0 UV-I 0 W/m² 8,0 °C 13,1 °C 0,0 km/h (0 Bft)
02.05.2026 22:44 13,1 °C 7,2 °C 12,8 °C 71 % 1015,8 hPa 0,0 l/m² 0,0 km/h (0 Bft) S-SW 208 ° 0 min 0,0 UV-I 0 W/m² 8,0 °C 13,1 °C 0,0 km/h (0 Bft)
02.05.2026 22:46 13,0 °C 7,2 °C 12,8 °C 71 % 1015,7 hPa 0,0 l/m² 0,0 km/h (0 Bft) S-SW 208 ° 0 min 0,0 UV-I 0 W/m² 7,9 °C 13,0 °C 0,0 km/h (0 Bft)
02.05.2026 22:48 12,9 °C 6,7 °C 12,8 °C 72 % 1015,7 hPa 0,0 l/m² 0,0 km/h (0 Bft) S-SW 208 ° 0 min 0,0 UV-I 0 W/m² 8,0 °C 12,9 °C 0,0 km/h (0 Bft)
02.05.2026 22:50 12,9 °C 6,7 °C 12,8 °C 72 % 1015,7 hPa 0,0 l/m² 0,0 km/h (0 Bft) S-SW 208 ° 0 min 0,0 UV-I 0 W/m² 8,0 °C 12,9 °C 0,0 km/h (0 Bft)
02.05.2026 22:52 13,0 °C 6,7 °C 12,8 °C 72 % 1015,7 hPa 0,0 l/m² 0,0 km/h (0 Bft) S-SW 208 ° 0 min 0,0 UV-I 0 W/m² 8,1 °C 13,0 °C 0,0 km/h (0 Bft)
02.05.2026 22:54 12,9 °C 7,2 °C 12,8 °C 72 % 1015,7 hPa 0,0 l/m² 0,0 km/h (0 Bft) S-SW 208 ° 0 min 0,0 UV-I 0 W/m² 8,0 °C 12,9 °C 0,0 km/h (0 Bft)
02.05.2026 22:56 12,9 °C 6,7 °C 12,8 °C 72 % 1015,7 hPa 0,0 l/m² 0,0 km/h (0 Bft) S-SW 208 ° 0 min 0,0 UV-I 0 W/m² 8,0 °C 12,9 °C 0,0 km/h (0 Bft)
02.05.2026 22:58 12,8 °C 6,7 °C 12,8 °C 72 % 1015,7 hPa 0,0 l/m² 0,0 km/h (0 Bft) S-SW 208 ° 0 min 0,0 UV-I 0 W/m² 7,9 °C 12,8 °C 0,0 km/h (0 Bft)
02.05.2026 23:00 12,8 °C 6,7 °C 12,8 °C 72 % 1015,7 hPa 0,0 l/m² 0,0 km/h (0 Bft) S-SW 208 ° 0 min 0,0 UV-I 0 W/m² 7,9 °C 12,8 °C 0,0 km/h (0 Bft)
02.05.2026 23:02 12,7 °C 6,7 °C 12,8 °C 72 % 1015,6 hPa 0,0 l/m² 0,0 km/h (0 Bft) S-SW 208 ° 0 min 0,0 UV-I 0 W/m² 7,8 °C 12,7 °C 0,0 km/h (0 Bft)
02.05.2026 23:04 12,7 °C 6,7 °C 12,8 °C 72 % 1015,6 hPa 0,0 l/m² 0,0 km/h (0 Bft) S-SW 208 ° 0 min 0,0 UV-I 0 W/m² 7,8 °C 12,7 °C 0,0 km/h (0 Bft)
02.05.2026 23:06 12,6 °C 6,7 °C 12,8 °C 73 % 1015,6 hPa 0,0 l/m² 0,0 km/h (0 Bft) S-SW 208 ° 0 min 0,0 UV-I 0 W/m² 7,9 °C 12,6 °C 0,0 km/h (0 Bft)
02.05.2026 23:08 12,6 °C 6,7 °C 12,8 °C 73 % 1015,6 hPa 0,0 l/m² 0,0 km/h (0 Bft) S-SW 208 ° 0 min 0,0 UV-I 0 W/m² 7,9 °C 12,6 °C 0,0 km/h (0 Bft)
02.05.2026 23:10 12,6 °C 6,7 °C 12,8 °C 73 % 1015,6 hPa 0,0 l/m² 0,0 km/h (0 Bft) S-SW 208 ° 0 min 0,0 UV-I 0 W/m² 7,9 °C 12,6 °C 0,0 km/h (0 Bft)
02.05.2026 23:12 12,5 °C 6,7 °C 12,8 °C 73 % 1015,6 hPa 0,0 l/m² 0,0 km/h (0 Bft) S-SW 208 ° 0 min 0,0 UV-I 0 W/m² 7,8 °C 12,5 °C 0,0 km/h (0 Bft)
02.05.2026 23:14 12,4 °C 6,7 °C 12,8 °C 74 % 1015,5 hPa 0,0 l/m² 0,0 km/h (0 Bft) S-SW 208 ° 0 min 0,0 UV-I 0 W/m² 7,9 °C 12,4 °C 0,0 km/h (0 Bft)
02.05.2026 23:16 12,4 °C 6,7 °C 12,8 °C 73 % 1015,5 hPa 0,0 l/m² 0,0 km/h (0 Bft) S-SW 208 ° 0 min 0,0 UV-I 0 W/m² 7,7 °C 12,4 °C 0,0 km/h (0 Bft)
02.05.2026 23:18 12,3 °C 6,7 °C 12,8 °C 74 % 1015,5 hPa 0,0 l/m² 0,0 km/h (0 Bft) S-SW 208 ° 0 min 0,0 UV-I 0 W/m² 7,8 °C 12,3 °C 0,0 km/h (0 Bft)
02.05.2026 23:20 12,3 °C 6,7 °C 12,8 °C 74 % 1015,6 hPa 0,0 l/m² 0,0 km/h (0 Bft) S-SW 208 ° 0 min 0,0 UV-I 0 W/m² 7,8 °C 12,3 °C 0,0 km/h (0 Bft)
02.05.2026 23:22 12,2 °C 6,7 °C 12,8 °C 74 % 1015,6 hPa 0,0 l/m² 0,0 km/h (0 Bft) S-SW 208 ° 0 min 0,0 UV-I 0 W/m² 7,7 °C 12,2 °C 0,0 km/h (0 Bft)
02.05.2026 23:24 12,2 °C 6,7 °C 12,8 °C 74 % 1015,6 hPa 0,0 l/m² 0,0 km/h (0 Bft) S-SW 208 ° 0 min 0,0 UV-I 0 W/m² 7,7 °C 12,2 °C 0,0 km/h (0 Bft)
02.05.2026 23:26 12,2 °C 6,7 °C 12,8 °C 75 % 1015,6 hPa 0,0 l/m² 0,0 km/h (0 Bft) S-SW 208 ° 0 min 0,0 UV-I 0 W/m² 7,9 °C 12,2 °C 0,0 km/h (0 Bft)
02.05.2026 23:28 12,2 °C 6,7 °C 12,8 °C 75 % 1015,5 hPa 0,0 l/m² 0,0 km/h (0 Bft) S-SW 208 ° 0 min 0,0 UV-I 0 W/m² 7,9 °C 12,2 °C 0,0 km/h (0 Bft)
02.05.2026 23:30 12,1 °C 6,7 °C 12,8 °C 75 % 1015,6 hPa 0,0 l/m² 0,0 km/h (0 Bft) S-SW 208 ° 0 min 0,0 UV-I 0 W/m² 7,8 °C 12,1 °C 0,0 km/h (0 Bft)
02.05.2026 23:32 12,1 °C 6,7 °C 12,2 °C 75 % 1015,6 hPa 0,0 l/m² 0,0 km/h (0 Bft) S-SW 208 ° 0 min 0,0 UV-I 0 W/m² 7,8 °C 12,1 °C 0,0 km/h (0 Bft)
02.05.2026 23:34 12,1 °C 6,7 °C 12,8 °C 75 % 1015,5 hPa 0,0 l/m² 0,0 km/h (0 Bft) S-SW 208 ° 0 min 0,0 UV-I 0 W/m² 7,8 °C 12,1 °C 0,0 km/h (0 Bft)
02.05.2026 23:36 12,0 °C 6,7 °C 12,2 °C 75 % 1015,5 hPa 0,0 l/m² 0,0 km/h (0 Bft) S-SW 208 ° 0 min 0,0 UV-I 0 W/m² 7,7 °C 12,0 °C 0,0 km/h (0 Bft)
02.05.2026 23:38 12,0 °C 6,7 °C 12,2 °C 75 % 1015,5 hPa 0,0 l/m² 0,0 km/h (0 Bft) S-SW 208 ° 0 min 0,0 UV-I 0 W/m² 7,7 °C 12,0 °C 0,0 km/h (0 Bft)
02.05.2026 23:40 11,9 °C 6,7 °C 12,8 °C 76 % 1015,5 hPa 0,0 l/m² 0,0 km/h (0 Bft) S-SW 208 ° 0 min 0,0 UV-I 0 W/m² 7,8 °C 11,9 °C 0,0 km/h (0 Bft)
02.05.2026 23:42 11,9 °C 6,7 °C 12,2 °C 76 % 1015,4 hPa 0,0 l/m² 0,0 km/h (0 Bft) S-SW 208 ° 0 min 0,0 UV-I 0 W/m² 7,8 °C 11,9 °C 0,0 km/h (0 Bft)
02.05.2026 23:44 11,9 °C 6,7 °C 12,8 °C 75 % 1015,5 hPa 0,0 l/m² 0,0 km/h (0 Bft) S-SW 208 ° 0 min 0,0 UV-I 0 W/m² 7,6 °C 11,9 °C 0,0 km/h (0 Bft)
02.05.2026 23:46 11,9 °C 6,7 °C 12,2 °C 76 % 1015,5 hPa 0,0 l/m² 0,0 km/h (0 Bft) S-SW 208 ° 0 min 0,0 UV-I 0 W/m² 7,8 °C 11,9 °C 0,0 km/h (0 Bft)
02.05.2026 23:48 11,9 °C 6,7 °C 12,2 °C 76 % 1015,5 hPa 0,0 l/m² 0,0 km/h (0 Bft) S-SW 208 ° 0 min 0,0 UV-I 0 W/m² 7,8 °C 11,9 °C 0,0 km/h (0 Bft)
02.05.2026 23:50 11,8 °C 6,7 °C 12,2 °C 76 % 1015,5 hPa 0,0 l/m² 0,0 km/h (0 Bft) S-SW 208 ° 0 min 0,0 UV-I 0 W/m² 7,7 °C 11,8 °C 0,0 km/h (0 Bft)
02.05.2026 23:52 11,8 °C 6,7 °C 12,2 °C 76 % 1015,5 hPa 0,0 l/m² 0,0 km/h (0 Bft) S-SW 208 ° 0 min 0,0 UV-I 0 W/m² 7,7 °C 11,8 °C 0,0 km/h (0 Bft)
02.05.2026 23:54 11,8 °C 6,1 °C 12,2 °C 76 % 1015,4 hPa 0,0 l/m² 0,0 km/h (0 Bft) S-SW 208 ° 0 min 0,0 UV-I 0 W/m² 7,7 °C 11,8 °C 0,0 km/h (0 Bft)
02.05.2026 23:56 11,7 °C 6,1 °C 12,2 °C 76 % 1015,5 hPa 0,0 l/m² 0,0 km/h (0 Bft) S-SW 208 ° 0 min 0,0 UV-I 0 W/m² 7,6 °C 11,7 °C 0,0 km/h (0 Bft)
02.05.2026 23:58 11,7 °C 6,7 °C 12,8 °C 76 % 1015,4 hPa 0,0 l/m² 0,0 km/h (0 Bft) S-SW 208 ° 0 min 0,0 UV-I 0 W/m² 7,6 °C 11,7 °C 0,0 km/h (0 Bft)
_ Min-Zeit 05:56 05:50 09:00 18:14 23:58 - 23:58 - - - - - 06:08 06:08 23:58
Minimum _ 4,8 °C 0,6 °C 10,0 °C 32 % 1015,4 hPa - 0,0 km/h (0 Bft) - - - - - 2,9 °C 4,9 °C 0,0 km/h (0 Bft)
_ Max-Zeit 16:30 16:52 21:10 07:12 00:04 23:58 11:36 - - 16:33 13:00 13:04 12:10 16:30 13:46
Maximum _ 26,4 °C 38,9 °C 13,3 °C 88 % 1025,6 hPa 0,0 l/m² 15,8 km/h
W-SW (3 Bft)
- - 3 min 4,2 UV-I 858 W/m² 11,8 °C 26,4 °C 25,7 km/h
W-SW (4 Bft)
Durchschnitt _ 16,3 °C 15,7 °C 11,8 °C 61 % 1020,9 hPa #0,0 l/m² 3,8 km/h (1 Bft) S-SW - #11:04 h 2,4 UV-I 466 W/m² 7,5 °C 16,3 °C 7,1 km/h (2 Bft)